<?xml version="1.0" encoding="UTF-8" standalone="no" ?>
<gpx xmlns="http://www.topografix.com/GPX/1/1" xmlns:xsi="http://www.w3.org/2001/XMLSchema-instance" xsi:schemaLocation="http://www.topografix.com/GPX/1/1 http://www.topografix.com/GPX/1/1/gpx.xsd" version="1.1" creator="VisuGPX - https://www.visugpx.com">
  <metadata>
    <name>-1-Lanne-Ouest</name>
    <desc><![CDATA[SEMAINE LSVC 2024]]></desc>
  </metadata>
  <wpt lat="43.03806" lon="-1.0266">
    <ele>1325.1</ele>
    <name><![CDATA[Col Bagargui]]></name>
    <type><![CDATA[GENERIC]]></type>
  </wpt>
  <wpt lat="43.07761" lon="-0.84861">
    <ele>291.8</ele>
    <name><![CDATA[Haux]]></name>
    <type><![CDATA[GENERIC]]></type>
  </wpt>
  <wpt lat="43.09675" lon="-0.81817">
    <ele>271.2</ele>
    <name><![CDATA[Montory]]></name>
    <type><![CDATA[GENERIC]]></type>
  </wpt>
  <wpt lat="43.03806" lon="-1.0266">
    <ele>1325.1</ele>
    <name><![CDATA[Col Bagargiak]]></name>
    <type><![CDATA[GENERIC]]></type>
  </wpt>
  <wpt lat="43.03806" lon="-1.0266">
    <ele>1325.1</ele>
    <name><![CDATA[Cyclotourisme e]]></name>
    <type><![CDATA[GENERIC]]></type>
  </wpt>
  <wpt lat="43.06687" lon="-0.87652">
    <ele>264.7</ele>
    <name><![CDATA[Licq-Athérey]]></name>
    <type><![CDATA[GENERIC]]></type>
  </wpt>
  <wpt lat="43.03806" lon="-1.0266">
    <ele>1325.1</ele>
    <name><![CDATA[Col Bagargiak]]></name>
    <type><![CDATA[GENERIC]]></type>
  </wpt>
  <wpt lat="43.03806" lon="-1.0266">
    <ele>1325.1</ele>
    <name><![CDATA[Le centre éques]]></name>
    <type><![CDATA[GENERIC]]></type>
  </wpt>
  <wpt lat="43.09118" lon="-1.02277">
    <ele>895.6</ele>
    <name><![CDATA[Col de Burdin O]]></name>
    <type><![CDATA[GENERIC]]></type>
  </wpt>
  <wpt lat="43.04819" lon="-0.88611">
    <ele>285</ele>
    <name><![CDATA[Gave de Larrau]]></name>
    <type><![CDATA[GENERIC]]></type>
  </wpt>
  <wpt lat="43.09529" lon="-1.01207">
    <ele>959</ele>
    <name><![CDATA[Col d'Ibarburia]]></name>
    <type><![CDATA[GENERIC]]></type>
  </wpt>
  <wpt lat="43.04819" lon="-0.88611">
    <ele>285</ele>
    <name><![CDATA[Uhaitxa]]></name>
    <type><![CDATA[GENERIC]]></type>
  </wpt>
  <trk>
    <name><![CDATA[-1-Lanne-Ouest]]></name>
    <extensions>
      <line xmlns="http://www.topografix.com/GPX/gpx_style/0/2">
        <color>0000FF</color>
        <width>4</width>
      </line>
    </extensions>
    <trkseg>
      <trkpt lat="43.09724" lon="-0.7787">
        <ele>336.43</ele>
        <time>2024-05-29T20:22:48.000Z</time>
      </trkpt>
      <trkpt lat="43.09746" lon="-0.77859">
        <ele>336.07</ele>
        <time>2024-05-29T20:22:48.004Z</time>
      </trkpt>
      <trkpt lat="43.09807" lon="-0.7786">
        <ele>335.64</ele>
        <time>2024-05-29T20:22:48.018Z</time>
      </trkpt>
      <trkpt lat="43.09821" lon="-0.77857">
        <ele>335.05</ele>
        <time>2024-05-29T20:22:48.034Z</time>
      </trkpt>
      <trkpt lat="43.09835" lon="-0.77849">
        <ele>334.51</ele>
        <time>2024-05-29T20:22:48.052Z</time>
      </trkpt>
      <trkpt lat="43.09929" lon="-0.77777">
        <ele>333.97</ele>
        <time>2024-05-29T20:22:48.087Z</time>
      </trkpt>
      <trkpt lat="43.09979" lon="-0.77746">
        <ele>333.31</ele>
        <time>2024-05-29T20:22:48.131Z</time>
      </trkpt>
      <trkpt lat="43.10012" lon="-0.77728">
        <ele>332.56</ele>
        <time>2024-05-29T20:22:48.181Z</time>
      </trkpt>
      <trkpt lat="43.10049" lon="-0.77722">
        <ele>331.73</ele>
        <time>2024-05-29T20:22:48.237Z</time>
      </trkpt>
      <trkpt lat="43.10061" lon="-0.77718">
        <ele>330.96</ele>
        <time>2024-05-29T20:22:48.295Z</time>
      </trkpt>
      <trkpt lat="43.10072" lon="-0.7771">
        <ele>330.18</ele>
        <time>2024-05-29T20:22:48.355Z</time>
      </trkpt>
      <trkpt lat="43.10084" lon="-0.77691">
        <ele>329.34</ele>
        <time>2024-05-29T20:22:48.418Z</time>
      </trkpt>
      <trkpt lat="43.10092" lon="-0.77669">
        <ele>328.56</ele>
        <time>2024-05-29T20:22:48.484Z</time>
      </trkpt>
      <trkpt lat="43.10097" lon="-0.77604">
        <ele>327.89</ele>
        <time>2024-05-29T20:22:48.557Z</time>
      </trkpt>
      <trkpt lat="43.10103" lon="-0.77574">
        <ele>327.28</ele>
        <time>2024-05-29T20:22:48.634Z</time>
      </trkpt>
      <trkpt lat="43.10134" lon="-0.77485">
        <ele>326.6</ele>
        <time>2024-05-29T20:22:48.723Z</time>
      </trkpt>
      <trkpt lat="43.10141" lon="-0.77471">
        <ele>326.03</ele>
        <time>2024-05-29T20:22:48.814Z</time>
      </trkpt>
      <trkpt lat="43.10184" lon="-0.77415">
        <ele>325.82</ele>
        <time>2024-05-29T20:22:48.914Z</time>
      </trkpt>
      <trkpt lat="43.10196" lon="-0.77406">
        <ele>325.55</ele>
        <time>2024-05-29T20:22:49.016Z</time>
      </trkpt>
      <trkpt lat="43.10313" lon="-0.77378">
        <ele>324.7</ele>
        <time>2024-05-29T20:22:49.137Z</time>
      </trkpt>
      <trkpt lat="43.10375" lon="-0.77356">
        <ele>324.35</ele>
        <time>2024-05-29T20:22:49.268Z</time>
      </trkpt>
      <trkpt lat="43.10404" lon="-0.77349">
        <ele>323.66</ele>
        <time>2024-05-29T20:22:49.404Z</time>
      </trkpt>
      <trkpt lat="43.10436" lon="-0.77335">
        <ele>322.85</ele>
        <time>2024-05-29T20:22:49.546Z</time>
      </trkpt>
      <trkpt lat="43.10448" lon="-0.77334">
        <ele>322.18</ele>
        <time>2024-05-29T20:22:49.689Z</time>
      </trkpt>
      <trkpt lat="43.105" lon="-0.77354">
        <ele>321.69</ele>
        <time>2024-05-29T20:22:49.841Z</time>
      </trkpt>
      <trkpt lat="43.10522" lon="-0.7736">
        <ele>321.36</ele>
        <time>2024-05-29T20:22:49.997Z</time>
      </trkpt>
      <trkpt lat="43.10545" lon="-0.77357">
        <ele>321.03</ele>
        <time>2024-05-29T20:22:50.156Z</time>
      </trkpt>
      <trkpt lat="43.10559" lon="-0.77352">
        <ele>320.76</ele>
        <time>2024-05-29T20:22:50.318Z</time>
      </trkpt>
      <trkpt lat="43.10579" lon="-0.77339">
        <ele>320.55</ele>
        <time>2024-05-29T20:22:50.483Z</time>
      </trkpt>
      <trkpt lat="43.10614" lon="-0.77311">
        <ele>320.42</ele>
        <time>2024-05-29T20:22:50.655Z</time>
      </trkpt>
      <trkpt lat="43.10682" lon="-0.77277">
        <ele>320.28</ele>
        <time>2024-05-29T20:22:50.838Z</time>
      </trkpt>
      <trkpt lat="43.10702" lon="-0.7727">
        <ele>320.3</ele>
        <time>2024-05-29T20:22:51.025Z</time>
      </trkpt>
      <trkpt lat="43.10842" lon="-0.77252">
        <ele>320.3</ele>
        <time>2024-05-29T20:22:51.234Z</time>
      </trkpt>
      <trkpt lat="43.10905" lon="-0.77263">
        <ele>320.21</ele>
        <time>2024-05-29T20:22:51.453Z</time>
      </trkpt>
      <trkpt lat="43.10927" lon="-0.77263">
        <ele>320.49</ele>
        <time>2024-05-29T20:22:51.676Z</time>
      </trkpt>
      <trkpt lat="43.10945" lon="-0.7726">
        <ele>320.91</ele>
        <time>2024-05-29T20:22:51.902Z</time>
      </trkpt>
      <trkpt lat="43.10965" lon="-0.77247">
        <ele>321.49</ele>
        <time>2024-05-29T20:22:52.131Z</time>
      </trkpt>
      <trkpt lat="43.10988" lon="-0.77229">
        <ele>322.14</ele>
        <time>2024-05-29T20:22:52.365Z</time>
      </trkpt>
      <trkpt lat="43.11028" lon="-0.7722">
        <ele>322.87</ele>
        <time>2024-05-29T20:22:52.605Z</time>
      </trkpt>
      <trkpt lat="43.11045" lon="-0.77723">
        <ele>324.53</ele>
        <time>2024-05-29T20:22:52.904Z</time>
      </trkpt>
      <trkpt lat="43.11048" lon="-0.77815">
        <ele>325.98</ele>
        <time>2024-05-29T20:22:53.214Z</time>
      </trkpt>
      <trkpt lat="43.1105" lon="-0.77822">
        <ele>327.36</ele>
        <time>2024-05-29T20:22:53.525Z</time>
      </trkpt>
      <trkpt lat="43.11057" lon="-0.77848">
        <ele>328.89</ele>
        <time>2024-05-29T20:22:53.839Z</time>
      </trkpt>
      <trkpt lat="43.11101" lon="-0.77977">
        <ele>330.55</ele>
        <time>2024-05-29T20:22:54.170Z</time>
      </trkpt>
      <trkpt lat="43.11145" lon="-0.78117">
        <ele>332.55</ele>
        <time>2024-05-29T20:22:54.518Z</time>
      </trkpt>
      <trkpt lat="43.11154" lon="-0.78155">
        <ele>334.14</ele>
        <time>2024-05-29T20:22:54.871Z</time>
      </trkpt>
      <trkpt lat="43.11158" lon="-0.78197">
        <ele>335.73</ele>
        <time>2024-05-29T20:22:55.229Z</time>
      </trkpt>
      <trkpt lat="43.11155" lon="-0.78299">
        <ele>337.02</ele>
        <time>2024-05-29T20:22:55.599Z</time>
      </trkpt>
      <trkpt lat="43.11151" lon="-0.78389">
        <ele>337.68</ele>
        <time>2024-05-29T20:22:55.980Z</time>
      </trkpt>
      <trkpt lat="43.11143" lon="-0.78416">
        <ele>338.97</ele>
        <time>2024-05-29T20:22:56.364Z</time>
      </trkpt>
      <trkpt lat="43.11127" lon="-0.78447">
        <ele>340.39</ele>
        <time>2024-05-29T20:22:56.752Z</time>
      </trkpt>
      <trkpt lat="43.11098" lon="-0.78491">
        <ele>341.72</ele>
        <time>2024-05-29T20:22:57.147Z</time>
      </trkpt>
      <trkpt lat="43.11091" lon="-0.78512">
        <ele>343.1</ele>
        <time>2024-05-29T20:22:57.545Z</time>
      </trkpt>
      <trkpt lat="43.11079" lon="-0.78625">
        <ele>345.18</ele>
        <time>2024-05-29T20:22:57.957Z</time>
      </trkpt>
      <trkpt lat="43.11071" lon="-0.78662">
        <ele>346.69</ele>
        <time>2024-05-29T20:22:58.373Z</time>
      </trkpt>
      <trkpt lat="43.11037" lon="-0.78762">
        <ele>348.15</ele>
        <time>2024-05-29T20:22:58.802Z</time>
      </trkpt>
      <trkpt lat="43.11021" lon="-0.78801">
        <ele>349.89</ele>
        <time>2024-05-29T20:22:59.236Z</time>
      </trkpt>
      <trkpt lat="43.11017" lon="-0.78807">
        <ele>351.38</ele>
        <time>2024-05-29T20:22:59.671Z</time>
      </trkpt>
      <trkpt lat="43.10958" lon="-0.78889">
        <ele>352.49</ele>
        <time>2024-05-29T20:23:00.120Z</time>
      </trkpt>
      <trkpt lat="43.10936" lon="-0.78907">
        <ele>353.59</ele>
        <time>2024-05-29T20:23:00.573Z</time>
      </trkpt>
      <trkpt lat="43.10879" lon="-0.78941">
        <ele>354.59</ele>
        <time>2024-05-29T20:23:01.036Z</time>
      </trkpt>
      <trkpt lat="43.10829" lon="-0.78987">
        <ele>355.92</ele>
        <time>2024-05-29T20:23:01.508Z</time>
      </trkpt>
      <trkpt lat="43.1078" lon="-0.79037">
        <ele>357.15</ele>
        <time>2024-05-29T20:23:01.990Z</time>
      </trkpt>
      <trkpt lat="43.10759" lon="-0.79072">
        <ele>358.16</ele>
        <time>2024-05-29T20:23:02.477Z</time>
      </trkpt>
      <trkpt lat="43.10699" lon="-0.79187">
        <ele>359.52</ele>
        <time>2024-05-29T20:23:02.981Z</time>
      </trkpt>
      <trkpt lat="43.10585" lon="-0.79323">
        <ele>360.16</ele>
        <time>2024-05-29T20:23:03.509Z</time>
      </trkpt>
      <trkpt lat="43.10567" lon="-0.79357">
        <ele>360.79</ele>
        <time>2024-05-29T20:23:04.042Z</time>
      </trkpt>
      <trkpt lat="43.1034" lon="-0.79935">
        <ele>362.14</ele>
        <time>2024-05-29T20:23:04.652Z</time>
      </trkpt>
      <trkpt lat="43.10304" lon="-0.80016">
        <ele>362.66</ele>
        <time>2024-05-29T20:23:05.273Z</time>
      </trkpt>
      <trkpt lat="43.10293" lon="-0.80044">
        <ele>362.78</ele>
        <time>2024-05-29T20:23:05.898Z</time>
      </trkpt>
      <trkpt lat="43.10288" lon="-0.80074">
        <ele>362.58</ele>
        <time>2024-05-29T20:23:06.526Z</time>
      </trkpt>
      <trkpt lat="43.10288" lon="-0.80131">
        <ele>361.99</ele>
        <time>2024-05-29T20:23:07.161Z</time>
      </trkpt>
      <trkpt lat="43.10297" lon="-0.8026">
        <ele>360.85</ele>
        <time>2024-05-29T20:23:07.811Z</time>
      </trkpt>
      <trkpt lat="43.10295" lon="-0.8029">
        <ele>359.6</ele>
        <time>2024-05-29T20:23:08.465Z</time>
      </trkpt>
      <trkpt lat="43.10284" lon="-0.80349">
        <ele>357.93</ele>
        <time>2024-05-29T20:23:09.126Z</time>
      </trkpt>
      <trkpt lat="43.10286" lon="-0.80382">
        <ele>356.24</ele>
        <time>2024-05-29T20:23:09.791Z</time>
      </trkpt>
      <trkpt lat="43.10293" lon="-0.80404">
        <ele>354.39</ele>
        <time>2024-05-29T20:23:10.459Z</time>
      </trkpt>
      <trkpt lat="43.10308" lon="-0.80435">
        <ele>352.46</ele>
        <time>2024-05-29T20:23:11.131Z</time>
      </trkpt>
      <trkpt lat="43.10317" lon="-0.80463">
        <ele>350.25</ele>
        <time>2024-05-29T20:23:11.807Z</time>
      </trkpt>
      <trkpt lat="43.10319" lon="-0.80489">
        <ele>347.77</ele>
        <time>2024-05-29T20:23:12.486Z</time>
      </trkpt>
      <trkpt lat="43.10315" lon="-0.80523">
        <ele>345.01</ele>
        <time>2024-05-29T20:23:13.169Z</time>
      </trkpt>
      <trkpt lat="43.10308" lon="-0.8055">
        <ele>342.15</ele>
        <time>2024-05-29T20:23:13.855Z</time>
      </trkpt>
      <trkpt lat="43.10285" lon="-0.80617">
        <ele>339.02</ele>
        <time>2024-05-29T20:23:14.550Z</time>
      </trkpt>
      <trkpt lat="43.10265" lon="-0.80655">
        <ele>335.76</ele>
        <time>2024-05-29T20:23:15.250Z</time>
      </trkpt>
      <trkpt lat="43.10252" lon="-0.80672">
        <ele>332.56</ele>
        <time>2024-05-29T20:23:15.953Z</time>
      </trkpt>
      <trkpt lat="43.10239" lon="-0.80685">
        <ele>329.33</ele>
        <time>2024-05-29T20:23:16.659Z</time>
      </trkpt>
      <trkpt lat="43.10082" lon="-0.8081">
        <ele>325.08</ele>
        <time>2024-05-29T20:23:17.394Z</time>
      </trkpt>
      <trkpt lat="43.10064" lon="-0.80817">
        <ele>321.47</ele>
        <time>2024-05-29T20:23:18.132Z</time>
      </trkpt>
      <trkpt lat="43.10051" lon="-0.80844">
        <ele>318.06</ele>
        <time>2024-05-29T20:23:18.874Z</time>
      </trkpt>
      <trkpt lat="43.10049" lon="-0.80852">
        <ele>314.71</ele>
        <time>2024-05-29T20:23:19.617Z</time>
      </trkpt>
      <trkpt lat="43.10046" lon="-0.80865">
        <ele>311.42</ele>
        <time>2024-05-29T20:23:20.361Z</time>
      </trkpt>
      <trkpt lat="43.10051" lon="-0.80887">
        <ele>308.3</ele>
        <time>2024-05-29T20:23:21.108Z</time>
      </trkpt>
      <trkpt lat="43.10051" lon="-0.80909">
        <ele>305.16</ele>
        <time>2024-05-29T20:23:21.857Z</time>
      </trkpt>
      <trkpt lat="43.10057" lon="-0.80939">
        <ele>302.17</ele>
        <time>2024-05-29T20:23:22.610Z</time>
      </trkpt>
      <trkpt lat="43.1007" lon="-0.80971">
        <ele>299.15</ele>
        <time>2024-05-29T20:23:23.367Z</time>
      </trkpt>
      <trkpt lat="43.10111" lon="-0.81049">
        <ele>295.86</ele>
        <time>2024-05-29T20:23:24.136Z</time>
      </trkpt>
      <trkpt lat="43.10119" lon="-0.81072">
        <ele>292.99</ele>
        <time>2024-05-29T20:23:24.908Z</time>
      </trkpt>
      <trkpt lat="43.10138" lon="-0.81142">
        <ele>289.97</ele>
        <time>2024-05-29T20:23:25.688Z</time>
      </trkpt>
      <trkpt lat="43.10143" lon="-0.81174">
        <ele>287.38</ele>
        <time>2024-05-29T20:23:26.472Z</time>
      </trkpt>
      <trkpt lat="43.10144" lon="-0.81213">
        <ele>285.06</ele>
        <time>2024-05-29T20:23:27.261Z</time>
      </trkpt>
      <trkpt lat="43.1014" lon="-0.81269">
        <ele>282.96</ele>
        <time>2024-05-29T20:23:28.056Z</time>
      </trkpt>
      <trkpt lat="43.10131" lon="-0.81318">
        <ele>281.07</ele>
        <time>2024-05-29T20:23:28.857Z</time>
      </trkpt>
      <trkpt lat="43.10108" lon="-0.81415">
        <ele>279.59</ele>
        <time>2024-05-29T20:23:29.670Z</time>
      </trkpt>
      <trkpt lat="43.10096" lon="-0.81449">
        <ele>278.04</ele>
        <time>2024-05-29T20:23:30.488Z</time>
      </trkpt>
      <trkpt lat="43.10083" lon="-0.81473">
        <ele>276.5</ele>
        <time>2024-05-29T20:23:31.309Z</time>
      </trkpt>
      <trkpt lat="43.10068" lon="-0.81491">
        <ele>274.99</ele>
        <time>2024-05-29T20:23:32.133Z</time>
      </trkpt>
      <trkpt lat="43.10053" lon="-0.81505">
        <ele>273.45</ele>
        <time>2024-05-29T20:23:32.960Z</time>
      </trkpt>
      <trkpt lat="43.10029" lon="-0.8152">
        <ele>271.9</ele>
        <time>2024-05-29T20:23:33.791Z</time>
      </trkpt>
      <trkpt lat="43.09959" lon="-0.81548">
        <ele>270.03</ele>
        <time>2024-05-29T20:23:34.634Z</time>
      </trkpt>
      <trkpt lat="43.09946" lon="-0.81558">
        <ele>268.45</ele>
        <time>2024-05-29T20:23:35.479Z</time>
      </trkpt>
      <trkpt lat="43.09934" lon="-0.81572">
        <ele>266.93</ele>
        <time>2024-05-29T20:23:36.327Z</time>
      </trkpt>
      <trkpt lat="43.09868" lon="-0.81678">
        <ele>265.2</ele>
        <time>2024-05-29T20:23:37.191Z</time>
      </trkpt>
      <trkpt lat="43.09839" lon="-0.81729">
        <ele>263.92</ele>
        <time>2024-05-29T20:23:38.063Z</time>
      </trkpt>
      <trkpt lat="43.09827" lon="-0.81765">
        <ele>262.75</ele>
        <time>2024-05-29T20:23:38.940Z</time>
      </trkpt>
      <trkpt lat="43.09796" lon="-0.81925">
        <ele>261.72</ele>
        <time>2024-05-29T20:23:39.836Z</time>
      </trkpt>
      <trkpt lat="43.09797" lon="-0.81951">
        <ele>260.7</ele>
        <time>2024-05-29T20:23:40.735Z</time>
      </trkpt>
      <trkpt lat="43.09857" lon="-0.82123">
        <ele>259.77</ele>
        <time>2024-05-29T20:23:41.656Z</time>
      </trkpt>
      <trkpt lat="43.09981" lon="-0.82466">
        <ele>258.52</ele>
        <time>2024-05-29T20:23:42.622Z</time>
      </trkpt>
      <trkpt lat="43.10015" lon="-0.82539">
        <ele>257.57</ele>
        <time>2024-05-29T20:23:43.598Z</time>
      </trkpt>
      <trkpt lat="43.10025" lon="-0.82577">
        <ele>256.8</ele>
        <time>2024-05-29T20:23:44.579Z</time>
      </trkpt>
      <trkpt lat="43.10028" lon="-0.82598">
        <ele>256</ele>
        <time>2024-05-29T20:23:45.563Z</time>
      </trkpt>
      <trkpt lat="43.10027" lon="-0.82638">
        <ele>255.19</ele>
        <time>2024-05-29T20:23:46.551Z</time>
      </trkpt>
      <trkpt lat="43.10021" lon="-0.82666">
        <ele>254.41</ele>
        <time>2024-05-29T20:23:47.543Z</time>
      </trkpt>
      <trkpt lat="43.09998" lon="-0.82724">
        <ele>253.61</ele>
        <time>2024-05-29T20:23:48.542Z</time>
      </trkpt>
      <trkpt lat="43.09988" lon="-0.82758">
        <ele>252.78</ele>
        <time>2024-05-29T20:23:49.546Z</time>
      </trkpt>
      <trkpt lat="43.09984" lon="-0.82801">
        <ele>251.96</ele>
        <time>2024-05-29T20:23:50.555Z</time>
      </trkpt>
      <trkpt lat="43.09995" lon="-0.82875">
        <ele>251.17</ele>
        <time>2024-05-29T20:23:51.573Z</time>
      </trkpt>
      <trkpt lat="43.10053" lon="-0.83186">
        <ele>250.77</ele>
        <time>2024-05-29T20:23:52.628Z</time>
      </trkpt>
      <trkpt lat="43.10079" lon="-0.83401">
        <ele>250.3</ele>
        <time>2024-05-29T20:23:53.709Z</time>
      </trkpt>
      <trkpt lat="43.10128" lon="-0.83864">
        <ele>249.56</ele>
        <time>2024-05-29T20:23:54.845Z</time>
      </trkpt>
      <trkpt lat="43.10128" lon="-0.83905">
        <ele>249.2</ele>
        <time>2024-05-29T20:23:55.985Z</time>
      </trkpt>
      <trkpt lat="43.10124" lon="-0.83951">
        <ele>248.79</ele>
        <time>2024-05-29T20:23:57.131Z</time>
      </trkpt>
      <trkpt lat="43.10113" lon="-0.84006">
        <ele>248.27</ele>
        <time>2024-05-29T20:23:58.284Z</time>
      </trkpt>
      <trkpt lat="43.10107" lon="-0.8406">
        <ele>247.85</ele>
        <time>2024-05-29T20:23:59.443Z</time>
      </trkpt>
      <trkpt lat="43.10105" lon="-0.84095">
        <ele>247.37</ele>
        <time>2024-05-29T20:24:00.606Z</time>
      </trkpt>
      <trkpt lat="43.10113" lon="-0.84165">
        <ele>246.78</ele>
        <time>2024-05-29T20:24:01.777Z</time>
      </trkpt>
      <trkpt lat="43.10136" lon="-0.84289">
        <ele>246.38</ele>
        <time>2024-05-29T20:24:02.963Z</time>
      </trkpt>
      <trkpt lat="43.10138" lon="-0.84326">
        <ele>246.11</ele>
        <time>2024-05-29T20:24:04.154Z</time>
      </trkpt>
      <trkpt lat="43.10135" lon="-0.84521">
        <ele>245.88</ele>
        <time>2024-05-29T20:24:05.368Z</time>
      </trkpt>
      <trkpt lat="43.10138" lon="-0.84584">
        <ele>245.53</ele>
        <time>2024-05-29T20:24:06.589Z</time>
      </trkpt>
      <trkpt lat="43.10168" lon="-0.84834">
        <ele>245.37</ele>
        <time>2024-05-29T20:24:07.840Z</time>
      </trkpt>
      <trkpt lat="43.10188" lon="-0.84977">
        <ele>245.26</ele>
        <time>2024-05-29T20:24:09.108Z</time>
      </trkpt>
      <trkpt lat="43.10197" lon="-0.85028">
        <ele>245.17</ele>
        <time>2024-05-29T20:24:10.382Z</time>
      </trkpt>
      <trkpt lat="43.10205" lon="-0.85051">
        <ele>245.04</ele>
        <time>2024-05-29T20:24:11.659Z</time>
      </trkpt>
      <trkpt lat="43.10224" lon="-0.85089">
        <ele>245.01</ele>
        <time>2024-05-29T20:24:12.941Z</time>
      </trkpt>
      <trkpt lat="43.10236" lon="-0.85109">
        <ele>245.01</ele>
        <time>2024-05-29T20:24:14.226Z</time>
      </trkpt>
      <trkpt lat="43.10257" lon="-0.85137">
        <ele>245.08</ele>
        <time>2024-05-29T20:24:15.516Z</time>
      </trkpt>
      <trkpt lat="43.10359" lon="-0.85247">
        <ele>244.66</ele>
        <time>2024-05-29T20:24:16.827Z</time>
      </trkpt>
      <trkpt lat="43.10416" lon="-0.85311">
        <ele>244.64</ele>
        <time>2024-05-29T20:24:18.150Z</time>
      </trkpt>
      <trkpt lat="43.10433" lon="-0.85333">
        <ele>244.58</ele>
        <time>2024-05-29T20:24:19.476Z</time>
      </trkpt>
      <trkpt lat="43.10455" lon="-0.85364">
        <ele>244.47</ele>
        <time>2024-05-29T20:24:20.807Z</time>
      </trkpt>
      <trkpt lat="43.10512" lon="-0.85457">
        <ele>244.34</ele>
        <time>2024-05-29T20:24:22.153Z</time>
      </trkpt>
      <trkpt lat="43.1056" lon="-0.8554">
        <ele>244.08</ele>
        <time>2024-05-29T20:24:23.511Z</time>
      </trkpt>
      <trkpt lat="43.10595" lon="-0.8563">
        <ele>243.53</ele>
        <time>2024-05-29T20:24:24.881Z</time>
      </trkpt>
      <trkpt lat="43.10614" lon="-0.85668">
        <ele>243.2</ele>
        <time>2024-05-29T20:24:26.256Z</time>
      </trkpt>
      <trkpt lat="43.10621" lon="-0.85679">
        <ele>242.86</ele>
        <time>2024-05-29T20:24:27.633Z</time>
      </trkpt>
      <trkpt lat="43.10631" lon="-0.85689">
        <ele>242.58</ele>
        <time>2024-05-29T20:24:29.012Z</time>
      </trkpt>
      <trkpt lat="43.1065" lon="-0.85701">
        <ele>242.28</ele>
        <time>2024-05-29T20:24:30.394Z</time>
      </trkpt>
      <trkpt lat="43.10704" lon="-0.85719">
        <ele>242.16</ele>
        <time>2024-05-29T20:24:31.785Z</time>
      </trkpt>
      <trkpt lat="43.10733" lon="-0.85737">
        <ele>241.65</ele>
        <time>2024-05-29T20:24:33.181Z</time>
      </trkpt>
      <trkpt lat="43.10746" lon="-0.85747">
        <ele>241.19</ele>
        <time>2024-05-29T20:24:34.580Z</time>
      </trkpt>
      <trkpt lat="43.1077" lon="-0.85778">
        <ele>240.67</ele>
        <time>2024-05-29T20:24:35.984Z</time>
      </trkpt>
      <trkpt lat="43.10787" lon="-0.85804">
        <ele>240.15</ele>
        <time>2024-05-29T20:24:37.392Z</time>
      </trkpt>
      <trkpt lat="43.10809" lon="-0.85845">
        <ele>239.37</ele>
        <time>2024-05-29T20:24:38.806Z</time>
      </trkpt>
      <trkpt lat="43.10826" lon="-0.85868">
        <ele>238.66</ele>
        <time>2024-05-29T20:24:40.224Z</time>
      </trkpt>
      <trkpt lat="43.10841" lon="-0.85885">
        <ele>238.03</ele>
        <time>2024-05-29T20:24:41.645Z</time>
      </trkpt>
      <trkpt lat="43.10906" lon="-0.85946">
        <ele>237.33</ele>
        <time>2024-05-29T20:24:43.079Z</time>
      </trkpt>
      <trkpt lat="43.10933" lon="-0.85968">
        <ele>236.7</ele>
        <time>2024-05-29T20:24:44.518Z</time>
      </trkpt>
      <trkpt lat="43.11" lon="-0.86001">
        <ele>236.26</ele>
        <time>2024-05-29T20:24:45.968Z</time>
      </trkpt>
      <trkpt lat="43.11015" lon="-0.86005">
        <ele>235.61</ele>
        <time>2024-05-29T20:24:47.421Z</time>
      </trkpt>
      <trkpt lat="43.11068" lon="-0.86009">
        <ele>235.09</ele>
        <time>2024-05-29T20:24:48.882Z</time>
      </trkpt>
      <trkpt lat="43.11108" lon="-0.86007">
        <ele>234.66</ele>
        <time>2024-05-29T20:24:50.349Z</time>
      </trkpt>
      <trkpt lat="43.11166" lon="-0.86029">
        <ele>234.09</ele>
        <time>2024-05-29T20:24:51.826Z</time>
      </trkpt>
      <trkpt lat="43.11195" lon="-0.86044">
        <ele>233.57</ele>
        <time>2024-05-29T20:24:53.308Z</time>
      </trkpt>
      <trkpt lat="43.11209" lon="-0.86048">
        <ele>233.21</ele>
        <time>2024-05-29T20:24:54.792Z</time>
      </trkpt>
      <trkpt lat="43.11208" lon="-0.86056">
        <ele>232.65</ele>
        <time>2024-05-29T20:24:56.277Z</time>
      </trkpt>
      <trkpt lat="43.11181" lon="-0.86233">
        <ele>232.09</ele>
        <time>2024-05-29T20:24:57.783Z</time>
      </trkpt>
      <trkpt lat="43.11162" lon="-0.86316">
        <ele>231.58</ele>
        <time>2024-05-29T20:24:59.300Z</time>
      </trkpt>
      <trkpt lat="43.11147" lon="-0.86371">
        <ele>231.12</ele>
        <time>2024-05-29T20:25:00.823Z</time>
      </trkpt>
      <trkpt lat="43.11163" lon="-0.86428">
        <ele>230.85</ele>
        <time>2024-05-29T20:25:02.354Z</time>
      </trkpt>
      <trkpt lat="43.11181" lon="-0.86459">
        <ele>230.55</ele>
        <time>2024-05-29T20:25:03.889Z</time>
      </trkpt>
      <trkpt lat="43.11208" lon="-0.86557">
        <ele>230.41</ele>
        <time>2024-05-29T20:25:05.437Z</time>
      </trkpt>
      <trkpt lat="43.11228" lon="-0.86576">
        <ele>230.08</ele>
        <time>2024-05-29T20:25:06.988Z</time>
      </trkpt>
      <trkpt lat="43.11249" lon="-0.86588">
        <ele>229.85</ele>
        <time>2024-05-29T20:25:08.543Z</time>
      </trkpt>
      <trkpt lat="43.1126" lon="-0.86598">
        <ele>229.63</ele>
        <time>2024-05-29T20:25:10.100Z</time>
      </trkpt>
      <trkpt lat="43.11273" lon="-0.86617">
        <ele>229.46</ele>
        <time>2024-05-29T20:25:11.660Z</time>
      </trkpt>
      <trkpt lat="43.11297" lon="-0.8663">
        <ele>229.2</ele>
        <time>2024-05-29T20:25:13.224Z</time>
      </trkpt>
      <trkpt lat="43.11306" lon="-0.86638">
        <ele>228.95</ele>
        <time>2024-05-29T20:25:14.790Z</time>
      </trkpt>
      <trkpt lat="43.11312" lon="-0.86648">
        <ele>228.7</ele>
        <time>2024-05-29T20:25:16.358Z</time>
      </trkpt>
      <trkpt lat="43.11367" lon="-0.86789">
        <ele>228.49</ele>
        <time>2024-05-29T20:25:17.944Z</time>
      </trkpt>
      <trkpt lat="43.11389" lon="-0.86833">
        <ele>228.24</ele>
        <time>2024-05-29T20:25:19.537Z</time>
      </trkpt>
      <trkpt lat="43.11452" lon="-0.86891">
        <ele>227.88</ele>
        <time>2024-05-29T20:25:21.142Z</time>
      </trkpt>
      <trkpt lat="43.1151" lon="-0.86932">
        <ele>227.59</ele>
        <time>2024-05-29T20:25:22.757Z</time>
      </trkpt>
      <trkpt lat="43.11601" lon="-0.87029">
        <ele>227.35</ele>
        <time>2024-05-29T20:25:24.391Z</time>
      </trkpt>
      <trkpt lat="43.11628" lon="-0.87087">
        <ele>227</ele>
        <time>2024-05-29T20:25:26.033Z</time>
      </trkpt>
      <trkpt lat="43.11697" lon="-0.87151">
        <ele>226.63</ele>
        <time>2024-05-29T20:25:27.688Z</time>
      </trkpt>
      <trkpt lat="43.11737" lon="-0.872">
        <ele>226.16</ele>
        <time>2024-05-29T20:25:29.352Z</time>
      </trkpt>
      <trkpt lat="43.11785" lon="-0.87254">
        <ele>225.73</ele>
        <time>2024-05-29T20:25:31.026Z</time>
      </trkpt>
      <trkpt lat="43.11792" lon="-0.87275">
        <ele>225.39</ele>
        <time>2024-05-29T20:25:32.702Z</time>
      </trkpt>
      <trkpt lat="43.11797" lon="-0.87283">
        <ele>225.04</ele>
        <time>2024-05-29T20:25:34.380Z</time>
      </trkpt>
      <trkpt lat="43.11805" lon="-0.87288">
        <ele>224.7</ele>
        <time>2024-05-29T20:25:36.059Z</time>
      </trkpt>
      <trkpt lat="43.11817" lon="-0.87291">
        <ele>224.36</ele>
        <time>2024-05-29T20:25:37.740Z</time>
      </trkpt>
      <trkpt lat="43.11853" lon="-0.8751">
        <ele>224.19</ele>
        <time>2024-05-29T20:25:39.447Z</time>
      </trkpt>
      <trkpt lat="43.11852" lon="-0.87553">
        <ele>223.85</ele>
        <time>2024-05-29T20:25:41.159Z</time>
      </trkpt>
      <trkpt lat="43.11846" lon="-0.87574">
        <ele>223.5</ele>
        <time>2024-05-29T20:25:42.874Z</time>
      </trkpt>
      <trkpt lat="43.1183" lon="-0.87595">
        <ele>223.18</ele>
        <time>2024-05-29T20:25:44.592Z</time>
      </trkpt>
      <trkpt lat="43.11752" lon="-0.87675">
        <ele>222.64</ele>
        <time>2024-05-29T20:25:46.326Z</time>
      </trkpt>
      <trkpt lat="43.11656" lon="-0.87784">
        <ele>222.07</ele>
        <time>2024-05-29T20:25:48.080Z</time>
      </trkpt>
      <trkpt lat="43.11539" lon="-0.87873">
        <ele>221.77</ele>
        <time>2024-05-29T20:25:49.855Z</time>
      </trkpt>
      <trkpt lat="43.11508" lon="-0.87892">
        <ele>221.59</ele>
        <time>2024-05-29T20:25:51.636Z</time>
      </trkpt>
      <trkpt lat="43.11417" lon="-0.87931">
        <ele>221.49</ele>
        <time>2024-05-29T20:25:53.432Z</time>
      </trkpt>
      <trkpt lat="43.11043" lon="-0.88157">
        <ele>221.44</ele>
        <time>2024-05-29T20:25:55.294Z</time>
      </trkpt>
      <trkpt lat="43.11022" lon="-0.88176">
        <ele>221.35</ele>
        <time>2024-05-29T20:25:57.160Z</time>
      </trkpt>
      <trkpt lat="43.11014" lon="-0.88187">
        <ele>221.25</ele>
        <time>2024-05-29T20:25:59.027Z</time>
      </trkpt>
      <trkpt lat="43.10997" lon="-0.88219">
        <ele>221.17</ele>
        <time>2024-05-29T20:26:00.899Z</time>
      </trkpt>
      <trkpt lat="43.10991" lon="-0.88236">
        <ele>221.13</ele>
        <time>2024-05-29T20:26:02.773Z</time>
      </trkpt>
      <trkpt lat="43.10996" lon="-0.88252">
        <ele>221.14</ele>
        <time>2024-05-29T20:26:04.649Z</time>
      </trkpt>
      <trkpt lat="43.11014" lon="-0.88285">
        <ele>221.15</ele>
        <time>2024-05-29T20:26:06.530Z</time>
      </trkpt>
      <trkpt lat="43.11024" lon="-0.88315">
        <ele>221.22</ele>
        <time>2024-05-29T20:26:08.415Z</time>
      </trkpt>
      <trkpt lat="43.11035" lon="-0.88362">
        <ele>221.38</ele>
        <time>2024-05-29T20:26:10.306Z</time>
      </trkpt>
      <trkpt lat="43.11035" lon="-0.88383">
        <ele>221.59</ele>
        <time>2024-05-29T20:26:12.199Z</time>
      </trkpt>
      <trkpt lat="43.11032" lon="-0.884">
        <ele>221.83</ele>
        <time>2024-05-29T20:26:14.094Z</time>
      </trkpt>
      <trkpt lat="43.11026" lon="-0.88412">
        <ele>222.08</ele>
        <time>2024-05-29T20:26:15.991Z</time>
      </trkpt>
      <trkpt lat="43.11014" lon="-0.88427">
        <ele>222.36</ele>
        <time>2024-05-29T20:26:17.891Z</time>
      </trkpt>
      <trkpt lat="43.11005" lon="-0.88435">
        <ele>222.65</ele>
        <time>2024-05-29T20:26:19.792Z</time>
      </trkpt>
      <trkpt lat="43.10992" lon="-0.88442">
        <ele>222.97</ele>
        <time>2024-05-29T20:26:21.696Z</time>
      </trkpt>
      <trkpt lat="43.10939" lon="-0.8845">
        <ele>223.29</ele>
        <time>2024-05-29T20:26:23.608Z</time>
      </trkpt>
      <trkpt lat="43.10914" lon="-0.88456">
        <ele>223.68</ele>
        <time>2024-05-29T20:26:25.524Z</time>
      </trkpt>
      <trkpt lat="43.10882" lon="-0.88479">
        <ele>224.08</ele>
        <time>2024-05-29T20:26:27.446Z</time>
      </trkpt>
      <trkpt lat="43.10864" lon="-0.885">
        <ele>224.52</ele>
        <time>2024-05-29T20:26:29.372Z</time>
      </trkpt>
      <trkpt lat="43.10728" lon="-0.88644">
        <ele>224.99</ele>
        <time>2024-05-29T20:26:31.325Z</time>
      </trkpt>
      <trkpt lat="43.10591" lon="-0.88778">
        <ele>225.51</ele>
        <time>2024-05-29T20:26:33.305Z</time>
      </trkpt>
      <trkpt lat="43.1052" lon="-0.88839">
        <ele>225.94</ele>
        <time>2024-05-29T20:26:35.299Z</time>
      </trkpt>
      <trkpt lat="43.10503" lon="-0.88869">
        <ele>226.46</ele>
        <time>2024-05-29T20:26:37.297Z</time>
      </trkpt>
      <trkpt lat="43.10487" lon="-0.88903">
        <ele>226.96</ele>
        <time>2024-05-29T20:26:39.300Z</time>
      </trkpt>
      <trkpt lat="43.10443" lon="-0.89067">
        <ele>227.64</ele>
        <time>2024-05-29T20:26:41.323Z</time>
      </trkpt>
      <trkpt lat="43.10421" lon="-0.89114">
        <ele>228.22</ele>
        <time>2024-05-29T20:26:43.353Z</time>
      </trkpt>
      <trkpt lat="43.10413" lon="-0.89145">
        <ele>228.82</ele>
        <time>2024-05-29T20:26:45.387Z</time>
      </trkpt>
      <trkpt lat="43.1041" lon="-0.89175">
        <ele>229.42</ele>
        <time>2024-05-29T20:26:47.424Z</time>
      </trkpt>
      <trkpt lat="43.10403" lon="-0.892">
        <ele>230.05</ele>
        <time>2024-05-29T20:26:49.464Z</time>
      </trkpt>
      <trkpt lat="43.10372" lon="-0.89247">
        <ele>230.7</ele>
        <time>2024-05-29T20:26:51.512Z</time>
      </trkpt>
      <trkpt lat="43.10358" lon="-0.89279">
        <ele>231.31</ele>
        <time>2024-05-29T20:26:53.564Z</time>
      </trkpt>
      <trkpt lat="43.10358" lon="-0.8932">
        <ele>231.94</ele>
        <time>2024-05-29T20:26:55.621Z</time>
      </trkpt>
      <trkpt lat="43.10355" lon="-0.89359">
        <ele>232.53</ele>
        <time>2024-05-29T20:26:57.683Z</time>
      </trkpt>
      <trkpt lat="43.10353" lon="-0.89365">
        <ele>233.09</ele>
        <time>2024-05-29T20:26:59.745Z</time>
      </trkpt>
      <trkpt lat="43.10342" lon="-0.89393">
        <ele>233.71</ele>
        <time>2024-05-29T20:27:01.811Z</time>
      </trkpt>
      <trkpt lat="43.10257" lon="-0.89579">
        <ele>234.31</ele>
        <time>2024-05-29T20:27:03.903Z</time>
      </trkpt>
      <trkpt lat="43.10211" lon="-0.89675">
        <ele>234.89</ele>
        <time>2024-05-29T20:27:06.008Z</time>
      </trkpt>
      <trkpt lat="43.10036" lon="-0.89972">
        <ele>235.47</ele>
        <time>2024-05-29T20:27:08.158Z</time>
      </trkpt>
      <trkpt lat="43.10009" lon="-0.89997">
        <ele>236.04</ele>
        <time>2024-05-29T20:27:10.313Z</time>
      </trkpt>
      <trkpt lat="43.0987" lon="-0.90098">
        <ele>236.46</ele>
        <time>2024-05-29T20:27:12.493Z</time>
      </trkpt>
      <trkpt lat="43.09813" lon="-0.90153">
        <ele>236.79</ele>
        <time>2024-05-29T20:27:14.684Z</time>
      </trkpt>
      <trkpt lat="43.0979" lon="-0.90187">
        <ele>237.34</ele>
        <time>2024-05-29T20:27:16.881Z</time>
      </trkpt>
      <trkpt lat="43.09777" lon="-0.90215">
        <ele>237.99</ele>
        <time>2024-05-29T20:27:19.082Z</time>
      </trkpt>
      <trkpt lat="43.09767" lon="-0.90271">
        <ele>238.68</ele>
        <time>2024-05-29T20:27:21.290Z</time>
      </trkpt>
      <trkpt lat="43.09751" lon="-0.9032">
        <ele>239.38</ele>
        <time>2024-05-29T20:27:23.504Z</time>
      </trkpt>
      <trkpt lat="43.09712" lon="-0.9039">
        <ele>240.05</ele>
        <time>2024-05-29T20:27:25.728Z</time>
      </trkpt>
      <trkpt lat="43.09702" lon="-0.90414">
        <ele>240.86</ele>
        <time>2024-05-29T20:27:27.955Z</time>
      </trkpt>
      <trkpt lat="43.09692" lon="-0.90482">
        <ele>241.85</ele>
        <time>2024-05-29T20:27:30.190Z</time>
      </trkpt>
      <trkpt lat="43.09681" lon="-0.90524">
        <ele>242.72</ele>
        <time>2024-05-29T20:27:32.431Z</time>
      </trkpt>
      <trkpt lat="43.09612" lon="-0.90648">
        <ele>243.6</ele>
        <time>2024-05-29T20:27:34.690Z</time>
      </trkpt>
      <trkpt lat="43.09471" lon="-0.90823">
        <ele>244.83</ele>
        <time>2024-05-29T20:27:36.979Z</time>
      </trkpt>
      <trkpt lat="43.0943" lon="-0.90902">
        <ele>245.67</ele>
        <time>2024-05-29T20:27:39.280Z</time>
      </trkpt>
      <trkpt lat="43.0942" lon="-0.90914">
        <ele>246.62</ele>
        <time>2024-05-29T20:27:41.583Z</time>
      </trkpt>
      <trkpt lat="43.094" lon="-0.90935">
        <ele>247.59</ele>
        <time>2024-05-29T20:27:43.890Z</time>
      </trkpt>
      <trkpt lat="43.09379" lon="-0.90955">
        <ele>248.58</ele>
        <time>2024-05-29T20:27:46.201Z</time>
      </trkpt>
      <trkpt lat="43.09387" lon="-0.90971">
        <ele>249.67</ele>
        <time>2024-05-29T20:27:48.514Z</time>
      </trkpt>
      <trkpt lat="43.09401" lon="-0.90993">
        <ele>250.86</ele>
        <time>2024-05-29T20:27:50.831Z</time>
      </trkpt>
      <trkpt lat="43.09426" lon="-0.91016">
        <ele>252.1</ele>
        <time>2024-05-29T20:27:53.153Z</time>
      </trkpt>
      <trkpt lat="43.09428" lon="-0.9102">
        <ele>253.2</ele>
        <time>2024-05-29T20:27:55.475Z</time>
      </trkpt>
      <trkpt lat="43.09427" lon="-0.91027">
        <ele>254.32</ele>
        <time>2024-05-29T20:27:57.798Z</time>
      </trkpt>
      <trkpt lat="43.09409" lon="-0.9106">
        <ele>255.39</ele>
        <time>2024-05-29T20:28:00.126Z</time>
      </trkpt>
      <trkpt lat="43.09401" lon="-0.91081">
        <ele>256.52</ele>
        <time>2024-05-29T20:28:02.457Z</time>
      </trkpt>
      <trkpt lat="43.09397" lon="-0.91105">
        <ele>257.72</ele>
        <time>2024-05-29T20:28:04.790Z</time>
      </trkpt>
      <trkpt lat="43.09397" lon="-0.91121">
        <ele>258.93</ele>
        <time>2024-05-29T20:28:07.125Z</time>
      </trkpt>
      <trkpt lat="43.09399" lon="-0.91134">
        <ele>260.18</ele>
        <time>2024-05-29T20:28:09.462Z</time>
      </trkpt>
      <trkpt lat="43.09404" lon="-0.91144">
        <ele>261.44</ele>
        <time>2024-05-29T20:28:11.800Z</time>
      </trkpt>
      <trkpt lat="43.09407" lon="-0.91146">
        <ele>262.71</ele>
        <time>2024-05-29T20:28:14.139Z</time>
      </trkpt>
      <trkpt lat="43.09413" lon="-0.91144">
        <ele>264.02</ele>
        <time>2024-05-29T20:28:16.479Z</time>
      </trkpt>
      <trkpt lat="43.09433" lon="-0.91126">
        <ele>265.42</ele>
        <time>2024-05-29T20:28:18.823Z</time>
      </trkpt>
      <trkpt lat="43.09446" lon="-0.91116">
        <ele>266.77</ele>
        <time>2024-05-29T20:28:21.169Z</time>
      </trkpt>
      <trkpt lat="43.09476" lon="-0.91102">
        <ele>268.18</ele>
        <time>2024-05-29T20:28:23.520Z</time>
      </trkpt>
      <trkpt lat="43.09485" lon="-0.91095">
        <ele>269.48</ele>
        <time>2024-05-29T20:28:25.873Z</time>
      </trkpt>
      <trkpt lat="43.09508" lon="-0.91069">
        <ele>270.8</ele>
        <time>2024-05-29T20:28:28.231Z</time>
      </trkpt>
      <trkpt lat="43.09517" lon="-0.91066">
        <ele>272.1</ele>
        <time>2024-05-29T20:28:30.590Z</time>
      </trkpt>
      <trkpt lat="43.0952" lon="-0.91067">
        <ele>273.38</ele>
        <time>2024-05-29T20:28:32.950Z</time>
      </trkpt>
      <trkpt lat="43.09534" lon="-0.91086">
        <ele>274.76</ele>
        <time>2024-05-29T20:28:35.313Z</time>
      </trkpt>
      <trkpt lat="43.09535" lon="-0.91098">
        <ele>276.04</ele>
        <time>2024-05-29T20:28:37.677Z</time>
      </trkpt>
      <trkpt lat="43.09525" lon="-0.9117">
        <ele>277.55</ele>
        <time>2024-05-29T20:28:40.050Z</time>
      </trkpt>
      <trkpt lat="43.09526" lon="-0.91185">
        <ele>278.83</ele>
        <time>2024-05-29T20:28:42.424Z</time>
      </trkpt>
      <trkpt lat="43.09529" lon="-0.91188">
        <ele>280.03</ele>
        <time>2024-05-29T20:28:44.799Z</time>
      </trkpt>
      <trkpt lat="43.09536" lon="-0.91189">
        <ele>281.22</ele>
        <time>2024-05-29T20:28:47.175Z</time>
      </trkpt>
      <trkpt lat="43.09557" lon="-0.91171">
        <ele>282.35</ele>
        <time>2024-05-29T20:28:49.555Z</time>
      </trkpt>
      <trkpt lat="43.09561" lon="-0.9117">
        <ele>283.39</ele>
        <time>2024-05-29T20:28:51.936Z</time>
      </trkpt>
      <trkpt lat="43.09566" lon="-0.91172">
        <ele>284.41</ele>
        <time>2024-05-29T20:28:54.318Z</time>
      </trkpt>
      <trkpt lat="43.09569" lon="-0.9118">
        <ele>285.41</ele>
        <time>2024-05-29T20:28:56.701Z</time>
      </trkpt>
      <trkpt lat="43.09578" lon="-0.91211">
        <ele>286.39</ele>
        <time>2024-05-29T20:28:59.088Z</time>
      </trkpt>
      <trkpt lat="43.09593" lon="-0.91237">
        <ele>287.3</ele>
        <time>2024-05-29T20:29:01.478Z</time>
      </trkpt>
      <trkpt lat="43.09598" lon="-0.91239">
        <ele>288.11</ele>
        <time>2024-05-29T20:29:03.869Z</time>
      </trkpt>
      <trkpt lat="43.09603" lon="-0.91237">
        <ele>288.89</ele>
        <time>2024-05-29T20:29:06.261Z</time>
      </trkpt>
      <trkpt lat="43.09621" lon="-0.91206">
        <ele>289.62</ele>
        <time>2024-05-29T20:29:08.658Z</time>
      </trkpt>
      <trkpt lat="43.09629" lon="-0.91195">
        <ele>290.34</ele>
        <time>2024-05-29T20:29:11.057Z</time>
      </trkpt>
      <trkpt lat="43.09634" lon="-0.91191">
        <ele>291.01</ele>
        <time>2024-05-29T20:29:13.457Z</time>
      </trkpt>
      <trkpt lat="43.09642" lon="-0.9119">
        <ele>291.67</ele>
        <time>2024-05-29T20:29:15.858Z</time>
      </trkpt>
      <trkpt lat="43.0965" lon="-0.91199">
        <ele>292.33</ele>
        <time>2024-05-29T20:29:18.260Z</time>
      </trkpt>
      <trkpt lat="43.09679" lon="-0.91247">
        <ele>293.04</ele>
        <time>2024-05-29T20:29:20.670Z</time>
      </trkpt>
      <trkpt lat="43.09683" lon="-0.9125">
        <ele>293.63</ele>
        <time>2024-05-29T20:29:23.081Z</time>
      </trkpt>
      <trkpt lat="43.09691" lon="-0.91252">
        <ele>294.21</ele>
        <time>2024-05-29T20:29:25.493Z</time>
      </trkpt>
      <trkpt lat="43.09703" lon="-0.91248">
        <ele>294.78</ele>
        <time>2024-05-29T20:29:27.907Z</time>
      </trkpt>
      <trkpt lat="43.09712" lon="-0.91248">
        <ele>295.37</ele>
        <time>2024-05-29T20:29:30.322Z</time>
      </trkpt>
      <trkpt lat="43.09727" lon="-0.91261">
        <ele>296.01</ele>
        <time>2024-05-29T20:29:32.740Z</time>
      </trkpt>
      <trkpt lat="43.09754" lon="-0.91293">
        <ele>296.8</ele>
        <time>2024-05-29T20:29:35.164Z</time>
      </trkpt>
      <trkpt lat="43.09779" lon="-0.91345">
        <ele>297.61</ele>
        <time>2024-05-29T20:29:37.595Z</time>
      </trkpt>
      <trkpt lat="43.09822" lon="-0.91402">
        <ele>298.32</ele>
        <time>2024-05-29T20:29:40.036Z</time>
      </trkpt>
      <trkpt lat="43.09853" lon="-0.91448">
        <ele>299.14</ele>
        <time>2024-05-29T20:29:42.484Z</time>
      </trkpt>
      <trkpt lat="43.09893" lon="-0.91499">
        <ele>299.98</ele>
        <time>2024-05-29T20:29:44.941Z</time>
      </trkpt>
      <trkpt lat="43.0992" lon="-0.9158">
        <ele>300.52</ele>
        <time>2024-05-29T20:29:47.408Z</time>
      </trkpt>
      <trkpt lat="43.09931" lon="-0.91593">
        <ele>301.35</ele>
        <time>2024-05-29T20:29:49.878Z</time>
      </trkpt>
      <trkpt lat="43.09955" lon="-0.91663">
        <ele>302.49</ele>
        <time>2024-05-29T20:29:52.357Z</time>
      </trkpt>
      <trkpt lat="43.09958" lon="-0.91678">
        <ele>303.65</ele>
        <time>2024-05-29T20:29:54.837Z</time>
      </trkpt>
      <trkpt lat="43.09957" lon="-0.9169">
        <ele>304.87</ele>
        <time>2024-05-29T20:29:57.319Z</time>
      </trkpt>
      <trkpt lat="43.09943" lon="-0.91749">
        <ele>306.3</ele>
        <time>2024-05-29T20:29:59.808Z</time>
      </trkpt>
      <trkpt lat="43.09941" lon="-0.91764">
        <ele>307.7</ele>
        <time>2024-05-29T20:30:02.299Z</time>
      </trkpt>
      <trkpt lat="43.09944" lon="-0.91807">
        <ele>309.24</ele>
        <time>2024-05-29T20:30:04.795Z</time>
      </trkpt>
      <trkpt lat="43.0997" lon="-0.91877">
        <ele>311.05</ele>
        <time>2024-05-29T20:30:07.300Z</time>
      </trkpt>
      <trkpt lat="43.09981" lon="-0.919">
        <ele>312.8</ele>
        <time>2024-05-29T20:30:09.808Z</time>
      </trkpt>
      <trkpt lat="43.10006" lon="-0.91935">
        <ele>314.6</ele>
        <time>2024-05-29T20:30:12.322Z</time>
      </trkpt>
      <trkpt lat="43.10019" lon="-0.91958">
        <ele>316.56</ele>
        <time>2024-05-29T20:30:14.839Z</time>
      </trkpt>
      <trkpt lat="43.10044" lon="-0.92049">
        <ele>318.64</ele>
        <time>2024-05-29T20:30:17.368Z</time>
      </trkpt>
      <trkpt lat="43.1005" lon="-0.92102">
        <ele>321.07</ele>
        <time>2024-05-29T20:30:19.903Z</time>
      </trkpt>
      <trkpt lat="43.1006" lon="-0.92146">
        <ele>323.87</ele>
        <time>2024-05-29T20:30:22.444Z</time>
      </trkpt>
      <trkpt lat="43.10068" lon="-0.92157">
        <ele>326.64</ele>
        <time>2024-05-29T20:30:24.986Z</time>
      </trkpt>
      <trkpt lat="43.10076" lon="-0.92161">
        <ele>329.48</ele>
        <time>2024-05-29T20:30:27.530Z</time>
      </trkpt>
      <trkpt lat="43.10098" lon="-0.9216">
        <ele>332.48</ele>
        <time>2024-05-29T20:30:30.077Z</time>
      </trkpt>
      <trkpt lat="43.10146" lon="-0.9215">
        <ele>335.89</ele>
        <time>2024-05-29T20:30:32.632Z</time>
      </trkpt>
      <trkpt lat="43.10149" lon="-0.92156">
        <ele>339.13</ele>
        <time>2024-05-29T20:30:35.188Z</time>
      </trkpt>
      <trkpt lat="43.1015" lon="-0.92164">
        <ele>342.51</ele>
        <time>2024-05-29T20:30:37.745Z</time>
      </trkpt>
      <trkpt lat="43.10145" lon="-0.92173">
        <ele>345.92</ele>
        <time>2024-05-29T20:30:40.303Z</time>
      </trkpt>
      <trkpt lat="43.10111" lon="-0.92212">
        <ele>349.32</ele>
        <time>2024-05-29T20:30:42.868Z</time>
      </trkpt>
      <trkpt lat="43.10081" lon="-0.92279">
        <ele>353.14</ele>
        <time>2024-05-29T20:30:45.442Z</time>
      </trkpt>
      <trkpt lat="43.10064" lon="-0.92333">
        <ele>357.01</ele>
        <time>2024-05-29T20:30:48.023Z</time>
      </trkpt>
      <trkpt lat="43.10051" lon="-0.92438">
        <ele>361.44</ele>
        <time>2024-05-29T20:30:50.617Z</time>
      </trkpt>
      <trkpt lat="43.10044" lon="-0.92469">
        <ele>365.54</ele>
        <time>2024-05-29T20:30:53.215Z</time>
      </trkpt>
      <trkpt lat="43.10036" lon="-0.92495">
        <ele>369.54</ele>
        <time>2024-05-29T20:30:55.816Z</time>
      </trkpt>
      <trkpt lat="43.10029" lon="-0.92505">
        <ele>373.4</ele>
        <time>2024-05-29T20:30:58.419Z</time>
      </trkpt>
      <trkpt lat="43.10019" lon="-0.92514">
        <ele>377.29</ele>
        <time>2024-05-29T20:31:01.023Z</time>
      </trkpt>
      <trkpt lat="43.10007" lon="-0.92514">
        <ele>381.23</ele>
        <time>2024-05-29T20:31:03.629Z</time>
      </trkpt>
      <trkpt lat="43.09981" lon="-0.92498">
        <ele>384.97</ele>
        <time>2024-05-29T20:31:06.240Z</time>
      </trkpt>
      <trkpt lat="43.09927" lon="-0.92485">
        <ele>388.95</ele>
        <time>2024-05-29T20:31:08.860Z</time>
      </trkpt>
      <trkpt lat="43.09898" lon="-0.92481">
        <ele>393.29</ele>
        <time>2024-05-29T20:31:11.484Z</time>
      </trkpt>
      <trkpt lat="43.09884" lon="-0.92486">
        <ele>397.61</ele>
        <time>2024-05-29T20:31:14.111Z</time>
      </trkpt>
      <trkpt lat="43.09852" lon="-0.92503">
        <ele>402.1</ele>
        <time>2024-05-29T20:31:16.743Z</time>
      </trkpt>
      <trkpt lat="43.09808" lon="-0.92543">
        <ele>406.44</ele>
        <time>2024-05-29T20:31:19.384Z</time>
      </trkpt>
      <trkpt lat="43.09788" lon="-0.92581">
        <ele>410.78</ele>
        <time>2024-05-29T20:31:22.030Z</time>
      </trkpt>
      <trkpt lat="43.09784" lon="-0.92592">
        <ele>414.98</ele>
        <time>2024-05-29T20:31:24.678Z</time>
      </trkpt>
      <trkpt lat="43.09781" lon="-0.92609">
        <ele>419.21</ele>
        <time>2024-05-29T20:31:27.328Z</time>
      </trkpt>
      <trkpt lat="43.09781" lon="-0.9267">
        <ele>423.69</ele>
        <time>2024-05-29T20:31:29.985Z</time>
      </trkpt>
      <trkpt lat="43.09784" lon="-0.92746">
        <ele>428.24</ele>
        <time>2024-05-29T20:31:32.651Z</time>
      </trkpt>
      <trkpt lat="43.09788" lon="-0.92775">
        <ele>432.44</ele>
        <time>2024-05-29T20:31:35.320Z</time>
      </trkpt>
      <trkpt lat="43.09799" lon="-0.92822">
        <ele>436.78</ele>
        <time>2024-05-29T20:31:37.995Z</time>
      </trkpt>
      <trkpt lat="43.09805" lon="-0.92887">
        <ele>440.89</ele>
        <time>2024-05-29T20:31:40.678Z</time>
      </trkpt>
      <trkpt lat="43.09811" lon="-0.92914">
        <ele>444.76</ele>
        <time>2024-05-29T20:31:43.364Z</time>
      </trkpt>
      <trkpt lat="43.09815" lon="-0.92929">
        <ele>448.55</ele>
        <time>2024-05-29T20:31:46.052Z</time>
      </trkpt>
      <trkpt lat="43.09827" lon="-0.9295">
        <ele>452.38</ele>
        <time>2024-05-29T20:31:48.743Z</time>
      </trkpt>
      <trkpt lat="43.09869" lon="-0.92988">
        <ele>456.6</ele>
        <time>2024-05-29T20:31:51.442Z</time>
      </trkpt>
      <trkpt lat="43.0991" lon="-0.93039">
        <ele>460.16</ele>
        <time>2024-05-29T20:31:54.150Z</time>
      </trkpt>
      <trkpt lat="43.09938" lon="-0.93059">
        <ele>463.86</ele>
        <time>2024-05-29T20:31:56.863Z</time>
      </trkpt>
      <trkpt lat="43.09954" lon="-0.93074">
        <ele>467.18</ele>
        <time>2024-05-29T20:31:59.579Z</time>
      </trkpt>
      <trkpt lat="43.09992" lon="-0.93125">
        <ele>470.49</ele>
        <time>2024-05-29T20:32:02.304Z</time>
      </trkpt>
      <trkpt lat="43.10038" lon="-0.93156">
        <ele>473.69</ele>
        <time>2024-05-29T20:32:05.037Z</time>
      </trkpt>
      <trkpt lat="43.10093" lon="-0.93181">
        <ele>476.62</ele>
        <time>2024-05-29T20:32:07.779Z</time>
      </trkpt>
      <trkpt lat="43.10102" lon="-0.93191">
        <ele>479.28</ele>
        <time>2024-05-29T20:32:10.523Z</time>
      </trkpt>
      <trkpt lat="43.10107" lon="-0.93204">
        <ele>481.74</ele>
        <time>2024-05-29T20:32:13.269Z</time>
      </trkpt>
      <trkpt lat="43.10111" lon="-0.93221">
        <ele>484.01</ele>
        <time>2024-05-29T20:32:16.017Z</time>
      </trkpt>
      <trkpt lat="43.10116" lon="-0.93235">
        <ele>486.22</ele>
        <time>2024-05-29T20:32:18.767Z</time>
      </trkpt>
      <trkpt lat="43.10124" lon="-0.93244">
        <ele>488.44</ele>
        <time>2024-05-29T20:32:21.518Z</time>
      </trkpt>
      <trkpt lat="43.10135" lon="-0.93248">
        <ele>490.63</ele>
        <time>2024-05-29T20:32:24.271Z</time>
      </trkpt>
      <trkpt lat="43.10186" lon="-0.93248">
        <ele>493.26</ele>
        <time>2024-05-29T20:32:27.032Z</time>
      </trkpt>
      <trkpt lat="43.10193" lon="-0.9325">
        <ele>495.29</ele>
        <time>2024-05-29T20:32:29.794Z</time>
      </trkpt>
      <trkpt lat="43.10203" lon="-0.93256">
        <ele>497.32</ele>
        <time>2024-05-29T20:32:32.558Z</time>
      </trkpt>
      <trkpt lat="43.10208" lon="-0.93264">
        <ele>499.24</ele>
        <time>2024-05-29T20:32:35.323Z</time>
      </trkpt>
      <trkpt lat="43.10211" lon="-0.9328">
        <ele>501.13</ele>
        <time>2024-05-29T20:32:38.090Z</time>
      </trkpt>
      <trkpt lat="43.10206" lon="-0.93325">
        <ele>502.96</ele>
        <time>2024-05-29T20:32:40.863Z</time>
      </trkpt>
      <trkpt lat="43.1019" lon="-0.93377">
        <ele>504.85</ele>
        <time>2024-05-29T20:32:43.642Z</time>
      </trkpt>
      <trkpt lat="43.10172" lon="-0.93411">
        <ele>506.77</ele>
        <time>2024-05-29T20:32:46.426Z</time>
      </trkpt>
      <trkpt lat="43.10164" lon="-0.93435">
        <ele>508.97</ele>
        <time>2024-05-29T20:32:49.213Z</time>
      </trkpt>
      <trkpt lat="43.10154" lon="-0.93453">
        <ele>511.2</ele>
        <time>2024-05-29T20:32:52.003Z</time>
      </trkpt>
      <trkpt lat="43.10142" lon="-0.93466">
        <ele>513.55</ele>
        <time>2024-05-29T20:32:54.795Z</time>
      </trkpt>
      <trkpt lat="43.10098" lon="-0.93482">
        <ele>515.72</ele>
        <time>2024-05-29T20:32:57.595Z</time>
      </trkpt>
      <trkpt lat="43.10087" lon="-0.93491">
        <ele>518.24</ele>
        <time>2024-05-29T20:33:00.397Z</time>
      </trkpt>
      <trkpt lat="43.10073" lon="-0.93513">
        <ele>521.03</ele>
        <time>2024-05-29T20:33:03.202Z</time>
      </trkpt>
      <trkpt lat="43.10058" lon="-0.93552">
        <ele>524.05</ele>
        <time>2024-05-29T20:33:06.012Z</time>
      </trkpt>
      <trkpt lat="43.10046" lon="-0.93571">
        <ele>526.97</ele>
        <time>2024-05-29T20:33:08.825Z</time>
      </trkpt>
      <trkpt lat="43.10039" lon="-0.93592">
        <ele>530.11</ele>
        <time>2024-05-29T20:33:11.641Z</time>
      </trkpt>
      <trkpt lat="43.10027" lon="-0.93639">
        <ele>533.67</ele>
        <time>2024-05-29T20:33:14.463Z</time>
      </trkpt>
      <trkpt lat="43.10002" lon="-0.93703">
        <ele>537.38</ele>
        <time>2024-05-29T20:33:17.293Z</time>
      </trkpt>
      <trkpt lat="43.09974" lon="-0.93724">
        <ele>540.79</ele>
        <time>2024-05-29T20:33:20.128Z</time>
      </trkpt>
      <trkpt lat="43.09967" lon="-0.93734">
        <ele>544.44</ele>
        <time>2024-05-29T20:33:22.965Z</time>
      </trkpt>
      <trkpt lat="43.09941" lon="-0.93784">
        <ele>548.48</ele>
        <time>2024-05-29T20:33:25.809Z</time>
      </trkpt>
      <trkpt lat="43.09917" lon="-0.93842">
        <ele>552.52</ele>
        <time>2024-05-29T20:33:28.661Z</time>
      </trkpt>
      <trkpt lat="43.0991" lon="-0.93896">
        <ele>556.66</ele>
        <time>2024-05-29T20:33:31.519Z</time>
      </trkpt>
      <trkpt lat="43.09935" lon="-0.9397">
        <ele>561.12</ele>
        <time>2024-05-29T20:33:34.387Z</time>
      </trkpt>
      <trkpt lat="43.09953" lon="-0.94052">
        <ele>565.79</ele>
        <time>2024-05-29T20:33:37.265Z</time>
      </trkpt>
      <trkpt lat="43.09954" lon="-0.94072">
        <ele>570.08</ele>
        <time>2024-05-29T20:33:40.145Z</time>
      </trkpt>
      <trkpt lat="43.09953" lon="-0.94118">
        <ele>574.45</ele>
        <time>2024-05-29T20:33:43.031Z</time>
      </trkpt>
      <trkpt lat="43.09956" lon="-0.94196">
        <ele>578.99</ele>
        <time>2024-05-29T20:33:45.926Z</time>
      </trkpt>
      <trkpt lat="43.09945" lon="-0.94294">
        <ele>583.77</ele>
        <time>2024-05-29T20:33:48.832Z</time>
      </trkpt>
      <trkpt lat="43.0993" lon="-0.94349">
        <ele>588.12</ele>
        <time>2024-05-29T20:33:51.745Z</time>
      </trkpt>
      <trkpt lat="43.09922" lon="-0.94397">
        <ele>592.44</ele>
        <time>2024-05-29T20:33:54.664Z</time>
      </trkpt>
      <trkpt lat="43.09878" lon="-0.9453">
        <ele>596.56</ele>
        <time>2024-05-29T20:33:57.600Z</time>
      </trkpt>
      <trkpt lat="43.09867" lon="-0.94551">
        <ele>600.76</ele>
        <time>2024-05-29T20:34:00.539Z</time>
      </trkpt>
      <trkpt lat="43.09854" lon="-0.9457">
        <ele>604.89</ele>
        <time>2024-05-29T20:34:03.481Z</time>
      </trkpt>
      <trkpt lat="43.09808" lon="-0.9461">
        <ele>609.11</ele>
        <time>2024-05-29T20:34:06.432Z</time>
      </trkpt>
      <trkpt lat="43.09781" lon="-0.9465">
        <ele>613.09</ele>
        <time>2024-05-29T20:34:09.389Z</time>
      </trkpt>
      <trkpt lat="43.09702" lon="-0.94829">
        <ele>617.78</ele>
        <time>2024-05-29T20:34:12.371Z</time>
      </trkpt>
      <trkpt lat="43.09677" lon="-0.94896">
        <ele>621.64</ele>
        <time>2024-05-29T20:34:15.362Z</time>
      </trkpt>
      <trkpt lat="43.09665" lon="-0.94942">
        <ele>625.28</ele>
        <time>2024-05-29T20:34:18.358Z</time>
      </trkpt>
      <trkpt lat="43.09648" lon="-0.9499">
        <ele>628.76</ele>
        <time>2024-05-29T20:34:21.361Z</time>
      </trkpt>
      <trkpt lat="43.0965" lon="-0.94995">
        <ele>632.04</ele>
        <time>2024-05-29T20:34:24.364Z</time>
      </trkpt>
      <trkpt lat="43.09655" lon="-0.94996">
        <ele>635.2</ele>
        <time>2024-05-29T20:34:27.368Z</time>
      </trkpt>
      <trkpt lat="43.09659" lon="-0.94993">
        <ele>638.2</ele>
        <time>2024-05-29T20:34:30.373Z</time>
      </trkpt>
      <trkpt lat="43.0967" lon="-0.94968">
        <ele>641.05</ele>
        <time>2024-05-29T20:34:33.381Z</time>
      </trkpt>
      <trkpt lat="43.09701" lon="-0.94925">
        <ele>643.88</ele>
        <time>2024-05-29T20:34:36.396Z</time>
      </trkpt>
      <trkpt lat="43.09733" lon="-0.949">
        <ele>646.63</ele>
        <time>2024-05-29T20:34:39.417Z</time>
      </trkpt>
      <trkpt lat="43.09744" lon="-0.94876">
        <ele>649.02</ele>
        <time>2024-05-29T20:34:42.442Z</time>
      </trkpt>
      <trkpt lat="43.0975" lon="-0.94872">
        <ele>651.38</ele>
        <time>2024-05-29T20:34:45.468Z</time>
      </trkpt>
      <trkpt lat="43.09755" lon="-0.94875">
        <ele>653.69</ele>
        <time>2024-05-29T20:34:48.495Z</time>
      </trkpt>
      <trkpt lat="43.09756" lon="-0.94883">
        <ele>655.89</ele>
        <time>2024-05-29T20:34:51.522Z</time>
      </trkpt>
      <trkpt lat="43.09746" lon="-0.94916">
        <ele>658.08</ele>
        <time>2024-05-29T20:34:54.554Z</time>
      </trkpt>
      <trkpt lat="43.09743" lon="-0.94966">
        <ele>660.26</ele>
        <time>2024-05-29T20:34:57.592Z</time>
      </trkpt>
      <trkpt lat="43.09739" lon="-0.94998">
        <ele>662.27</ele>
        <time>2024-05-29T20:35:00.633Z</time>
      </trkpt>
      <trkpt lat="43.09742" lon="-0.95009">
        <ele>664.24</ele>
        <time>2024-05-29T20:35:03.676Z</time>
      </trkpt>
      <trkpt lat="43.09748" lon="-0.95025">
        <ele>666.21</ele>
        <time>2024-05-29T20:35:06.721Z</time>
      </trkpt>
      <trkpt lat="43.09754" lon="-0.95054">
        <ele>668.16</ele>
        <time>2024-05-29T20:35:09.769Z</time>
      </trkpt>
      <trkpt lat="43.09754" lon="-0.95081">
        <ele>669.97</ele>
        <time>2024-05-29T20:35:12.821Z</time>
      </trkpt>
      <trkpt lat="43.09753" lon="-0.95089">
        <ele>671.7</ele>
        <time>2024-05-29T20:35:15.874Z</time>
      </trkpt>
      <trkpt lat="43.09745" lon="-0.95113">
        <ele>673.43</ele>
        <time>2024-05-29T20:35:18.930Z</time>
      </trkpt>
      <trkpt lat="43.09729" lon="-0.95148">
        <ele>675.19</ele>
        <time>2024-05-29T20:35:21.990Z</time>
      </trkpt>
      <trkpt lat="43.09727" lon="-0.95158">
        <ele>676.99</ele>
        <time>2024-05-29T20:35:25.052Z</time>
      </trkpt>
      <trkpt lat="43.09726" lon="-0.95202">
        <ele>678.96</ele>
        <time>2024-05-29T20:35:28.119Z</time>
      </trkpt>
      <trkpt lat="43.09689" lon="-0.95305">
        <ele>681.13</ele>
        <time>2024-05-29T20:35:31.199Z</time>
      </trkpt>
      <trkpt lat="43.09678" lon="-0.95329">
        <ele>683.07</ele>
        <time>2024-05-29T20:35:34.283Z</time>
      </trkpt>
      <trkpt lat="43.09655" lon="-0.95352">
        <ele>684.95</ele>
        <time>2024-05-29T20:35:37.371Z</time>
      </trkpt>
      <trkpt lat="43.09644" lon="-0.95367">
        <ele>686.96</ele>
        <time>2024-05-29T20:35:40.462Z</time>
      </trkpt>
      <trkpt lat="43.09636" lon="-0.9539">
        <ele>689.1</ele>
        <time>2024-05-29T20:35:43.556Z</time>
      </trkpt>
      <trkpt lat="43.09625" lon="-0.95432">
        <ele>691.45</ele>
        <time>2024-05-29T20:35:46.655Z</time>
      </trkpt>
      <trkpt lat="43.0962" lon="-0.95443">
        <ele>693.78</ele>
        <time>2024-05-29T20:35:49.755Z</time>
      </trkpt>
      <trkpt lat="43.09576" lon="-0.95492">
        <ele>696.19</ele>
        <time>2024-05-29T20:35:52.864Z</time>
      </trkpt>
      <trkpt lat="43.09562" lon="-0.95502">
        <ele>698.74</ele>
        <time>2024-05-29T20:35:55.976Z</time>
      </trkpt>
      <trkpt lat="43.09502" lon="-0.9552">
        <ele>701.7</ele>
        <time>2024-05-29T20:35:59.098Z</time>
      </trkpt>
      <trkpt lat="43.09476" lon="-0.95539">
        <ele>704.66</ele>
        <time>2024-05-29T20:36:02.225Z</time>
      </trkpt>
      <trkpt lat="43.09468" lon="-0.95556">
        <ele>707.62</ele>
        <time>2024-05-29T20:36:05.354Z</time>
      </trkpt>
      <trkpt lat="43.09453" lon="-0.95593">
        <ele>710.75</ele>
        <time>2024-05-29T20:36:08.488Z</time>
      </trkpt>
      <trkpt lat="43.09429" lon="-0.95641">
        <ele>714.12</ele>
        <time>2024-05-29T20:36:11.629Z</time>
      </trkpt>
      <trkpt lat="43.09417" lon="-0.95666">
        <ele>717.49</ele>
        <time>2024-05-29T20:36:14.773Z</time>
      </trkpt>
      <trkpt lat="43.09379" lon="-0.95702">
        <ele>720.92</ele>
        <time>2024-05-29T20:36:17.925Z</time>
      </trkpt>
      <trkpt lat="43.09366" lon="-0.95719">
        <ele>724.41</ele>
        <time>2024-05-29T20:36:21.079Z</time>
      </trkpt>
      <trkpt lat="43.0935" lon="-0.95746">
        <ele>728.07</ele>
        <time>2024-05-29T20:36:24.238Z</time>
      </trkpt>
      <trkpt lat="43.09335" lon="-0.9579">
        <ele>731.94</ele>
        <time>2024-05-29T20:36:27.402Z</time>
      </trkpt>
      <trkpt lat="43.09276" lon="-0.95887">
        <ele>735.96</ele>
        <time>2024-05-29T20:36:30.581Z</time>
      </trkpt>
      <trkpt lat="43.09261" lon="-0.95928">
        <ele>739.78</ele>
        <time>2024-05-29T20:36:33.765Z</time>
      </trkpt>
      <trkpt lat="43.09244" lon="-0.95984">
        <ele>743.86</ele>
        <time>2024-05-29T20:36:36.956Z</time>
      </trkpt>
      <trkpt lat="43.0923" lon="-0.96039">
        <ele>747.87</ele>
        <time>2024-05-29T20:36:40.154Z</time>
      </trkpt>
      <trkpt lat="43.09226" lon="-0.96063">
        <ele>751.77</ele>
        <time>2024-05-29T20:36:43.355Z</time>
      </trkpt>
      <trkpt lat="43.09223" lon="-0.96105">
        <ele>755.85</ele>
        <time>2024-05-29T20:36:46.561Z</time>
      </trkpt>
      <trkpt lat="43.09221" lon="-0.9612">
        <ele>759.67</ele>
        <time>2024-05-29T20:36:49.769Z</time>
      </trkpt>
      <trkpt lat="43.09208" lon="-0.96146">
        <ele>763.46</ele>
        <time>2024-05-29T20:36:52.981Z</time>
      </trkpt>
      <trkpt lat="43.0919" lon="-0.96165">
        <ele>767.19</ele>
        <time>2024-05-29T20:36:56.196Z</time>
      </trkpt>
      <trkpt lat="43.09172" lon="-0.96173">
        <ele>770.72</ele>
        <time>2024-05-29T20:36:59.414Z</time>
      </trkpt>
      <trkpt lat="43.0916" lon="-0.96182">
        <ele>774.26</ele>
        <time>2024-05-29T20:37:02.634Z</time>
      </trkpt>
      <trkpt lat="43.09154" lon="-0.96198">
        <ele>777.89</ele>
        <time>2024-05-29T20:37:05.857Z</time>
      </trkpt>
      <trkpt lat="43.09149" lon="-0.9623">
        <ele>781.55</ele>
        <time>2024-05-29T20:37:09.083Z</time>
      </trkpt>
      <trkpt lat="43.09148" lon="-0.96243">
        <ele>784.97</ele>
        <time>2024-05-29T20:37:12.311Z</time>
      </trkpt>
      <trkpt lat="43.09153" lon="-0.96288">
        <ele>788.42</ele>
        <time>2024-05-29T20:37:15.544Z</time>
      </trkpt>
      <trkpt lat="43.09157" lon="-0.96305">
        <ele>791.59</ele>
        <time>2024-05-29T20:37:18.779Z</time>
      </trkpt>
      <trkpt lat="43.09154" lon="-0.96319">
        <ele>794.58</ele>
        <time>2024-05-29T20:37:22.016Z</time>
      </trkpt>
      <trkpt lat="43.09141" lon="-0.96351">
        <ele>797.48</ele>
        <time>2024-05-29T20:37:25.257Z</time>
      </trkpt>
      <trkpt lat="43.09138" lon="-0.96367">
        <ele>800.26</ele>
        <time>2024-05-29T20:37:28.500Z</time>
      </trkpt>
      <trkpt lat="43.09139" lon="-0.96391">
        <ele>802.95</ele>
        <time>2024-05-29T20:37:31.746Z</time>
      </trkpt>
      <trkpt lat="43.09167" lon="-0.9651">
        <ele>806.02</ele>
        <time>2024-05-29T20:37:35.007Z</time>
      </trkpt>
      <trkpt lat="43.09175" lon="-0.96571">
        <ele>808.29</ele>
        <time>2024-05-29T20:37:38.275Z</time>
      </trkpt>
      <trkpt lat="43.09188" lon="-0.96611">
        <ele>810.64</ele>
        <time>2024-05-29T20:37:41.548Z</time>
      </trkpt>
      <trkpt lat="43.09201" lon="-0.96671">
        <ele>812.73</ele>
        <time>2024-05-29T20:37:44.828Z</time>
      </trkpt>
      <trkpt lat="43.09203" lon="-0.96691">
        <ele>814.29</ele>
        <time>2024-05-29T20:37:48.111Z</time>
      </trkpt>
      <trkpt lat="43.09203" lon="-0.96716">
        <ele>815.55</ele>
        <time>2024-05-29T20:37:51.397Z</time>
      </trkpt>
      <trkpt lat="43.09198" lon="-0.96758">
        <ele>816.44</ele>
        <time>2024-05-29T20:37:54.688Z</time>
      </trkpt>
      <trkpt lat="43.09198" lon="-0.96793">
        <ele>817.29</ele>
        <time>2024-05-29T20:37:57.983Z</time>
      </trkpt>
      <trkpt lat="43.09205" lon="-0.96834">
        <ele>817.93</ele>
        <time>2024-05-29T20:38:01.283Z</time>
      </trkpt>
      <trkpt lat="43.09216" lon="-0.96868">
        <ele>818.2</ele>
        <time>2024-05-29T20:38:04.587Z</time>
      </trkpt>
      <trkpt lat="43.09227" lon="-0.96908">
        <ele>818.26</ele>
        <time>2024-05-29T20:38:07.896Z</time>
      </trkpt>
      <trkpt lat="43.09237" lon="-0.96986">
        <ele>817.96</ele>
        <time>2024-05-29T20:38:11.214Z</time>
      </trkpt>
      <trkpt lat="43.09244" lon="-0.97018">
        <ele>817.44</ele>
        <time>2024-05-29T20:38:14.536Z</time>
      </trkpt>
      <trkpt lat="43.0926" lon="-0.97076">
        <ele>816.54</ele>
        <time>2024-05-29T20:38:17.866Z</time>
      </trkpt>
      <trkpt lat="43.09262" lon="-0.97112">
        <ele>815.33</ele>
        <time>2024-05-29T20:38:21.200Z</time>
      </trkpt>
      <trkpt lat="43.09264" lon="-0.97175">
        <ele>813.9</ele>
        <time>2024-05-29T20:38:24.541Z</time>
      </trkpt>
      <trkpt lat="43.0927" lon="-0.97245">
        <ele>812.14</ele>
        <time>2024-05-29T20:38:27.891Z</time>
      </trkpt>
      <trkpt lat="43.09284" lon="-0.97433">
        <ele>809.66</ele>
        <time>2024-05-29T20:38:31.263Z</time>
      </trkpt>
      <trkpt lat="43.09296" lon="-0.9755">
        <ele>807.26</ele>
        <time>2024-05-29T20:38:34.649Z</time>
      </trkpt>
      <trkpt lat="43.09302" lon="-0.97569">
        <ele>805.22</ele>
        <time>2024-05-29T20:38:38.037Z</time>
      </trkpt>
      <trkpt lat="43.09314" lon="-0.97596">
        <ele>803.18</ele>
        <time>2024-05-29T20:38:41.429Z</time>
      </trkpt>
      <trkpt lat="43.09327" lon="-0.97613">
        <ele>801.15</ele>
        <time>2024-05-29T20:38:44.824Z</time>
      </trkpt>
      <trkpt lat="43.09356" lon="-0.97636">
        <ele>799.09</ele>
        <time>2024-05-29T20:38:48.224Z</time>
      </trkpt>
      <trkpt lat="43.09368" lon="-0.97648">
        <ele>797.14</ele>
        <time>2024-05-29T20:38:51.626Z</time>
      </trkpt>
      <trkpt lat="43.09384" lon="-0.9767">
        <ele>795.31</ele>
        <time>2024-05-29T20:38:55.032Z</time>
      </trkpt>
      <trkpt lat="43.09394" lon="-0.97678">
        <ele>793.47</ele>
        <time>2024-05-29T20:38:58.440Z</time>
      </trkpt>
      <trkpt lat="43.09402" lon="-0.97682">
        <ele>791.71</ele>
        <time>2024-05-29T20:39:01.849Z</time>
      </trkpt>
      <trkpt lat="43.0941" lon="-0.97682">
        <ele>790.07</ele>
        <time>2024-05-29T20:39:05.259Z</time>
      </trkpt>
      <trkpt lat="43.09424" lon="-0.97676">
        <ele>788.58</ele>
        <time>2024-05-29T20:39:08.672Z</time>
      </trkpt>
      <trkpt lat="43.09432" lon="-0.97665">
        <ele>787.25</ele>
        <time>2024-05-29T20:39:12.087Z</time>
      </trkpt>
      <trkpt lat="43.09449" lon="-0.97697">
        <ele>786.04</ele>
        <time>2024-05-29T20:39:15.506Z</time>
      </trkpt>
      <trkpt lat="43.0947" lon="-0.97745">
        <ele>784.97</ele>
        <time>2024-05-29T20:39:18.932Z</time>
      </trkpt>
      <trkpt lat="43.0948" lon="-0.97773">
        <ele>784.11</ele>
        <time>2024-05-29T20:39:22.361Z</time>
      </trkpt>
      <trkpt lat="43.09493" lon="-0.97816">
        <ele>783.42</ele>
        <time>2024-05-29T20:39:25.796Z</time>
      </trkpt>
      <trkpt lat="43.09512" lon="-0.97871">
        <ele>783.06</ele>
        <time>2024-05-29T20:39:29.238Z</time>
      </trkpt>
      <trkpt lat="43.09538" lon="-0.97956">
        <ele>782.78</ele>
        <time>2024-05-29T20:39:32.691Z</time>
      </trkpt>
      <trkpt lat="43.09539" lon="-0.97964">
        <ele>782.6</ele>
        <time>2024-05-29T20:39:36.145Z</time>
      </trkpt>
      <trkpt lat="43.09545" lon="-0.98024">
        <ele>782.68</ele>
        <time>2024-05-29T20:39:39.606Z</time>
      </trkpt>
      <trkpt lat="43.09549" lon="-0.98052">
        <ele>782.96</ele>
        <time>2024-05-29T20:39:43.070Z</time>
      </trkpt>
      <trkpt lat="43.09562" lon="-0.98099">
        <ele>783.42</ele>
        <time>2024-05-29T20:39:46.540Z</time>
      </trkpt>
      <trkpt lat="43.09582" lon="-0.98199">
        <ele>784.14</ele>
        <time>2024-05-29T20:39:50.022Z</time>
      </trkpt>
      <trkpt lat="43.09589" lon="-0.98265">
        <ele>784.9</ele>
        <time>2024-05-29T20:39:53.512Z</time>
      </trkpt>
      <trkpt lat="43.09592" lon="-0.9833">
        <ele>786.01</ele>
        <time>2024-05-29T20:39:57.010Z</time>
      </trkpt>
      <trkpt lat="43.09595" lon="-0.98346">
        <ele>787.15</ele>
        <time>2024-05-29T20:40:00.510Z</time>
      </trkpt>
      <trkpt lat="43.09601" lon="-0.98362">
        <ele>788.55</ele>
        <time>2024-05-29T20:40:04.012Z</time>
      </trkpt>
      <trkpt lat="43.09622" lon="-0.98404">
        <ele>790.25</ele>
        <time>2024-05-29T20:40:07.520Z</time>
      </trkpt>
      <trkpt lat="43.09655" lon="-0.98442">
        <ele>792.2</ele>
        <time>2024-05-29T20:40:11.035Z</time>
      </trkpt>
      <trkpt lat="43.09746" lon="-0.98591">
        <ele>794.47</ele>
        <time>2024-05-29T20:40:14.572Z</time>
      </trkpt>
      <trkpt lat="43.09765" lon="-0.98625">
        <ele>796.72</ele>
        <time>2024-05-29T20:40:18.114Z</time>
      </trkpt>
      <trkpt lat="43.09785" lon="-0.98671">
        <ele>799.17</ele>
        <time>2024-05-29T20:40:21.663Z</time>
      </trkpt>
      <trkpt lat="43.09808" lon="-0.98711">
        <ele>801.85</ele>
        <time>2024-05-29T20:40:25.218Z</time>
      </trkpt>
      <trkpt lat="43.09816" lon="-0.98726">
        <ele>804.72</ele>
        <time>2024-05-29T20:40:28.775Z</time>
      </trkpt>
      <trkpt lat="43.0982" lon="-0.98742">
        <ele>807.79</ele>
        <time>2024-05-29T20:40:32.334Z</time>
      </trkpt>
      <trkpt lat="43.09828" lon="-0.98829">
        <ele>811.21</ele>
        <time>2024-05-29T20:40:35.903Z</time>
      </trkpt>
      <trkpt lat="43.09842" lon="-0.98907">
        <ele>814.89</ele>
        <time>2024-05-29T20:40:39.481Z</time>
      </trkpt>
      <trkpt lat="43.09846" lon="-0.99044">
        <ele>818.69</ele>
        <time>2024-05-29T20:40:43.076Z</time>
      </trkpt>
      <trkpt lat="43.0984" lon="-0.99123">
        <ele>822.79</ele>
        <time>2024-05-29T20:40:46.680Z</time>
      </trkpt>
      <trkpt lat="43.0985" lon="-0.99279">
        <ele>826.9</ele>
        <time>2024-05-29T20:40:50.302Z</time>
      </trkpt>
      <trkpt lat="43.09858" lon="-0.99325">
        <ele>831.16</ele>
        <time>2024-05-29T20:40:53.930Z</time>
      </trkpt>
      <trkpt lat="43.09897" lon="-0.99447">
        <ele>835.94</ele>
        <time>2024-05-29T20:40:57.573Z</time>
      </trkpt>
      <trkpt lat="43.09904" lon="-0.99488">
        <ele>840.39</ele>
        <time>2024-05-29T20:41:01.221Z</time>
      </trkpt>
      <trkpt lat="43.09906" lon="-0.99634">
        <ele>845.32</ele>
        <time>2024-05-29T20:41:04.886Z</time>
      </trkpt>
      <trkpt lat="43.09904" lon="-0.99674">
        <ele>850.02</ele>
        <time>2024-05-29T20:41:08.556Z</time>
      </trkpt>
      <trkpt lat="43.09899" lon="-0.99695">
        <ele>854.8</ele>
        <time>2024-05-29T20:41:12.229Z</time>
      </trkpt>
      <trkpt lat="43.09887" lon="-0.99727">
        <ele>859.63</ele>
        <time>2024-05-29T20:41:15.906Z</time>
      </trkpt>
      <trkpt lat="43.09883" lon="-0.99743">
        <ele>864.58</ele>
        <time>2024-05-29T20:41:19.585Z</time>
      </trkpt>
      <trkpt lat="43.09883" lon="-0.99784">
        <ele>869.71</ele>
        <time>2024-05-29T20:41:23.269Z</time>
      </trkpt>
      <trkpt lat="43.09885" lon="-0.99842">
        <ele>874.87</ele>
        <time>2024-05-29T20:41:26.959Z</time>
      </trkpt>
      <trkpt lat="43.09896" lon="-0.99918">
        <ele>880.14</ele>
        <time>2024-05-29T20:41:30.659Z</time>
      </trkpt>
      <trkpt lat="43.09914" lon="-1.00002">
        <ele>885.64</ele>
        <time>2024-05-29T20:41:34.369Z</time>
      </trkpt>
      <trkpt lat="43.09925" lon="-1.00067">
        <ele>891.06</ele>
        <time>2024-05-29T20:41:38.087Z</time>
      </trkpt>
      <trkpt lat="43.09929" lon="-1.00144">
        <ele>896.25</ele>
        <time>2024-05-29T20:41:41.814Z</time>
      </trkpt>
      <trkpt lat="43.09929" lon="-1.00191">
        <ele>901.46</ele>
        <time>2024-05-29T20:41:45.546Z</time>
      </trkpt>
      <trkpt lat="43.09927" lon="-1.00222">
        <ele>906.56</ele>
        <time>2024-05-29T20:41:49.282Z</time>
      </trkpt>
      <trkpt lat="43.09909" lon="-1.00307">
        <ele>911.77</ele>
        <time>2024-05-29T20:41:53.028Z</time>
      </trkpt>
      <trkpt lat="43.09878" lon="-1.00403">
        <ele>916.61</ele>
        <time>2024-05-29T20:41:56.787Z</time>
      </trkpt>
      <trkpt lat="43.09837" lon="-1.00497">
        <ele>921.62</ele>
        <time>2024-05-29T20:42:00.558Z</time>
      </trkpt>
      <trkpt lat="43.098" lon="-1.00573">
        <ele>926.38</ele>
        <time>2024-05-29T20:42:04.340Z</time>
      </trkpt>
      <trkpt lat="43.09754" lon="-1.00646">
        <ele>931.1</ele>
        <time>2024-05-29T20:42:08.133Z</time>
      </trkpt>
      <trkpt lat="43.09694" lon="-1.00776">
        <ele>935.74</ele>
        <time>2024-05-29T20:42:11.944Z</time>
      </trkpt>
      <trkpt lat="43.0967" lon="-1.00822">
        <ele>940.25</ele>
        <time>2024-05-29T20:42:15.762Z</time>
      </trkpt>
      <trkpt lat="43.09652" lon="-1.00852">
        <ele>944.29</ele>
        <time>2024-05-29T20:42:19.585Z</time>
      </trkpt>
      <trkpt lat="43.09603" lon="-1.01008">
        <ele>948.22</ele>
        <time>2024-05-29T20:42:23.427Z</time>
      </trkpt>
      <trkpt lat="43.09576" lon="-1.0109">
        <ele>951.72</ele>
        <time>2024-05-29T20:42:27.280Z</time>
      </trkpt>
      <trkpt lat="43.0956" lon="-1.01124">
        <ele>954.86</ele>
        <time>2024-05-29T20:42:31.138Z</time>
      </trkpt>
      <trkpt lat="43.09529" lon="-1.01207">
        <ele>957.5</ele>
        <time>2024-05-29T20:42:35.007Z</time>
      </trkpt>
      <trkpt lat="43.09512" lon="-1.01273">
        <ele>959.99</ele>
        <time>2024-05-29T20:42:38.884Z</time>
      </trkpt>
      <trkpt lat="43.09495" lon="-1.01321">
        <ele>962.16</ele>
        <time>2024-05-29T20:42:42.767Z</time>
      </trkpt>
      <trkpt lat="43.09488" lon="-1.01345">
        <ele>963.92</ele>
        <time>2024-05-29T20:42:46.653Z</time>
      </trkpt>
      <trkpt lat="43.09475" lon="-1.01423">
        <ele>965.43</ele>
        <time>2024-05-29T20:42:50.548Z</time>
      </trkpt>
      <trkpt lat="43.09472" lon="-1.01449">
        <ele>966.44</ele>
        <time>2024-05-29T20:42:54.447Z</time>
      </trkpt>
      <trkpt lat="43.09472" lon="-1.01466">
        <ele>967.15</ele>
        <time>2024-05-29T20:42:58.348Z</time>
      </trkpt>
      <trkpt lat="43.09467" lon="-1.0147">
        <ele>967.46</ele>
        <time>2024-05-29T20:43:02.249Z</time>
      </trkpt>
      <trkpt lat="43.09455" lon="-1.01563">
        <ele>967.59</ele>
        <time>2024-05-29T20:43:06.162Z</time>
      </trkpt>
      <trkpt lat="43.09442" lon="-1.01621">
        <ele>967.39</ele>
        <time>2024-05-29T20:43:10.082Z</time>
      </trkpt>
      <trkpt lat="43.09436" lon="-1.01634">
        <ele>966.68</ele>
        <time>2024-05-29T20:43:14.003Z</time>
      </trkpt>
      <trkpt lat="43.09429" lon="-1.01642">
        <ele>965.51</ele>
        <time>2024-05-29T20:43:17.926Z</time>
      </trkpt>
      <trkpt lat="43.09408" lon="-1.0166">
        <ele>963.61</ele>
        <time>2024-05-29T20:43:21.853Z</time>
      </trkpt>
      <trkpt lat="43.09402" lon="-1.01669">
        <ele>961.73</ele>
        <time>2024-05-29T20:43:25.781Z</time>
      </trkpt>
      <trkpt lat="43.09386" lon="-1.01749">
        <ele>959.76</ele>
        <time>2024-05-29T20:43:29.719Z</time>
      </trkpt>
      <trkpt lat="43.09374" lon="-1.0182">
        <ele>957.42</ele>
        <time>2024-05-29T20:43:33.666Z</time>
      </trkpt>
      <trkpt lat="43.0937" lon="-1.01838">
        <ele>954.9</ele>
        <time>2024-05-29T20:43:37.615Z</time>
      </trkpt>
      <trkpt lat="43.09363" lon="-1.0185">
        <ele>952.05</ele>
        <time>2024-05-29T20:43:41.566Z</time>
      </trkpt>
      <trkpt lat="43.09355" lon="-1.01857">
        <ele>948.98</ele>
        <time>2024-05-29T20:43:45.518Z</time>
      </trkpt>
      <trkpt lat="43.09331" lon="-1.01854">
        <ele>945.24</ele>
        <time>2024-05-29T20:43:49.474Z</time>
      </trkpt>
      <trkpt lat="43.09325" lon="-1.01856">
        <ele>941.89</ele>
        <time>2024-05-29T20:43:53.431Z</time>
      </trkpt>
      <trkpt lat="43.09319" lon="-1.01861">
        <ele>938.47</ele>
        <time>2024-05-29T20:43:57.389Z</time>
      </trkpt>
      <trkpt lat="43.09313" lon="-1.01882">
        <ele>935.13</ele>
        <time>2024-05-29T20:44:01.350Z</time>
      </trkpt>
      <trkpt lat="43.09302" lon="-1.0195">
        <ele>931.95</ele>
        <time>2024-05-29T20:44:05.319Z</time>
      </trkpt>
      <trkpt lat="43.09286" lon="-1.02005">
        <ele>928.48</ele>
        <time>2024-05-29T20:44:09.295Z</time>
      </trkpt>
      <trkpt lat="43.0922" lon="-1.02136">
        <ele>924.31</ele>
        <time>2024-05-29T20:44:13.289Z</time>
      </trkpt>
      <trkpt lat="43.09205" lon="-1.02159">
        <ele>920.84</ele>
        <time>2024-05-29T20:44:17.287Z</time>
      </trkpt>
      <trkpt lat="43.09167" lon="-1.02206">
        <ele>917.21</ele>
        <time>2024-05-29T20:44:21.293Z</time>
      </trkpt>
      <trkpt lat="43.09118" lon="-1.02277">
        <ele>913.55</ele>
        <time>2024-05-29T20:44:25.311Z</time>
      </trkpt>
      <trkpt lat="43.09101" lon="-1.02295">
        <ele>910.58</ele>
        <time>2024-05-29T20:44:29.332Z</time>
      </trkpt>
      <trkpt lat="43.09087" lon="-1.02303">
        <ele>907.84</ele>
        <time>2024-05-29T20:44:33.356Z</time>
      </trkpt>
      <trkpt lat="43.09009" lon="-1.02323">
        <ele>905.36</ele>
        <time>2024-05-29T20:44:37.392Z</time>
      </trkpt>
      <trkpt lat="43.08997" lon="-1.02321">
        <ele>903.23</ele>
        <time>2024-05-29T20:44:41.430Z</time>
      </trkpt>
      <trkpt lat="43.08985" lon="-1.02316">
        <ele>901.38</ele>
        <time>2024-05-29T20:44:45.470Z</time>
      </trkpt>
      <trkpt lat="43.08978" lon="-1.02309">
        <ele>899.81</ele>
        <time>2024-05-29T20:44:49.512Z</time>
      </trkpt>
      <trkpt lat="43.08967" lon="-1.02293">
        <ele>898.63</ele>
        <time>2024-05-29T20:44:53.556Z</time>
      </trkpt>
      <trkpt lat="43.08959" lon="-1.02287">
        <ele>897.58</ele>
        <time>2024-05-29T20:44:57.602Z</time>
      </trkpt>
      <trkpt lat="43.08942" lon="-1.02285">
        <ele>896.73</ele>
        <time>2024-05-29T20:45:01.650Z</time>
      </trkpt>
      <trkpt lat="43.08919" lon="-1.02288">
        <ele>896.2</ele>
        <time>2024-05-29T20:45:05.702Z</time>
      </trkpt>
      <trkpt lat="43.08882" lon="-1.02304">
        <ele>895.87</ele>
        <time>2024-05-29T20:45:09.760Z</time>
      </trkpt>
      <trkpt lat="43.08874" lon="-1.02304">
        <ele>895.86</ele>
        <time>2024-05-29T20:45:13.820Z</time>
      </trkpt>
      <trkpt lat="43.08868" lon="-1.02301">
        <ele>896.12</ele>
        <time>2024-05-29T20:45:17.881Z</time>
      </trkpt>
      <trkpt lat="43.0885" lon="-1.02279">
        <ele>896.84</ele>
        <time>2024-05-29T20:45:21.945Z</time>
      </trkpt>
      <trkpt lat="43.08818" lon="-1.02245">
        <ele>897.73</ele>
        <time>2024-05-29T20:45:26.016Z</time>
      </trkpt>
      <trkpt lat="43.08756" lon="-1.02187">
        <ele>899.16</ele>
        <time>2024-05-29T20:45:30.099Z</time>
      </trkpt>
      <trkpt lat="43.08732" lon="-1.02166">
        <ele>900.49</ele>
        <time>2024-05-29T20:45:34.187Z</time>
      </trkpt>
      <trkpt lat="43.08707" lon="-1.02149">
        <ele>901.96</ele>
        <time>2024-05-29T20:45:38.279Z</time>
      </trkpt>
      <trkpt lat="43.08686" lon="-1.02138">
        <ele>903.69</ele>
        <time>2024-05-29T20:45:42.375Z</time>
      </trkpt>
      <trkpt lat="43.0868" lon="-1.02135">
        <ele>905.42</ele>
        <time>2024-05-29T20:45:46.472Z</time>
      </trkpt>
      <trkpt lat="43.08673" lon="-1.02136">
        <ele>907.26</ele>
        <time>2024-05-29T20:45:50.570Z</time>
      </trkpt>
      <trkpt lat="43.08671" lon="-1.02136">
        <ele>909.14</ele>
        <time>2024-05-29T20:45:54.668Z</time>
      </trkpt>
      <trkpt lat="43.08661" lon="-1.02146">
        <ele>911.09</ele>
        <time>2024-05-29T20:45:58.768Z</time>
      </trkpt>
      <trkpt lat="43.08647" lon="-1.02195">
        <ele>912.9</ele>
        <time>2024-05-29T20:46:02.874Z</time>
      </trkpt>
      <trkpt lat="43.08629" lon="-1.0224">
        <ele>915.08</ele>
        <time>2024-05-29T20:46:06.986Z</time>
      </trkpt>
      <trkpt lat="43.0862" lon="-1.02258">
        <ele>917.12</ele>
        <time>2024-05-29T20:46:11.101Z</time>
      </trkpt>
      <trkpt lat="43.08581" lon="-1.02311">
        <ele>919.05</ele>
        <time>2024-05-29T20:46:15.225Z</time>
      </trkpt>
      <trkpt lat="43.08574" lon="-1.02318">
        <ele>921.27</ele>
        <time>2024-05-29T20:46:19.350Z</time>
      </trkpt>
      <trkpt lat="43.08564" lon="-1.02323">
        <ele>923.55</ele>
        <time>2024-05-29T20:46:23.477Z</time>
      </trkpt>
      <trkpt lat="43.08542" lon="-1.02327">
        <ele>925.92</ele>
        <time>2024-05-29T20:46:27.607Z</time>
      </trkpt>
      <trkpt lat="43.08521" lon="-1.02323">
        <ele>928.45</ele>
        <time>2024-05-29T20:46:31.741Z</time>
      </trkpt>
      <trkpt lat="43.08501" lon="-1.02311">
        <ele>930.93</ele>
        <time>2024-05-29T20:46:35.878Z</time>
      </trkpt>
      <trkpt lat="43.08485" lon="-1.02297">
        <ele>933.28</ele>
        <time>2024-05-29T20:46:40.018Z</time>
      </trkpt>
      <trkpt lat="43.08468" lon="-1.02279">
        <ele>935.6</ele>
        <time>2024-05-29T20:46:44.162Z</time>
      </trkpt>
      <trkpt lat="43.08454" lon="-1.02256">
        <ele>938.02</ele>
        <time>2024-05-29T20:46:48.309Z</time>
      </trkpt>
      <trkpt lat="43.08411" lon="-1.0215">
        <ele>940.4</ele>
        <time>2024-05-29T20:46:52.470Z</time>
      </trkpt>
      <trkpt lat="43.08365" lon="-1.02046">
        <ele>942.82</ele>
        <time>2024-05-29T20:46:56.646Z</time>
      </trkpt>
      <trkpt lat="43.08339" lon="-1.01993">
        <ele>944.93</ele>
        <time>2024-05-29T20:47:00.829Z</time>
      </trkpt>
      <trkpt lat="43.08316" lon="-1.01952">
        <ele>946.88</ele>
        <time>2024-05-29T20:47:05.018Z</time>
      </trkpt>
      <trkpt lat="43.08281" lon="-1.01911">
        <ele>948.64</ele>
        <time>2024-05-29T20:47:09.214Z</time>
      </trkpt>
      <trkpt lat="43.08243" lon="-1.01882">
        <ele>950.29</ele>
        <time>2024-05-29T20:47:13.417Z</time>
      </trkpt>
      <trkpt lat="43.08194" lon="-1.01853">
        <ele>952.04</ele>
        <time>2024-05-29T20:47:17.629Z</time>
      </trkpt>
      <trkpt lat="43.0819" lon="-1.01855">
        <ele>953.34</ele>
        <time>2024-05-29T20:47:21.842Z</time>
      </trkpt>
      <trkpt lat="43.08186" lon="-1.01862">
        <ele>954.45</ele>
        <time>2024-05-29T20:47:26.056Z</time>
      </trkpt>
      <trkpt lat="43.08177" lon="-1.01901">
        <ele>955.3</ele>
        <time>2024-05-29T20:47:30.274Z</time>
      </trkpt>
      <trkpt lat="43.08148" lon="-1.01983">
        <ele>956.36</ele>
        <time>2024-05-29T20:47:34.503Z</time>
      </trkpt>
      <trkpt lat="43.08121" lon="-1.02079">
        <ele>957.06</ele>
        <time>2024-05-29T20:47:38.744Z</time>
      </trkpt>
      <trkpt lat="43.08117" lon="-1.0209">
        <ele>957.5</ele>
        <time>2024-05-29T20:47:42.987Z</time>
      </trkpt>
      <trkpt lat="43.08113" lon="-1.02096">
        <ele>957.82</ele>
        <time>2024-05-29T20:47:47.231Z</time>
      </trkpt>
      <trkpt lat="43.08112" lon="-1.02097">
        <ele>957.99</ele>
        <time>2024-05-29T20:47:51.475Z</time>
      </trkpt>
      <trkpt lat="43.08103" lon="-1.02102">
        <ele>958.03</ele>
        <time>2024-05-29T20:47:55.720Z</time>
      </trkpt>
      <trkpt lat="43.08077" lon="-1.02099">
        <ele>957.92</ele>
        <time>2024-05-29T20:47:59.970Z</time>
      </trkpt>
      <trkpt lat="43.08041" lon="-1.02104">
        <ele>957.52</ele>
        <time>2024-05-29T20:48:04.225Z</time>
      </trkpt>
      <trkpt lat="43.08032" lon="-1.02097">
        <ele>957.09</ele>
        <time>2024-05-29T20:48:08.482Z</time>
      </trkpt>
      <trkpt lat="43.08016" lon="-1.02071">
        <ele>956.63</ele>
        <time>2024-05-29T20:48:12.743Z</time>
      </trkpt>
      <trkpt lat="43.08002" lon="-1.02059">
        <ele>955.95</ele>
        <time>2024-05-29T20:48:17.007Z</time>
      </trkpt>
      <trkpt lat="43.07989" lon="-1.02052">
        <ele>955.11</ele>
        <time>2024-05-29T20:48:21.273Z</time>
      </trkpt>
      <trkpt lat="43.07962" lon="-1.02047">
        <ele>953.8</ele>
        <time>2024-05-29T20:48:25.543Z</time>
      </trkpt>
      <trkpt lat="43.07943" lon="-1.02032">
        <ele>952.57</ele>
        <time>2024-05-29T20:48:29.817Z</time>
      </trkpt>
      <trkpt lat="43.07907" lon="-1.01982">
        <ele>951.58</ele>
        <time>2024-05-29T20:48:34.099Z</time>
      </trkpt>
      <trkpt lat="43.07862" lon="-1.01924">
        <ele>950.39</ele>
        <time>2024-05-29T20:48:38.391Z</time>
      </trkpt>
      <trkpt lat="43.07787" lon="-1.01852">
        <ele>949.03</ele>
        <time>2024-05-29T20:48:42.698Z</time>
      </trkpt>
      <trkpt lat="43.07762" lon="-1.01824">
        <ele>947.62</ele>
        <time>2024-05-29T20:48:47.010Z</time>
      </trkpt>
      <trkpt lat="43.07739" lon="-1.01801">
        <ele>946.14</ele>
        <time>2024-05-29T20:48:51.326Z</time>
      </trkpt>
      <trkpt lat="43.07673" lon="-1.01747">
        <ele>944.59</ele>
        <time>2024-05-29T20:48:55.655Z</time>
      </trkpt>
      <trkpt lat="43.07636" lon="-1.01724">
        <ele>943.22</ele>
        <time>2024-05-29T20:48:59.990Z</time>
      </trkpt>
      <trkpt lat="43.07592" lon="-1.01701">
        <ele>941.87</ele>
        <time>2024-05-29T20:49:04.333Z</time>
      </trkpt>
      <trkpt lat="43.07568" lon="-1.01691">
        <ele>940.48</ele>
        <time>2024-05-29T20:49:08.680Z</time>
      </trkpt>
      <trkpt lat="43.07551" lon="-1.01686">
        <ele>939.29</ele>
        <time>2024-05-29T20:49:13.029Z</time>
      </trkpt>
      <trkpt lat="43.07533" lon="-1.01673">
        <ele>938.27</ele>
        <time>2024-05-29T20:49:17.382Z</time>
      </trkpt>
      <trkpt lat="43.07522" lon="-1.01668">
        <ele>937.26</ele>
        <time>2024-05-29T20:49:21.737Z</time>
      </trkpt>
      <trkpt lat="43.07515" lon="-1.0167">
        <ele>936.3</ele>
        <time>2024-05-29T20:49:26.093Z</time>
      </trkpt>
      <trkpt lat="43.07508" lon="-1.01676">
        <ele>935.47</ele>
        <time>2024-05-29T20:49:30.450Z</time>
      </trkpt>
      <trkpt lat="43.07503" lon="-1.01686">
        <ele>934.76</ele>
        <time>2024-05-29T20:49:34.808Z</time>
      </trkpt>
      <trkpt lat="43.07501" lon="-1.01743">
        <ele>933.91</ele>
        <time>2024-05-29T20:49:39.173Z</time>
      </trkpt>
      <trkpt lat="43.07491" lon="-1.01768">
        <ele>933.44</ele>
        <time>2024-05-29T20:49:43.541Z</time>
      </trkpt>
      <trkpt lat="43.07483" lon="-1.01779">
        <ele>933.23</ele>
        <time>2024-05-29T20:49:47.911Z</time>
      </trkpt>
      <trkpt lat="43.07431" lon="-1.01799">
        <ele>933.19</ele>
        <time>2024-05-29T20:49:52.290Z</time>
      </trkpt>
      <trkpt lat="43.07407" lon="-1.018">
        <ele>933.35</ele>
        <time>2024-05-29T20:49:56.673Z</time>
      </trkpt>
      <trkpt lat="43.07389" lon="-1.01801">
        <ele>933.65</ele>
        <time>2024-05-29T20:50:01.059Z</time>
      </trkpt>
      <trkpt lat="43.07378" lon="-1.01805">
        <ele>934.11</ele>
        <time>2024-05-29T20:50:05.446Z</time>
      </trkpt>
      <trkpt lat="43.07328" lon="-1.01838">
        <ele>934.78</ele>
        <time>2024-05-29T20:50:09.842Z</time>
      </trkpt>
      <trkpt lat="43.07269" lon="-1.0186">
        <ele>935.94</ele>
        <time>2024-05-29T20:50:14.248Z</time>
      </trkpt>
      <trkpt lat="43.07251" lon="-1.01872">
        <ele>937.1</ele>
        <time>2024-05-29T20:50:18.657Z</time>
      </trkpt>
      <trkpt lat="43.07215" lon="-1.01928">
        <ele>938.57</ele>
        <time>2024-05-29T20:50:23.075Z</time>
      </trkpt>
      <trkpt lat="43.07179" lon="-1.02012">
        <ele>940.43</ele>
        <time>2024-05-29T20:50:27.504Z</time>
      </trkpt>
      <trkpt lat="43.07126" lon="-1.02096">
        <ele>941.81</ele>
        <time>2024-05-29T20:50:31.946Z</time>
      </trkpt>
      <trkpt lat="43.07101" lon="-1.0211">
        <ele>943.65</ele>
        <time>2024-05-29T20:50:36.393Z</time>
      </trkpt>
      <trkpt lat="43.0708" lon="-1.02108">
        <ele>945.66</ele>
        <time>2024-05-29T20:50:40.843Z</time>
      </trkpt>
      <trkpt lat="43.07061" lon="-1.02101">
        <ele>947.82</ele>
        <time>2024-05-29T20:50:45.296Z</time>
      </trkpt>
      <trkpt lat="43.07043" lon="-1.02098">
        <ele>949.95</ele>
        <time>2024-05-29T20:50:49.752Z</time>
      </trkpt>
      <trkpt lat="43.07036" lon="-1.02103">
        <ele>951.94</ele>
        <time>2024-05-29T20:50:54.209Z</time>
      </trkpt>
      <trkpt lat="43.07031" lon="-1.02114">
        <ele>953.88</ele>
        <time>2024-05-29T20:50:58.668Z</time>
      </trkpt>
      <trkpt lat="43.07025" lon="-1.02161">
        <ele>955.69</ele>
        <time>2024-05-29T20:51:03.133Z</time>
      </trkpt>
      <trkpt lat="43.07008" lon="-1.02209">
        <ele>957.85</ele>
        <time>2024-05-29T20:51:07.604Z</time>
      </trkpt>
      <trkpt lat="43.06993" lon="-1.02237">
        <ele>959.92</ele>
        <time>2024-05-29T20:51:12.079Z</time>
      </trkpt>
      <trkpt lat="43.06984" lon="-1.02238">
        <ele>962.15</ele>
        <time>2024-05-29T20:51:16.555Z</time>
      </trkpt>
      <trkpt lat="43.06979" lon="-1.02232">
        <ele>964.41</ele>
        <time>2024-05-29T20:51:21.032Z</time>
      </trkpt>
      <trkpt lat="43.06979" lon="-1.02223">
        <ele>966.62</ele>
        <time>2024-05-29T20:51:25.510Z</time>
      </trkpt>
      <trkpt lat="43.06983" lon="-1.02208">
        <ele>968.83</ele>
        <time>2024-05-29T20:51:29.990Z</time>
      </trkpt>
      <trkpt lat="43.07004" lon="-1.02165">
        <ele>970.92</ele>
        <time>2024-05-29T20:51:34.476Z</time>
      </trkpt>
      <trkpt lat="43.07009" lon="-1.02128">
        <ele>973.12</ele>
        <time>2024-05-29T20:51:38.967Z</time>
      </trkpt>
      <trkpt lat="43.0701" lon="-1.02076">
        <ele>975.78</ele>
        <time>2024-05-29T20:51:43.464Z</time>
      </trkpt>
      <trkpt lat="43.07012" lon="-1.02069">
        <ele>977.98</ele>
        <time>2024-05-29T20:51:47.962Z</time>
      </trkpt>
      <trkpt lat="43.07016" lon="-1.02064">
        <ele>980.11</ele>
        <time>2024-05-29T20:51:52.461Z</time>
      </trkpt>
      <trkpt lat="43.07053" lon="-1.0205">
        <ele>981.94</ele>
        <time>2024-05-29T20:51:56.966Z</time>
      </trkpt>
      <trkpt lat="43.07077" lon="-1.02045">
        <ele>983.94</ele>
        <time>2024-05-29T20:52:01.475Z</time>
      </trkpt>
      <trkpt lat="43.07083" lon="-1.0204">
        <ele>986.13</ele>
        <time>2024-05-29T20:52:05.985Z</time>
      </trkpt>
      <trkpt lat="43.07086" lon="-1.02036">
        <ele>988.36</ele>
        <time>2024-05-29T20:52:10.495Z</time>
      </trkpt>
      <trkpt lat="43.07087" lon="-1.0203">
        <ele>990.67</ele>
        <time>2024-05-29T20:52:15.006Z</time>
      </trkpt>
      <trkpt lat="43.07086" lon="-1.02024">
        <ele>993.03</ele>
        <time>2024-05-29T20:52:19.518Z</time>
      </trkpt>
      <trkpt lat="43.07084" lon="-1.02022">
        <ele>995.39</ele>
        <time>2024-05-29T20:52:24.030Z</time>
      </trkpt>
      <trkpt lat="43.07078" lon="-1.02021">
        <ele>997.81</ele>
        <time>2024-05-29T20:52:28.543Z</time>
      </trkpt>
      <trkpt lat="43.0701" lon="-1.02034">
        <ele>1001.01</ele>
        <time>2024-05-29T20:52:33.067Z</time>
      </trkpt>
      <trkpt lat="43.06999" lon="-1.02042">
        <ele>1003.53</ele>
        <time>2024-05-29T20:52:37.593Z</time>
      </trkpt>
      <trkpt lat="43.06996" lon="-1.02049">
        <ele>1005.83</ele>
        <time>2024-05-29T20:52:42.120Z</time>
      </trkpt>
      <trkpt lat="43.06977" lon="-1.02093">
        <ele>1008.03</ele>
        <time>2024-05-29T20:52:46.653Z</time>
      </trkpt>
      <trkpt lat="43.06944" lon="-1.02155">
        <ele>1010.56</ele>
        <time>2024-05-29T20:52:51.195Z</time>
      </trkpt>
      <trkpt lat="43.06926" lon="-1.02183">
        <ele>1012.88</ele>
        <time>2024-05-29T20:52:55.742Z</time>
      </trkpt>
      <trkpt lat="43.06895" lon="-1.02217">
        <ele>1015.61</ele>
        <time>2024-05-29T20:53:00.295Z</time>
      </trkpt>
      <trkpt lat="43.06871" lon="-1.02236">
        <ele>1018.39</ele>
        <time>2024-05-29T20:53:04.852Z</time>
      </trkpt>
      <trkpt lat="43.06866" lon="-1.02247">
        <ele>1020.86</ele>
        <time>2024-05-29T20:53:09.411Z</time>
      </trkpt>
      <trkpt lat="43.06867" lon="-1.02267">
        <ele>1023.17</ele>
        <time>2024-05-29T20:53:13.972Z</time>
      </trkpt>
      <trkpt lat="43.06867" lon="-1.02325">
        <ele>1025.72</ele>
        <time>2024-05-29T20:53:18.540Z</time>
      </trkpt>
      <trkpt lat="43.06868" lon="-1.02343">
        <ele>1028.02</ele>
        <time>2024-05-29T20:53:23.110Z</time>
      </trkpt>
      <trkpt lat="43.06876" lon="-1.0236">
        <ele>1030.21</ele>
        <time>2024-05-29T20:53:27.683Z</time>
      </trkpt>
      <trkpt lat="43.06896" lon="-1.02395">
        <ele>1032.44</ele>
        <time>2024-05-29T20:53:32.261Z</time>
      </trkpt>
      <trkpt lat="43.06903" lon="-1.02424">
        <ele>1034.79</ele>
        <time>2024-05-29T20:53:36.842Z</time>
      </trkpt>
      <trkpt lat="43.06933" lon="-1.02507">
        <ele>1037.27</ele>
        <time>2024-05-29T20:53:41.434Z</time>
      </trkpt>
      <trkpt lat="43.06936" lon="-1.02526">
        <ele>1039.45</ele>
        <time>2024-05-29T20:53:46.028Z</time>
      </trkpt>
      <trkpt lat="43.06935" lon="-1.02534">
        <ele>1041.69</ele>
        <time>2024-05-29T20:53:50.623Z</time>
      </trkpt>
      <trkpt lat="43.06932" lon="-1.0254">
        <ele>1043.97</ele>
        <time>2024-05-29T20:53:55.219Z</time>
      </trkpt>
      <trkpt lat="43.06924" lon="-1.02544">
        <ele>1046.28</ele>
        <time>2024-05-29T20:53:59.817Z</time>
      </trkpt>
      <trkpt lat="43.0688" lon="-1.02535">
        <ele>1048.89</ele>
        <time>2024-05-29T20:54:04.422Z</time>
      </trkpt>
      <trkpt lat="43.06868" lon="-1.02536">
        <ele>1051.24</ele>
        <time>2024-05-29T20:54:09.029Z</time>
      </trkpt>
      <trkpt lat="43.06847" lon="-1.02541">
        <ele>1053.58</ele>
        <time>2024-05-29T20:54:13.639Z</time>
      </trkpt>
      <trkpt lat="43.06831" lon="-1.02542">
        <ele>1055.98</ele>
        <time>2024-05-29T20:54:18.252Z</time>
      </trkpt>
      <trkpt lat="43.06817" lon="-1.02538">
        <ele>1058.49</ele>
        <time>2024-05-29T20:54:22.867Z</time>
      </trkpt>
      <trkpt lat="43.06807" lon="-1.02533">
        <ele>1061.06</ele>
        <time>2024-05-29T20:54:27.484Z</time>
      </trkpt>
      <trkpt lat="43.06795" lon="-1.02525">
        <ele>1063.69</ele>
        <time>2024-05-29T20:54:32.103Z</time>
      </trkpt>
      <trkpt lat="43.06734" lon="-1.02461">
        <ele>1066.59</ele>
        <time>2024-05-29T20:54:36.734Z</time>
      </trkpt>
      <trkpt lat="43.06717" lon="-1.02441">
        <ele>1069.21</ele>
        <time>2024-05-29T20:54:41.369Z</time>
      </trkpt>
      <trkpt lat="43.06681" lon="-1.02392">
        <ele>1071.95</ele>
        <time>2024-05-29T20:54:46.012Z</time>
      </trkpt>
      <trkpt lat="43.06646" lon="-1.02356">
        <ele>1074.52</ele>
        <time>2024-05-29T20:54:50.662Z</time>
      </trkpt>
      <trkpt lat="43.06634" lon="-1.02347">
        <ele>1077.15</ele>
        <time>2024-05-29T20:54:55.314Z</time>
      </trkpt>
      <trkpt lat="43.06571" lon="-1.02322">
        <ele>1080.23</ele>
        <time>2024-05-29T20:54:59.976Z</time>
      </trkpt>
      <trkpt lat="43.06564" lon="-1.02322">
        <ele>1082.82</ele>
        <time>2024-05-29T20:55:04.640Z</time>
      </trkpt>
      <trkpt lat="43.0656" lon="-1.02327">
        <ele>1085.3</ele>
        <time>2024-05-29T20:55:09.304Z</time>
      </trkpt>
      <trkpt lat="43.0655" lon="-1.0235">
        <ele>1087.65</ele>
        <time>2024-05-29T20:55:13.972Z</time>
      </trkpt>
      <trkpt lat="43.06527" lon="-1.02389">
        <ele>1090.21</ele>
        <time>2024-05-29T20:55:18.645Z</time>
      </trkpt>
      <trkpt lat="43.06511" lon="-1.02425">
        <ele>1092.62</ele>
        <time>2024-05-29T20:55:23.323Z</time>
      </trkpt>
      <trkpt lat="43.06444" lon="-1.02508">
        <ele>1095.28</ele>
        <time>2024-05-29T20:55:28.016Z</time>
      </trkpt>
      <trkpt lat="43.06435" lon="-1.02511">
        <ele>1097.8</ele>
        <time>2024-05-29T20:55:32.710Z</time>
      </trkpt>
      <trkpt lat="43.06425" lon="-1.02508">
        <ele>1100.34</ele>
        <time>2024-05-29T20:55:37.406Z</time>
      </trkpt>
      <trkpt lat="43.06418" lon="-1.02502">
        <ele>1102.87</ele>
        <time>2024-05-29T20:55:42.103Z</time>
      </trkpt>
      <trkpt lat="43.06416" lon="-1.02494">
        <ele>1105.41</ele>
        <time>2024-05-29T20:55:46.801Z</time>
      </trkpt>
      <trkpt lat="43.06416" lon="-1.02486">
        <ele>1107.92</ele>
        <time>2024-05-29T20:55:51.500Z</time>
      </trkpt>
      <trkpt lat="43.06422" lon="-1.02479">
        <ele>1110.34</ele>
        <time>2024-05-29T20:55:56.201Z</time>
      </trkpt>
      <trkpt lat="43.0644" lon="-1.02475">
        <ele>1112.58</ele>
        <time>2024-05-29T20:56:00.904Z</time>
      </trkpt>
      <trkpt lat="43.0645" lon="-1.02468">
        <ele>1114.88</ele>
        <time>2024-05-29T20:56:05.609Z</time>
      </trkpt>
      <trkpt lat="43.06459" lon="-1.02453">
        <ele>1117.27</ele>
        <time>2024-05-29T20:56:10.317Z</time>
      </trkpt>
      <trkpt lat="43.0647" lon="-1.02428">
        <ele>1119.72</ele>
        <time>2024-05-29T20:56:15.028Z</time>
      </trkpt>
      <trkpt lat="43.06487" lon="-1.02374">
        <ele>1122.38</ele>
        <time>2024-05-29T20:56:19.746Z</time>
      </trkpt>
      <trkpt lat="43.06523" lon="-1.02223">
        <ele>1125.75</ele>
        <time>2024-05-29T20:56:24.482Z</time>
      </trkpt>
      <trkpt lat="43.06526" lon="-1.02217">
        <ele>1128.22</ele>
        <time>2024-05-29T20:56:29.219Z</time>
      </trkpt>
      <trkpt lat="43.06531" lon="-1.02212">
        <ele>1130.66</ele>
        <time>2024-05-29T20:56:33.957Z</time>
      </trkpt>
      <trkpt lat="43.06565" lon="-1.022">
        <ele>1133.02</ele>
        <time>2024-05-29T20:56:38.701Z</time>
      </trkpt>
      <trkpt lat="43.06608" lon="-1.02182">
        <ele>1135.59</ele>
        <time>2024-05-29T20:56:43.452Z</time>
      </trkpt>
      <trkpt lat="43.06643" lon="-1.02163">
        <ele>1138.22</ele>
        <time>2024-05-29T20:56:48.209Z</time>
      </trkpt>
      <trkpt lat="43.0667" lon="-1.02154">
        <ele>1140.55</ele>
        <time>2024-05-29T20:56:52.971Z</time>
      </trkpt>
      <trkpt lat="43.06682" lon="-1.02146">
        <ele>1142.96</ele>
        <time>2024-05-29T20:56:57.735Z</time>
      </trkpt>
      <trkpt lat="43.06688" lon="-1.02137">
        <ele>1145.36</ele>
        <time>2024-05-29T20:57:02.500Z</time>
      </trkpt>
      <trkpt lat="43.0669" lon="-1.02124">
        <ele>1147.92</ele>
        <time>2024-05-29T20:57:07.267Z</time>
      </trkpt>
      <trkpt lat="43.06688" lon="-1.02081">
        <ele>1150.78</ele>
        <time>2024-05-29T20:57:12.039Z</time>
      </trkpt>
      <trkpt lat="43.06684" lon="-1.02072">
        <ele>1153.31</ele>
        <time>2024-05-29T20:57:16.812Z</time>
      </trkpt>
      <trkpt lat="43.06676" lon="-1.02069">
        <ele>1155.86</ele>
        <time>2024-05-29T20:57:21.586Z</time>
      </trkpt>
      <trkpt lat="43.06669" lon="-1.02068">
        <ele>1158.38</ele>
        <time>2024-05-29T20:57:26.361Z</time>
      </trkpt>
      <trkpt lat="43.06662" lon="-1.02072">
        <ele>1160.89</ele>
        <time>2024-05-29T20:57:31.138Z</time>
      </trkpt>
      <trkpt lat="43.06636" lon="-1.02097">
        <ele>1163.29</ele>
        <time>2024-05-29T20:57:35.920Z</time>
      </trkpt>
      <trkpt lat="43.06627" lon="-1.02102">
        <ele>1165.66</ele>
        <time>2024-05-29T20:57:40.703Z</time>
      </trkpt>
      <trkpt lat="43.06616" lon="-1.02105">
        <ele>1168.05</ele>
        <time>2024-05-29T20:57:45.488Z</time>
      </trkpt>
      <trkpt lat="43.0655" lon="-1.02098">
        <ele>1170.78</ele>
        <time>2024-05-29T20:57:50.284Z</time>
      </trkpt>
      <trkpt lat="43.06544" lon="-1.02096">
        <ele>1173.2</ele>
        <time>2024-05-29T20:57:55.081Z</time>
      </trkpt>
      <trkpt lat="43.06466" lon="-1.02045">
        <ele>1175.98</ele>
        <time>2024-05-29T20:57:59.892Z</time>
      </trkpt>
      <trkpt lat="43.06424" lon="-1.02006">
        <ele>1178.25</ele>
        <time>2024-05-29T20:58:04.711Z</time>
      </trkpt>
      <trkpt lat="43.06415" lon="-1.01999">
        <ele>1180.52</ele>
        <time>2024-05-29T20:58:09.531Z</time>
      </trkpt>
      <trkpt lat="43.06378" lon="-1.01999">
        <ele>1182.9</ele>
        <time>2024-05-29T20:58:14.357Z</time>
      </trkpt>
      <trkpt lat="43.06342" lon="-1.01993">
        <ele>1185.28</ele>
        <time>2024-05-29T20:58:19.189Z</time>
      </trkpt>
      <trkpt lat="43.06298" lon="-1.01975">
        <ele>1187.69</ele>
        <time>2024-05-29T20:58:24.028Z</time>
      </trkpt>
      <trkpt lat="43.06265" lon="-1.01951">
        <ele>1189.97</ele>
        <time>2024-05-29T20:58:28.873Z</time>
      </trkpt>
      <trkpt lat="43.06256" lon="-1.01938">
        <ele>1191.93</ele>
        <time>2024-05-29T20:58:33.720Z</time>
      </trkpt>
      <trkpt lat="43.06243" lon="-1.019">
        <ele>1193.85</ele>
        <time>2024-05-29T20:58:38.572Z</time>
      </trkpt>
      <trkpt lat="43.06233" lon="-1.01865">
        <ele>1195.58</ele>
        <time>2024-05-29T20:58:43.429Z</time>
      </trkpt>
      <trkpt lat="43.06223" lon="-1.01847">
        <ele>1197.33</ele>
        <time>2024-05-29T20:58:48.288Z</time>
      </trkpt>
      <trkpt lat="43.06214" lon="-1.01838">
        <ele>1199.12</ele>
        <time>2024-05-29T20:58:53.149Z</time>
      </trkpt>
      <trkpt lat="43.06206" lon="-1.01835">
        <ele>1200.73</ele>
        <time>2024-05-29T20:58:58.012Z</time>
      </trkpt>
      <trkpt lat="43.06198" lon="-1.01835">
        <ele>1202.2</ele>
        <time>2024-05-29T20:59:02.876Z</time>
      </trkpt>
      <trkpt lat="43.06189" lon="-1.01842">
        <ele>1203.63</ele>
        <time>2024-05-29T20:59:07.741Z</time>
      </trkpt>
      <trkpt lat="43.06176" lon="-1.01857">
        <ele>1205.01</ele>
        <time>2024-05-29T20:59:12.609Z</time>
      </trkpt>
      <trkpt lat="43.06162" lon="-1.01867">
        <ele>1206.22</ele>
        <time>2024-05-29T20:59:17.480Z</time>
      </trkpt>
      <trkpt lat="43.06144" lon="-1.01872">
        <ele>1207.25</ele>
        <time>2024-05-29T20:59:22.354Z</time>
      </trkpt>
      <trkpt lat="43.06101" lon="-1.01878">
        <ele>1208.09</ele>
        <time>2024-05-29T20:59:27.235Z</time>
      </trkpt>
      <trkpt lat="43.06069" lon="-1.01893">
        <ele>1209.09</ele>
        <time>2024-05-29T20:59:32.121Z</time>
      </trkpt>
      <trkpt lat="43.06043" lon="-1.01914">
        <ele>1209.85</ele>
        <time>2024-05-29T20:59:37.012Z</time>
      </trkpt>
      <trkpt lat="43.06031" lon="-1.01918">
        <ele>1210.41</ele>
        <time>2024-05-29T20:59:41.905Z</time>
      </trkpt>
      <trkpt lat="43.06001" lon="-1.0192">
        <ele>1210.85</ele>
        <time>2024-05-29T20:59:46.803Z</time>
      </trkpt>
      <trkpt lat="43.05979" lon="-1.0192">
        <ele>1211.26</ele>
        <time>2024-05-29T20:59:51.704Z</time>
      </trkpt>
      <trkpt lat="43.05964" lon="-1.01915">
        <ele>1211.53</ele>
        <time>2024-05-29T20:59:56.608Z</time>
      </trkpt>
      <trkpt lat="43.05952" lon="-1.01908">
        <ele>1211.72</ele>
        <time>2024-05-29T21:00:01.514Z</time>
      </trkpt>
      <trkpt lat="43.05941" lon="-1.01896">
        <ele>1211.75</ele>
        <time>2024-05-29T21:00:06.422Z</time>
      </trkpt>
      <trkpt lat="43.05924" lon="-1.01869">
        <ele>1211.52</ele>
        <time>2024-05-29T21:00:11.334Z</time>
      </trkpt>
      <trkpt lat="43.05907" lon="-1.01848">
        <ele>1211.38</ele>
        <time>2024-05-29T21:00:16.250Z</time>
      </trkpt>
      <trkpt lat="43.059" lon="-1.01843">
        <ele>1211.19</ele>
        <time>2024-05-29T21:00:21.167Z</time>
      </trkpt>
      <trkpt lat="43.05894" lon="-1.0184">
        <ele>1210.91</ele>
        <time>2024-05-29T21:00:26.085Z</time>
      </trkpt>
      <trkpt lat="43.05886" lon="-1.01843">
        <ele>1210.62</ele>
        <time>2024-05-29T21:00:31.004Z</time>
      </trkpt>
      <trkpt lat="43.05876" lon="-1.01857">
        <ele>1210.35</ele>
        <time>2024-05-29T21:00:35.926Z</time>
      </trkpt>
      <trkpt lat="43.0586" lon="-1.01893">
        <ele>1209.95</ele>
        <time>2024-05-29T21:00:40.853Z</time>
      </trkpt>
      <trkpt lat="43.05855" lon="-1.01909">
        <ele>1209.47</ele>
        <time>2024-05-29T21:00:45.782Z</time>
      </trkpt>
      <trkpt lat="43.05847" lon="-1.01926">
        <ele>1208.96</ele>
        <time>2024-05-29T21:00:50.713Z</time>
      </trkpt>
      <trkpt lat="43.05841" lon="-1.01937">
        <ele>1208.34</ele>
        <time>2024-05-29T21:00:55.646Z</time>
      </trkpt>
      <trkpt lat="43.05832" lon="-1.01945">
        <ele>1207.58</ele>
        <time>2024-05-29T21:01:00.580Z</time>
      </trkpt>
      <trkpt lat="43.05817" lon="-1.01952">
        <ele>1206.67</ele>
        <time>2024-05-29T21:01:05.517Z</time>
      </trkpt>
      <trkpt lat="43.05791" lon="-1.01961">
        <ele>1205.6</ele>
        <time>2024-05-29T21:01:10.458Z</time>
      </trkpt>
      <trkpt lat="43.05774" lon="-1.01973">
        <ele>1204.63</ele>
        <time>2024-05-29T21:01:15.402Z</time>
      </trkpt>
      <trkpt lat="43.05758" lon="-1.0198">
        <ele>1203.55</ele>
        <time>2024-05-29T21:01:20.349Z</time>
      </trkpt>
      <trkpt lat="43.05722" lon="-1.01991">
        <ele>1202.37</ele>
        <time>2024-05-29T21:01:25.302Z</time>
      </trkpt>
      <trkpt lat="43.05691" lon="-1.02013">
        <ele>1201.24</ele>
        <time>2024-05-29T21:01:30.260Z</time>
      </trkpt>
      <trkpt lat="43.05658" lon="-1.02028">
        <ele>1199.85</ele>
        <time>2024-05-29T21:01:35.224Z</time>
      </trkpt>
      <trkpt lat="43.0562" lon="-1.02055">
        <ele>1198.8</ele>
        <time>2024-05-29T21:01:40.195Z</time>
      </trkpt>
      <trkpt lat="43.05582" lon="-1.02074">
        <ele>1197.56</ele>
        <time>2024-05-29T21:01:45.172Z</time>
      </trkpt>
      <trkpt lat="43.05568" lon="-1.02077">
        <ele>1196.34</ele>
        <time>2024-05-29T21:01:50.152Z</time>
      </trkpt>
      <trkpt lat="43.05523" lon="-1.02078">
        <ele>1194.91</ele>
        <time>2024-05-29T21:01:55.139Z</time>
      </trkpt>
      <trkpt lat="43.05519" lon="-1.02075">
        <ele>1193.66</ele>
        <time>2024-05-29T21:02:00.127Z</time>
      </trkpt>
      <trkpt lat="43.05516" lon="-1.02073">
        <ele>1192.45</ele>
        <time>2024-05-29T21:02:05.115Z</time>
      </trkpt>
      <trkpt lat="43.05505" lon="-1.0205">
        <ele>1191</ele>
        <time>2024-05-29T21:02:10.106Z</time>
      </trkpt>
      <trkpt lat="43.05487" lon="-1.02026">
        <ele>1190</ele>
        <time>2024-05-29T21:02:15.101Z</time>
      </trkpt>
      <trkpt lat="43.05482" lon="-1.02011">
        <ele>1188.98</ele>
        <time>2024-05-29T21:02:20.098Z</time>
      </trkpt>
      <trkpt lat="43.05477" lon="-1.01972">
        <ele>1187.72</ele>
        <time>2024-05-29T21:02:25.100Z</time>
      </trkpt>
      <trkpt lat="43.05474" lon="-1.0196">
        <ele>1186.69</ele>
        <time>2024-05-29T21:02:30.103Z</time>
      </trkpt>
      <trkpt lat="43.05468" lon="-1.01951">
        <ele>1185.81</ele>
        <time>2024-05-29T21:02:35.108Z</time>
      </trkpt>
      <trkpt lat="43.05459" lon="-1.01946">
        <ele>1185.03</ele>
        <time>2024-05-29T21:02:40.114Z</time>
      </trkpt>
      <trkpt lat="43.05446" lon="-1.01944">
        <ele>1184.37</ele>
        <time>2024-05-29T21:02:45.122Z</time>
      </trkpt>
      <trkpt lat="43.0541" lon="-1.01945">
        <ele>1184.04</ele>
        <time>2024-05-29T21:02:50.136Z</time>
      </trkpt>
      <trkpt lat="43.05403" lon="-1.01941">
        <ele>1183.17</ele>
        <time>2024-05-29T21:02:55.151Z</time>
      </trkpt>
      <trkpt lat="43.05398" lon="-1.01933">
        <ele>1182.22</ele>
        <time>2024-05-29T21:03:00.168Z</time>
      </trkpt>
      <trkpt lat="43.05389" lon="-1.01907">
        <ele>1181.09</ele>
        <time>2024-05-29T21:03:05.188Z</time>
      </trkpt>
      <trkpt lat="43.05371" lon="-1.01873">
        <ele>1180.27</ele>
        <time>2024-05-29T21:03:10.213Z</time>
      </trkpt>
      <trkpt lat="43.05363" lon="-1.01846">
        <ele>1179.45</ele>
        <time>2024-05-29T21:03:15.241Z</time>
      </trkpt>
      <trkpt lat="43.05364" lon="-1.01806">
        <ele>1178.36</ele>
        <time>2024-05-29T21:03:20.274Z</time>
      </trkpt>
      <trkpt lat="43.05372" lon="-1.01759">
        <ele>1177.01</ele>
        <time>2024-05-29T21:03:25.313Z</time>
      </trkpt>
      <trkpt lat="43.05381" lon="-1.01722">
        <ele>1175.72</ele>
        <time>2024-05-29T21:03:30.356Z</time>
      </trkpt>
      <trkpt lat="43.05384" lon="-1.01707">
        <ele>1174.88</ele>
        <time>2024-05-29T21:03:35.401Z</time>
      </trkpt>
      <trkpt lat="43.05382" lon="-1.01695">
        <ele>1174.21</ele>
        <time>2024-05-29T21:03:40.448Z</time>
      </trkpt>
      <trkpt lat="43.05376" lon="-1.01685">
        <ele>1173.69</ele>
        <time>2024-05-29T21:03:45.496Z</time>
      </trkpt>
      <trkpt lat="43.05365" lon="-1.01673">
        <ele>1173.41</ele>
        <time>2024-05-29T21:03:50.546Z</time>
      </trkpt>
      <trkpt lat="43.0534" lon="-1.01652">
        <ele>1173.03</ele>
        <time>2024-05-29T21:03:55.601Z</time>
      </trkpt>
      <trkpt lat="43.05308" lon="-1.01629">
        <ele>1172.61</ele>
        <time>2024-05-29T21:04:00.662Z</time>
      </trkpt>
      <trkpt lat="43.05292" lon="-1.0162">
        <ele>1172.15</ele>
        <time>2024-05-29T21:04:05.726Z</time>
      </trkpt>
      <trkpt lat="43.05287" lon="-1.01612">
        <ele>1171.41</ele>
        <time>2024-05-29T21:04:10.791Z</time>
      </trkpt>
      <trkpt lat="43.05285" lon="-1.01603">
        <ele>1170.65</ele>
        <time>2024-05-29T21:04:15.857Z</time>
      </trkpt>
      <trkpt lat="43.05282" lon="-1.01517">
        <ele>1168.96</ele>
        <time>2024-05-29T21:04:20.933Z</time>
      </trkpt>
      <trkpt lat="43.05281" lon="-1.01501">
        <ele>1168.37</ele>
        <time>2024-05-29T21:04:26.011Z</time>
      </trkpt>
      <trkpt lat="43.0528" lon="-1.01497">
        <ele>1167.75</ele>
        <time>2024-05-29T21:04:31.089Z</time>
      </trkpt>
      <trkpt lat="43.05273" lon="-1.01493">
        <ele>1167.16</ele>
        <time>2024-05-29T21:04:36.169Z</time>
      </trkpt>
      <trkpt lat="43.05266" lon="-1.01494">
        <ele>1166.59</ele>
        <time>2024-05-29T21:04:41.250Z</time>
      </trkpt>
      <trkpt lat="43.05238" lon="-1.01514">
        <ele>1166.27</ele>
        <time>2024-05-29T21:04:46.336Z</time>
      </trkpt>
      <trkpt lat="43.05214" lon="-1.01537">
        <ele>1166.19</ele>
        <time>2024-05-29T21:04:51.426Z</time>
      </trkpt>
      <trkpt lat="43.05207" lon="-1.01539">
        <ele>1165.67</ele>
        <time>2024-05-29T21:04:56.518Z</time>
      </trkpt>
      <trkpt lat="43.05197" lon="-1.01539">
        <ele>1165.08</ele>
        <time>2024-05-29T21:05:01.611Z</time>
      </trkpt>
      <trkpt lat="43.05173" lon="-1.01532">
        <ele>1164.27</ele>
        <time>2024-05-29T21:05:06.708Z</time>
      </trkpt>
      <trkpt lat="43.05158" lon="-1.01534">
        <ele>1163.65</ele>
        <time>2024-05-29T21:05:11.808Z</time>
      </trkpt>
      <trkpt lat="43.05129" lon="-1.01552">
        <ele>1163.58</ele>
        <time>2024-05-29T21:05:16.913Z</time>
      </trkpt>
      <trkpt lat="43.05116" lon="-1.01556">
        <ele>1163.2</ele>
        <time>2024-05-29T21:05:22.020Z</time>
      </trkpt>
      <trkpt lat="43.05099" lon="-1.01555">
        <ele>1162.71</ele>
        <time>2024-05-29T21:05:27.130Z</time>
      </trkpt>
      <trkpt lat="43.05085" lon="-1.0155">
        <ele>1162.05</ele>
        <time>2024-05-29T21:05:32.242Z</time>
      </trkpt>
      <trkpt lat="43.05062" lon="-1.01549">
        <ele>1161.46</ele>
        <time>2024-05-29T21:05:37.358Z</time>
      </trkpt>
      <trkpt lat="43.05054" lon="-1.01557">
        <ele>1161.19</ele>
        <time>2024-05-29T21:05:42.475Z</time>
      </trkpt>
      <trkpt lat="43.05044" lon="-1.01575">
        <ele>1161.19</ele>
        <time>2024-05-29T21:05:47.595Z</time>
      </trkpt>
      <trkpt lat="43.05036" lon="-1.01583">
        <ele>1161.12</ele>
        <time>2024-05-29T21:05:52.716Z</time>
      </trkpt>
      <trkpt lat="43.05028" lon="-1.01586">
        <ele>1161.01</ele>
        <time>2024-05-29T21:05:57.839Z</time>
      </trkpt>
      <trkpt lat="43.05012" lon="-1.01584">
        <ele>1160.72</ele>
        <time>2024-05-29T21:06:02.964Z</time>
      </trkpt>
      <trkpt lat="43.05003" lon="-1.01588">
        <ele>1160.84</ele>
        <time>2024-05-29T21:06:08.091Z</time>
      </trkpt>
      <trkpt lat="43.04987" lon="-1.01608">
        <ele>1161.29</ele>
        <time>2024-05-29T21:06:13.221Z</time>
      </trkpt>
      <trkpt lat="43.04976" lon="-1.01617">
        <ele>1161.7</ele>
        <time>2024-05-29T21:06:18.353Z</time>
      </trkpt>
      <trkpt lat="43.04956" lon="-1.01625">
        <ele>1162.12</ele>
        <time>2024-05-29T21:06:23.489Z</time>
      </trkpt>
      <trkpt lat="43.04917" lon="-1.01629">
        <ele>1162.4</ele>
        <time>2024-05-29T21:06:28.631Z</time>
      </trkpt>
      <trkpt lat="43.0491" lon="-1.01634">
        <ele>1163.2</ele>
        <time>2024-05-29T21:06:33.774Z</time>
      </trkpt>
      <trkpt lat="43.04905" lon="-1.01642">
        <ele>1164.21</ele>
        <time>2024-05-29T21:06:38.918Z</time>
      </trkpt>
      <trkpt lat="43.04905" lon="-1.01651">
        <ele>1165.48</ele>
        <time>2024-05-29T21:06:44.063Z</time>
      </trkpt>
      <trkpt lat="43.04907" lon="-1.01676">
        <ele>1166.88</ele>
        <time>2024-05-29T21:06:49.211Z</time>
      </trkpt>
      <trkpt lat="43.04915" lon="-1.01704">
        <ele>1168.79</ele>
        <time>2024-05-29T21:06:54.363Z</time>
      </trkpt>
      <trkpt lat="43.04921" lon="-1.01717">
        <ele>1170.7</ele>
        <time>2024-05-29T21:06:59.517Z</time>
      </trkpt>
      <trkpt lat="43.04945" lon="-1.01744">
        <ele>1173.21</ele>
        <time>2024-05-29T21:07:04.676Z</time>
      </trkpt>
      <trkpt lat="43.04952" lon="-1.01764">
        <ele>1175.43</ele>
        <time>2024-05-29T21:07:09.837Z</time>
      </trkpt>
      <trkpt lat="43.04957" lon="-1.0179">
        <ele>1177.9</ele>
        <time>2024-05-29T21:07:15.001Z</time>
      </trkpt>
      <trkpt lat="43.04955" lon="-1.01815">
        <ele>1180.2</ele>
        <time>2024-05-29T21:07:20.168Z</time>
      </trkpt>
      <trkpt lat="43.0496" lon="-1.0184">
        <ele>1182.89</ele>
        <time>2024-05-29T21:07:25.338Z</time>
      </trkpt>
      <trkpt lat="43.04959" lon="-1.01849">
        <ele>1185.37</ele>
        <time>2024-05-29T21:07:30.509Z</time>
      </trkpt>
      <trkpt lat="43.04956" lon="-1.01859">
        <ele>1187.85</ele>
        <time>2024-05-29T21:07:35.682Z</time>
      </trkpt>
      <trkpt lat="43.04937" lon="-1.01878">
        <ele>1190.06</ele>
        <time>2024-05-29T21:07:40.859Z</time>
      </trkpt>
      <trkpt lat="43.04929" lon="-1.01893">
        <ele>1192.56</ele>
        <time>2024-05-29T21:07:46.038Z</time>
      </trkpt>
      <trkpt lat="43.04921" lon="-1.01963">
        <ele>1195.42</ele>
        <time>2024-05-29T21:07:51.225Z</time>
      </trkpt>
      <trkpt lat="43.04917" lon="-1.01977">
        <ele>1198.03</ele>
        <time>2024-05-29T21:07:56.414Z</time>
      </trkpt>
      <trkpt lat="43.04913" lon="-1.02003">
        <ele>1200.76</ele>
        <time>2024-05-29T21:08:01.606Z</time>
      </trkpt>
      <trkpt lat="43.04914" lon="-1.02024">
        <ele>1203.51</ele>
        <time>2024-05-29T21:08:06.800Z</time>
      </trkpt>
      <trkpt lat="43.04923" lon="-1.0208">
        <ele>1206.65</ele>
        <time>2024-05-29T21:08:12.001Z</time>
      </trkpt>
      <trkpt lat="43.04923" lon="-1.02097">
        <ele>1209.23</ele>
        <time>2024-05-29T21:08:17.204Z</time>
      </trkpt>
      <trkpt lat="43.04918" lon="-1.02122">
        <ele>1211.76</ele>
        <time>2024-05-29T21:08:22.410Z</time>
      </trkpt>
      <trkpt lat="43.04905" lon="-1.0216">
        <ele>1214.33</ele>
        <time>2024-05-29T21:08:27.621Z</time>
      </trkpt>
      <trkpt lat="43.04897" lon="-1.02176">
        <ele>1216.73</ele>
        <time>2024-05-29T21:08:32.834Z</time>
      </trkpt>
      <trkpt lat="43.04888" lon="-1.02186">
        <ele>1218.92</ele>
        <time>2024-05-29T21:08:38.049Z</time>
      </trkpt>
      <trkpt lat="43.04853" lon="-1.02199">
        <ele>1220.27</ele>
        <time>2024-05-29T21:08:43.270Z</time>
      </trkpt>
      <trkpt lat="43.04851" lon="-1.02202">
        <ele>1222.33</ele>
        <time>2024-05-29T21:08:48.491Z</time>
      </trkpt>
      <trkpt lat="43.04845" lon="-1.02231">
        <ele>1224.68</ele>
        <time>2024-05-29T21:08:53.716Z</time>
      </trkpt>
      <trkpt lat="43.04806" lon="-1.02308">
        <ele>1226.69</ele>
        <time>2024-05-29T21:08:58.952Z</time>
      </trkpt>
      <trkpt lat="43.04805" lon="-1.02329">
        <ele>1228.87</ele>
        <time>2024-05-29T21:09:04.190Z</time>
      </trkpt>
      <trkpt lat="43.04808" lon="-1.02347">
        <ele>1230.92</ele>
        <time>2024-05-29T21:09:09.431Z</time>
      </trkpt>
      <trkpt lat="43.04807" lon="-1.02356">
        <ele>1232.61</ele>
        <time>2024-05-29T21:09:14.673Z</time>
      </trkpt>
      <trkpt lat="43.04803" lon="-1.02365">
        <ele>1234.11</ele>
        <time>2024-05-29T21:09:19.916Z</time>
      </trkpt>
      <trkpt lat="43.04798" lon="-1.02371">
        <ele>1235.32</ele>
        <time>2024-05-29T21:09:25.160Z</time>
      </trkpt>
      <trkpt lat="43.04765" lon="-1.02395">
        <ele>1236.49</ele>
        <time>2024-05-29T21:09:30.410Z</time>
      </trkpt>
      <trkpt lat="43.04759" lon="-1.02396">
        <ele>1237.25</ele>
        <time>2024-05-29T21:09:35.661Z</time>
      </trkpt>
      <trkpt lat="43.04728" lon="-1.02392">
        <ele>1237.46</ele>
        <time>2024-05-29T21:09:40.917Z</time>
      </trkpt>
      <trkpt lat="43.04713" lon="-1.02385">
        <ele>1237.76</ele>
        <time>2024-05-29T21:09:46.175Z</time>
      </trkpt>
      <trkpt lat="43.04691" lon="-1.02388">
        <ele>1238.22</ele>
        <time>2024-05-29T21:09:51.437Z</time>
      </trkpt>
      <trkpt lat="43.04656" lon="-1.02385">
        <ele>1238.78</ele>
        <time>2024-05-29T21:09:56.705Z</time>
      </trkpt>
      <trkpt lat="43.04646" lon="-1.02379">
        <ele>1238.84</ele>
        <time>2024-05-29T21:10:01.974Z</time>
      </trkpt>
      <trkpt lat="43.04611" lon="-1.0235">
        <ele>1238.54</ele>
        <time>2024-05-29T21:10:07.250Z</time>
      </trkpt>
      <trkpt lat="43.04606" lon="-1.02348">
        <ele>1238.28</ele>
        <time>2024-05-29T21:10:12.527Z</time>
      </trkpt>
      <trkpt lat="43.04601" lon="-1.02346">
        <ele>1237.92</ele>
        <time>2024-05-29T21:10:17.805Z</time>
      </trkpt>
      <trkpt lat="43.04591" lon="-1.0235">
        <ele>1237.5</ele>
        <time>2024-05-29T21:10:23.084Z</time>
      </trkpt>
      <trkpt lat="43.04573" lon="-1.02366">
        <ele>1237.32</ele>
        <time>2024-05-29T21:10:28.367Z</time>
      </trkpt>
      <trkpt lat="43.04541" lon="-1.02382">
        <ele>1236.87</ele>
        <time>2024-05-29T21:10:33.655Z</time>
      </trkpt>
      <trkpt lat="43.04535" lon="-1.02382">
        <ele>1236.11</ele>
        <time>2024-05-29T21:10:38.944Z</time>
      </trkpt>
      <trkpt lat="43.04521" lon="-1.02372">
        <ele>1234.82</ele>
        <time>2024-05-29T21:10:44.236Z</time>
      </trkpt>
      <trkpt lat="43.04513" lon="-1.0237">
        <ele>1233.87</ele>
        <time>2024-05-29T21:10:49.529Z</time>
      </trkpt>
      <trkpt lat="43.04486" lon="-1.02378">
        <ele>1232.97</ele>
        <time>2024-05-29T21:10:54.826Z</time>
      </trkpt>
      <trkpt lat="43.04479" lon="-1.02383">
        <ele>1232.09</ele>
        <time>2024-05-29T21:11:00.125Z</time>
      </trkpt>
      <trkpt lat="43.04462" lon="-1.02404">
        <ele>1231.39</ele>
        <time>2024-05-29T21:11:05.427Z</time>
      </trkpt>
      <trkpt lat="43.04448" lon="-1.02412">
        <ele>1230.43</ele>
        <time>2024-05-29T21:11:10.732Z</time>
      </trkpt>
      <trkpt lat="43.04439" lon="-1.0242">
        <ele>1229.61</ele>
        <time>2024-05-29T21:11:16.038Z</time>
      </trkpt>
      <trkpt lat="43.04429" lon="-1.02436">
        <ele>1228.89</ele>
        <time>2024-05-29T21:11:21.347Z</time>
      </trkpt>
      <trkpt lat="43.04416" lon="-1.02449">
        <ele>1227.91</ele>
        <time>2024-05-29T21:11:26.658Z</time>
      </trkpt>
      <trkpt lat="43.0441" lon="-1.02458">
        <ele>1227.2</ele>
        <time>2024-05-29T21:11:31.971Z</time>
      </trkpt>
      <trkpt lat="43.04406" lon="-1.02469">
        <ele>1226.71</ele>
        <time>2024-05-29T21:11:37.285Z</time>
      </trkpt>
      <trkpt lat="43.04403" lon="-1.02486">
        <ele>1226.51</ele>
        <time>2024-05-29T21:11:42.601Z</time>
      </trkpt>
      <trkpt lat="43.044" lon="-1.02493">
        <ele>1226.23</ele>
        <time>2024-05-29T21:11:47.918Z</time>
      </trkpt>
      <trkpt lat="43.04386" lon="-1.0251">
        <ele>1226.07</ele>
        <time>2024-05-29T21:11:53.238Z</time>
      </trkpt>
      <trkpt lat="43.04379" lon="-1.02513">
        <ele>1225.85</ele>
        <time>2024-05-29T21:11:58.559Z</time>
      </trkpt>
      <trkpt lat="43.04372" lon="-1.02511">
        <ele>1225.69</ele>
        <time>2024-05-29T21:12:03.882Z</time>
      </trkpt>
      <trkpt lat="43.04359" lon="-1.02503">
        <ele>1225.54</ele>
        <time>2024-05-29T21:12:09.207Z</time>
      </trkpt>
      <trkpt lat="43.04334" lon="-1.02495">
        <ele>1225.7</ele>
        <time>2024-05-29T21:12:14.536Z</time>
      </trkpt>
      <trkpt lat="43.04308" lon="-1.0248">
        <ele>1226.03</ele>
        <time>2024-05-29T21:12:19.870Z</time>
      </trkpt>
      <trkpt lat="43.04257" lon="-1.02438">
        <ele>1226.57</ele>
        <time>2024-05-29T21:12:25.213Z</time>
      </trkpt>
      <trkpt lat="43.04233" lon="-1.02428">
        <ele>1227.57</ele>
        <time>2024-05-29T21:12:30.560Z</time>
      </trkpt>
      <trkpt lat="43.04224" lon="-1.02421">
        <ele>1228.54</ele>
        <time>2024-05-29T21:12:35.909Z</time>
      </trkpt>
      <trkpt lat="43.04221" lon="-1.02415">
        <ele>1229.45</ele>
        <time>2024-05-29T21:12:41.259Z</time>
      </trkpt>
      <trkpt lat="43.04217" lon="-1.02408">
        <ele>1230.46</ele>
        <time>2024-05-29T21:12:46.610Z</time>
      </trkpt>
      <trkpt lat="43.04199" lon="-1.02335">
        <ele>1231.39</ele>
        <time>2024-05-29T21:12:51.970Z</time>
      </trkpt>
      <trkpt lat="43.04194" lon="-1.0232">
        <ele>1232.69</ele>
        <time>2024-05-29T21:12:57.332Z</time>
      </trkpt>
      <trkpt lat="43.04165" lon="-1.02281">
        <ele>1234.52</ele>
        <time>2024-05-29T21:13:02.700Z</time>
      </trkpt>
      <trkpt lat="43.04159" lon="-1.02275">
        <ele>1236.23</ele>
        <time>2024-05-29T21:13:08.069Z</time>
      </trkpt>
      <trkpt lat="43.04154" lon="-1.02276">
        <ele>1238.13</ele>
        <time>2024-05-29T21:13:13.439Z</time>
      </trkpt>
      <trkpt lat="43.04115" lon="-1.02305">
        <ele>1240.65</ele>
        <time>2024-05-29T21:13:18.816Z</time>
      </trkpt>
      <trkpt lat="43.04103" lon="-1.0231">
        <ele>1242.87</ele>
        <time>2024-05-29T21:13:24.195Z</time>
      </trkpt>
      <trkpt lat="43.0406" lon="-1.02308">
        <ele>1245.27</ele>
        <time>2024-05-29T21:13:29.581Z</time>
      </trkpt>
      <trkpt lat="43.04037" lon="-1.02305">
        <ele>1247.56</ele>
        <time>2024-05-29T21:13:34.971Z</time>
      </trkpt>
      <trkpt lat="43.04013" lon="-1.02308">
        <ele>1249.99</ele>
        <time>2024-05-29T21:13:40.365Z</time>
      </trkpt>
      <trkpt lat="43.03982" lon="-1.02334">
        <ele>1252.83</ele>
        <time>2024-05-29T21:13:45.764Z</time>
      </trkpt>
      <trkpt lat="43.03929" lon="-1.02354">
        <ele>1255.35</ele>
        <time>2024-05-29T21:13:51.172Z</time>
      </trkpt>
      <trkpt lat="43.03917" lon="-1.02361">
        <ele>1258.04</ele>
        <time>2024-05-29T21:13:56.582Z</time>
      </trkpt>
      <trkpt lat="43.03904" lon="-1.02373">
        <ele>1260.87</ele>
        <time>2024-05-29T21:14:01.995Z</time>
      </trkpt>
      <trkpt lat="43.03902" lon="-1.02382">
        <ele>1263.81</ele>
        <time>2024-05-29T21:14:07.409Z</time>
      </trkpt>
      <trkpt lat="43.03905" lon="-1.02388">
        <ele>1266.79</ele>
        <time>2024-05-29T21:14:12.824Z</time>
      </trkpt>
      <trkpt lat="43.03912" lon="-1.0239">
        <ele>1269.77</ele>
        <time>2024-05-29T21:14:18.240Z</time>
      </trkpt>
      <trkpt lat="43.03932" lon="-1.02373">
        <ele>1272.56</ele>
        <time>2024-05-29T21:14:23.660Z</time>
      </trkpt>
      <trkpt lat="43.03941" lon="-1.02372">
        <ele>1275.55</ele>
        <time>2024-05-29T21:14:29.081Z</time>
      </trkpt>
      <trkpt lat="43.03994" lon="-1.02376">
        <ele>1278.94</ele>
        <time>2024-05-29T21:14:34.511Z</time>
      </trkpt>
      <trkpt lat="43.04041" lon="-1.02367">
        <ele>1281.86</ele>
        <time>2024-05-29T21:14:39.948Z</time>
      </trkpt>
      <trkpt lat="43.04058" lon="-1.02368">
        <ele>1284.87</ele>
        <time>2024-05-29T21:14:45.388Z</time>
      </trkpt>
      <trkpt lat="43.04109" lon="-1.02384">
        <ele>1288.16</ele>
        <time>2024-05-29T21:14:50.836Z</time>
      </trkpt>
      <trkpt lat="43.04132" lon="-1.02382">
        <ele>1290.79</ele>
        <time>2024-05-29T21:14:56.288Z</time>
      </trkpt>
      <trkpt lat="43.04137" lon="-1.02386">
        <ele>1293.66</ele>
        <time>2024-05-29T21:15:01.741Z</time>
      </trkpt>
      <trkpt lat="43.04139" lon="-1.02391">
        <ele>1296.54</ele>
        <time>2024-05-29T21:15:07.195Z</time>
      </trkpt>
      <trkpt lat="43.04137" lon="-1.02399">
        <ele>1299.43</ele>
        <time>2024-05-29T21:15:12.650Z</time>
      </trkpt>
      <trkpt lat="43.04129" lon="-1.02403">
        <ele>1302.31</ele>
        <time>2024-05-29T21:15:18.106Z</time>
      </trkpt>
      <trkpt lat="43.04075" lon="-1.02407">
        <ele>1305.34</ele>
        <time>2024-05-29T21:15:23.571Z</time>
      </trkpt>
      <trkpt lat="43.04015" lon="-1.02435">
        <ele>1307.99</ele>
        <time>2024-05-29T21:15:29.046Z</time>
      </trkpt>
      <trkpt lat="43.03992" lon="-1.02444">
        <ele>1310.34</ele>
        <time>2024-05-29T21:15:34.525Z</time>
      </trkpt>
      <trkpt lat="43.03964" lon="-1.02445">
        <ele>1312.36</ele>
        <time>2024-05-29T21:15:40.008Z</time>
      </trkpt>
      <trkpt lat="43.03959" lon="-1.02448">
        <ele>1314.42</ele>
        <time>2024-05-29T21:15:45.492Z</time>
      </trkpt>
      <trkpt lat="43.03954" lon="-1.02454">
        <ele>1316.34</ele>
        <time>2024-05-29T21:15:50.977Z</time>
      </trkpt>
      <trkpt lat="43.0395" lon="-1.02471">
        <ele>1318.19</ele>
        <time>2024-05-29T21:15:56.464Z</time>
      </trkpt>
      <trkpt lat="43.03944" lon="-1.02535">
        <ele>1320.18</ele>
        <time>2024-05-29T21:16:01.959Z</time>
      </trkpt>
      <trkpt lat="43.03945" lon="-1.02562">
        <ele>1321.96</ele>
        <time>2024-05-29T21:16:07.457Z</time>
      </trkpt>
      <trkpt lat="43.03944" lon="-1.02576">
        <ele>1323.33</ele>
        <time>2024-05-29T21:16:12.957Z</time>
      </trkpt>
      <trkpt lat="43.03938" lon="-1.02589">
        <ele>1324.44</ele>
        <time>2024-05-29T21:16:18.458Z</time>
      </trkpt>
      <trkpt lat="43.03924" lon="-1.02597">
        <ele>1325.24</ele>
        <time>2024-05-29T21:16:23.962Z</time>
      </trkpt>
      <trkpt lat="43.03883" lon="-1.02599">
        <ele>1325.73</ele>
        <time>2024-05-29T21:16:29.472Z</time>
      </trkpt>
      <trkpt lat="43.03853" lon="-1.02606">
        <ele>1325.84</ele>
        <time>2024-05-29T21:16:34.987Z</time>
      </trkpt>
      <trkpt lat="43.03839" lon="-1.02616">
        <ele>1325.87</ele>
        <time>2024-05-29T21:16:40.505Z</time>
      </trkpt>
      <trkpt lat="43.03823" lon="-1.02633">
        <ele>1325.71</ele>
        <time>2024-05-29T21:16:46.026Z</time>
      </trkpt>
      <trkpt lat="43.03806" lon="-1.0266">
        <ele>1325.47</ele>
        <time>2024-05-29T21:16:51.551Z</time>
      </trkpt>
      <trkpt lat="43.03777" lon="-1.0264">
        <ele>1324.97</ele>
        <time>2024-05-29T21:16:57.081Z</time>
      </trkpt>
      <trkpt lat="43.03765" lon="-1.02629">
        <ele>1324.22</ele>
        <time>2024-05-29T21:17:02.614Z</time>
      </trkpt>
      <trkpt lat="43.03695" lon="-1.02549">
        <ele>1322.98</ele>
        <time>2024-05-29T21:17:08.161Z</time>
      </trkpt>
      <trkpt lat="43.03685" lon="-1.0254">
        <ele>1321.88</ele>
        <time>2024-05-29T21:17:13.710Z</time>
      </trkpt>
      <trkpt lat="43.03659" lon="-1.02527">
        <ele>1320.65</ele>
        <time>2024-05-29T21:17:19.264Z</time>
      </trkpt>
      <trkpt lat="43.03643" lon="-1.02509">
        <ele>1319.21</ele>
        <time>2024-05-29T21:17:24.821Z</time>
      </trkpt>
      <trkpt lat="43.03633" lon="-1.02492">
        <ele>1317.67</ele>
        <time>2024-05-29T21:17:30.381Z</time>
      </trkpt>
      <trkpt lat="43.03624" lon="-1.02479">
        <ele>1316.09</ele>
        <time>2024-05-29T21:17:35.943Z</time>
      </trkpt>
      <trkpt lat="43.03612" lon="-1.02467">
        <ele>1314.45</ele>
        <time>2024-05-29T21:17:41.507Z</time>
      </trkpt>
      <trkpt lat="43.03575" lon="-1.02442">
        <ele>1312.66</ele>
        <time>2024-05-29T21:17:47.078Z</time>
      </trkpt>
      <trkpt lat="43.03568" lon="-1.02433">
        <ele>1310.93</ele>
        <time>2024-05-29T21:17:52.650Z</time>
      </trkpt>
      <trkpt lat="43.03561" lon="-1.02421">
        <ele>1309.17</ele>
        <time>2024-05-29T21:17:58.224Z</time>
      </trkpt>
      <trkpt lat="43.03556" lon="-1.02408">
        <ele>1307.34</ele>
        <time>2024-05-29T21:18:03.800Z</time>
      </trkpt>
      <trkpt lat="43.03551" lon="-1.02381">
        <ele>1305.3</ele>
        <time>2024-05-29T21:18:09.379Z</time>
      </trkpt>
      <trkpt lat="43.03545" lon="-1.02321">
        <ele>1303.24</ele>
        <time>2024-05-29T21:18:14.965Z</time>
      </trkpt>
      <trkpt lat="43.03542" lon="-1.02309">
        <ele>1301.41</ele>
        <time>2024-05-29T21:18:20.553Z</time>
      </trkpt>
      <trkpt lat="43.03534" lon="-1.02297">
        <ele>1299.58</ele>
        <time>2024-05-29T21:18:26.142Z</time>
      </trkpt>
      <trkpt lat="43.0353" lon="-1.02294">
        <ele>1297.79</ele>
        <time>2024-05-29T21:18:31.732Z</time>
      </trkpt>
      <trkpt lat="43.03527" lon="-1.02293">
        <ele>1296.02</ele>
        <time>2024-05-29T21:18:37.323Z</time>
      </trkpt>
      <trkpt lat="43.03519" lon="-1.02294">
        <ele>1294.31</ele>
        <time>2024-05-29T21:18:42.915Z</time>
      </trkpt>
      <trkpt lat="43.03509" lon="-1.02304">
        <ele>1292.59</ele>
        <time>2024-05-29T21:18:48.509Z</time>
      </trkpt>
      <trkpt lat="43.03492" lon="-1.02329">
        <ele>1290.92</ele>
        <time>2024-05-29T21:18:54.107Z</time>
      </trkpt>
      <trkpt lat="43.03464" lon="-1.02359">
        <ele>1289.19</ele>
        <time>2024-05-29T21:18:59.711Z</time>
      </trkpt>
      <trkpt lat="43.03456" lon="-1.02363">
        <ele>1287.48</ele>
        <time>2024-05-29T21:19:05.316Z</time>
      </trkpt>
      <trkpt lat="43.03446" lon="-1.02365">
        <ele>1285.78</ele>
        <time>2024-05-29T21:19:10.923Z</time>
      </trkpt>
      <trkpt lat="43.03433" lon="-1.02363">
        <ele>1283.98</ele>
        <time>2024-05-29T21:19:16.532Z</time>
      </trkpt>
      <trkpt lat="43.03418" lon="-1.02364">
        <ele>1282.26</ele>
        <time>2024-05-29T21:19:22.143Z</time>
      </trkpt>
      <trkpt lat="43.03372" lon="-1.02383">
        <ele>1280.67</ele>
        <time>2024-05-29T21:19:27.762Z</time>
      </trkpt>
      <trkpt lat="43.03353" lon="-1.02395">
        <ele>1279.08</ele>
        <time>2024-05-29T21:19:33.384Z</time>
      </trkpt>
      <trkpt lat="43.03336" lon="-1.02414">
        <ele>1277.56</ele>
        <time>2024-05-29T21:19:39.010Z</time>
      </trkpt>
      <trkpt lat="43.03325" lon="-1.02434">
        <ele>1276.09</ele>
        <time>2024-05-29T21:19:44.639Z</time>
      </trkpt>
      <trkpt lat="43.03318" lon="-1.02449">
        <ele>1274.57</ele>
        <time>2024-05-29T21:19:50.270Z</time>
      </trkpt>
      <trkpt lat="43.03313" lon="-1.02454">
        <ele>1273.02</ele>
        <time>2024-05-29T21:19:55.902Z</time>
      </trkpt>
      <trkpt lat="43.03306" lon="-1.02452">
        <ele>1271.38</ele>
        <time>2024-05-29T21:20:01.535Z</time>
      </trkpt>
      <trkpt lat="43.033" lon="-1.02442">
        <ele>1269.76</ele>
        <time>2024-05-29T21:20:07.169Z</time>
      </trkpt>
      <trkpt lat="43.033" lon="-1.02431">
        <ele>1268.24</ele>
        <time>2024-05-29T21:20:12.805Z</time>
      </trkpt>
      <trkpt lat="43.03306" lon="-1.02415">
        <ele>1266.63</ele>
        <time>2024-05-29T21:20:18.443Z</time>
      </trkpt>
      <trkpt lat="43.03329" lon="-1.02385">
        <ele>1264.99</ele>
        <time>2024-05-29T21:20:24.086Z</time>
      </trkpt>
      <trkpt lat="43.03396" lon="-1.02324">
        <ele>1263.28</ele>
        <time>2024-05-29T21:20:29.742Z</time>
      </trkpt>
      <trkpt lat="43.0341" lon="-1.02314">
        <ele>1261.67</ele>
        <time>2024-05-29T21:20:35.400Z</time>
      </trkpt>
      <trkpt lat="43.03434" lon="-1.02303">
        <ele>1260.12</ele>
        <time>2024-05-29T21:20:41.062Z</time>
      </trkpt>
      <trkpt lat="43.03443" lon="-1.02288">
        <ele>1258.34</ele>
        <time>2024-05-29T21:20:46.727Z</time>
      </trkpt>
      <trkpt lat="43.03445" lon="-1.02276">
        <ele>1256.45</ele>
        <time>2024-05-29T21:20:52.393Z</time>
      </trkpt>
      <trkpt lat="43.03445" lon="-1.02264">
        <ele>1254.45</ele>
        <time>2024-05-29T21:20:58.060Z</time>
      </trkpt>
      <trkpt lat="43.03438" lon="-1.02232">
        <ele>1252.29</ele>
        <time>2024-05-29T21:21:03.731Z</time>
      </trkpt>
      <trkpt lat="43.03427" lon="-1.02206">
        <ele>1250.09</ele>
        <time>2024-05-29T21:21:09.406Z</time>
      </trkpt>
      <trkpt lat="43.0341" lon="-1.02176">
        <ele>1247.78</ele>
        <time>2024-05-29T21:21:15.085Z</time>
      </trkpt>
      <trkpt lat="43.03389" lon="-1.02145">
        <ele>1245.42</ele>
        <time>2024-05-29T21:21:20.769Z</time>
      </trkpt>
      <trkpt lat="43.03372" lon="-1.02115">
        <ele>1242.91</ele>
        <time>2024-05-29T21:21:26.458Z</time>
      </trkpt>
      <trkpt lat="43.03369" lon="-1.02103">
        <ele>1240.51</ele>
        <time>2024-05-29T21:21:32.148Z</time>
      </trkpt>
      <trkpt lat="43.03368" lon="-1.02085">
        <ele>1238.02</ele>
        <time>2024-05-29T21:21:37.840Z</time>
      </trkpt>
      <trkpt lat="43.03372" lon="-1.02071">
        <ele>1235.47</ele>
        <time>2024-05-29T21:21:43.534Z</time>
      </trkpt>
      <trkpt lat="43.03379" lon="-1.0206">
        <ele>1232.78</ele>
        <time>2024-05-29T21:21:49.230Z</time>
      </trkpt>
      <trkpt lat="43.03419" lon="-1.02035">
        <ele>1230.34</ele>
        <time>2024-05-29T21:21:54.933Z</time>
      </trkpt>
      <trkpt lat="43.03431" lon="-1.02019">
        <ele>1227.34</ele>
        <time>2024-05-29T21:22:00.639Z</time>
      </trkpt>
      <trkpt lat="43.03439" lon="-1.01998">
        <ele>1224.16</ele>
        <time>2024-05-29T21:22:06.347Z</time>
      </trkpt>
      <trkpt lat="43.03444" lon="-1.01972">
        <ele>1220.79</ele>
        <time>2024-05-29T21:22:12.058Z</time>
      </trkpt>
      <trkpt lat="43.03449" lon="-1.01922">
        <ele>1217.05</ele>
        <time>2024-05-29T21:22:17.775Z</time>
      </trkpt>
      <trkpt lat="43.03457" lon="-1.01887">
        <ele>1213.36</ele>
        <time>2024-05-29T21:22:23.497Z</time>
      </trkpt>
      <trkpt lat="43.03473" lon="-1.0185">
        <ele>1209.61</ele>
        <time>2024-05-29T21:22:29.224Z</time>
      </trkpt>
      <trkpt lat="43.03508" lon="-1.01778">
        <ele>1205.64</ele>
        <time>2024-05-29T21:22:34.961Z</time>
      </trkpt>
      <trkpt lat="43.03512" lon="-1.01766">
        <ele>1201.73</ele>
        <time>2024-05-29T21:22:40.699Z</time>
      </trkpt>
      <trkpt lat="43.03514" lon="-1.01753">
        <ele>1197.69</ele>
        <time>2024-05-29T21:22:46.439Z</time>
      </trkpt>
      <trkpt lat="43.03513" lon="-1.01741">
        <ele>1193.49</ele>
        <time>2024-05-29T21:22:52.180Z</time>
      </trkpt>
      <trkpt lat="43.035" lon="-1.01681">
        <ele>1188.82</ele>
        <time>2024-05-29T21:22:57.929Z</time>
      </trkpt>
      <trkpt lat="43.03489" lon="-1.01619">
        <ele>1184.18</ele>
        <time>2024-05-29T21:23:03.685Z</time>
      </trkpt>
      <trkpt lat="43.03477" lon="-1.01564">
        <ele>1179.59</ele>
        <time>2024-05-29T21:23:09.448Z</time>
      </trkpt>
      <trkpt lat="43.03469" lon="-1.01504">
        <ele>1174.89</ele>
        <time>2024-05-29T21:23:15.218Z</time>
      </trkpt>
      <trkpt lat="43.03447" lon="-1.014">
        <ele>1170.11</ele>
        <time>2024-05-29T21:23:21.001Z</time>
      </trkpt>
      <trkpt lat="43.03426" lon="-1.0132">
        <ele>1165.21</ele>
        <time>2024-05-29T21:23:26.794Z</time>
      </trkpt>
      <trkpt lat="43.03418" lon="-1.01294">
        <ele>1160.68</ele>
        <time>2024-05-29T21:23:32.590Z</time>
      </trkpt>
      <trkpt lat="43.03363" lon="-1.01185">
        <ele>1155.49</ele>
        <time>2024-05-29T21:23:38.402Z</time>
      </trkpt>
      <trkpt lat="43.03357" lon="-1.01163">
        <ele>1151.09</ele>
        <time>2024-05-29T21:23:44.216Z</time>
      </trkpt>
      <trkpt lat="43.0335" lon="-1.01124">
        <ele>1146.76</ele>
        <time>2024-05-29T21:23:50.035Z</time>
      </trkpt>
      <trkpt lat="43.03349" lon="-1.0108">
        <ele>1142.38</ele>
        <time>2024-05-29T21:23:55.859Z</time>
      </trkpt>
      <trkpt lat="43.03347" lon="-1.01061">
        <ele>1138.07</ele>
        <time>2024-05-29T21:24:01.685Z</time>
      </trkpt>
      <trkpt lat="43.0334" lon="-1.0102">
        <ele>1133.59</ele>
        <time>2024-05-29T21:24:07.516Z</time>
      </trkpt>
      <trkpt lat="43.03341" lon="-1.01002">
        <ele>1129.53</ele>
        <time>2024-05-29T21:24:13.350Z</time>
      </trkpt>
      <trkpt lat="43.03344" lon="-1.00986">
        <ele>1125.62</ele>
        <time>2024-05-29T21:24:19.185Z</time>
      </trkpt>
      <trkpt lat="43.0335" lon="-1.00967">
        <ele>1121.74</ele>
        <time>2024-05-29T21:24:25.023Z</time>
      </trkpt>
      <trkpt lat="43.03356" lon="-1.00955">
        <ele>1118</ele>
        <time>2024-05-29T21:24:30.863Z</time>
      </trkpt>
      <trkpt lat="43.03365" lon="-1.00946">
        <ele>1114.4</ele>
        <time>2024-05-29T21:24:36.704Z</time>
      </trkpt>
      <trkpt lat="43.03383" lon="-1.00936">
        <ele>1110.91</ele>
        <time>2024-05-29T21:24:42.548Z</time>
      </trkpt>
      <trkpt lat="43.03388" lon="-1.0093">
        <ele>1107.42</ele>
        <time>2024-05-29T21:24:48.394Z</time>
      </trkpt>
      <trkpt lat="43.03393" lon="-1.00918">
        <ele>1103.9</ele>
        <time>2024-05-29T21:24:54.241Z</time>
      </trkpt>
      <trkpt lat="43.0339" lon="-1.00898">
        <ele>1100.4</ele>
        <time>2024-05-29T21:25:00.091Z</time>
      </trkpt>
      <trkpt lat="43.03373" lon="-1.00855">
        <ele>1096.7</ele>
        <time>2024-05-29T21:25:05.946Z</time>
      </trkpt>
      <trkpt lat="43.03369" lon="-1.00849">
        <ele>1093.55</ele>
        <time>2024-05-29T21:25:11.802Z</time>
      </trkpt>
      <trkpt lat="43.03331" lon="-1.00804">
        <ele>1090.38</ele>
        <time>2024-05-29T21:25:17.666Z</time>
      </trkpt>
      <trkpt lat="43.03322" lon="-1.00798">
        <ele>1087.4</ele>
        <time>2024-05-29T21:25:23.532Z</time>
      </trkpt>
      <trkpt lat="43.03317" lon="-1.00797">
        <ele>1084.48</ele>
        <time>2024-05-29T21:25:29.399Z</time>
      </trkpt>
      <trkpt lat="43.0331" lon="-1.008">
        <ele>1081.6</ele>
        <time>2024-05-29T21:25:35.267Z</time>
      </trkpt>
      <trkpt lat="43.03304" lon="-1.00805">
        <ele>1078.79</ele>
        <time>2024-05-29T21:25:41.136Z</time>
      </trkpt>
      <trkpt lat="43.0327" lon="-1.00861">
        <ele>1075.85</ele>
        <time>2024-05-29T21:25:47.014Z</time>
      </trkpt>
      <trkpt lat="43.03261" lon="-1.00897">
        <ele>1073.21</ele>
        <time>2024-05-29T21:25:52.896Z</time>
      </trkpt>
      <trkpt lat="43.03245" lon="-1.00934">
        <ele>1070.29</ele>
        <time>2024-05-29T21:25:58.783Z</time>
      </trkpt>
      <trkpt lat="43.03231" lon="-1.00972">
        <ele>1067.41</ele>
        <time>2024-05-29T21:26:04.675Z</time>
      </trkpt>
      <trkpt lat="43.03203" lon="-1.0103">
        <ele>1064.26</ele>
        <time>2024-05-29T21:26:10.575Z</time>
      </trkpt>
      <trkpt lat="43.03199" lon="-1.01044">
        <ele>1061.5</ele>
        <time>2024-05-29T21:26:16.477Z</time>
      </trkpt>
      <trkpt lat="43.03198" lon="-1.01059">
        <ele>1058.76</ele>
        <time>2024-05-29T21:26:22.381Z</time>
      </trkpt>
      <trkpt lat="43.03199" lon="-1.0108">
        <ele>1055.99</ele>
        <time>2024-05-29T21:26:28.287Z</time>
      </trkpt>
      <trkpt lat="43.03206" lon="-1.01132">
        <ele>1053.14</ele>
        <time>2024-05-29T21:26:34.199Z</time>
      </trkpt>
      <trkpt lat="43.03226" lon="-1.01182">
        <ele>1050.53</ele>
        <time>2024-05-29T21:26:40.118Z</time>
      </trkpt>
      <trkpt lat="43.03228" lon="-1.01191">
        <ele>1047.79</ele>
        <time>2024-05-29T21:26:46.038Z</time>
      </trkpt>
      <trkpt lat="43.03225" lon="-1.01199">
        <ele>1044.9</ele>
        <time>2024-05-29T21:26:51.959Z</time>
      </trkpt>
      <trkpt lat="43.03219" lon="-1.01201">
        <ele>1042</ele>
        <time>2024-05-29T21:26:57.881Z</time>
      </trkpt>
      <trkpt lat="43.03213" lon="-1.01199">
        <ele>1039.09</ele>
        <time>2024-05-29T21:27:03.804Z</time>
      </trkpt>
      <trkpt lat="43.03179" lon="-1.01158">
        <ele>1036.04</ele>
        <time>2024-05-29T21:27:09.734Z</time>
      </trkpt>
      <trkpt lat="43.03153" lon="-1.01132">
        <ele>1033.04</ele>
        <time>2024-05-29T21:27:15.670Z</time>
      </trkpt>
      <trkpt lat="43.03143" lon="-1.0112">
        <ele>1030.08</ele>
        <time>2024-05-29T21:27:21.608Z</time>
      </trkpt>
      <trkpt lat="43.03134" lon="-1.01104">
        <ele>1027.09</ele>
        <time>2024-05-29T21:27:27.548Z</time>
      </trkpt>
      <trkpt lat="43.0312" lon="-1.01063">
        <ele>1023.93</ele>
        <time>2024-05-29T21:27:33.493Z</time>
      </trkpt>
      <trkpt lat="43.03116" lon="-1.00998">
        <ele>1020.44</ele>
        <time>2024-05-29T21:27:39.446Z</time>
      </trkpt>
      <trkpt lat="43.03103" lon="-1.00922">
        <ele>1016.78</ele>
        <time>2024-05-29T21:27:45.408Z</time>
      </trkpt>
      <trkpt lat="43.03096" lon="-1.00906">
        <ele>1013.4</ele>
        <time>2024-05-29T21:27:51.372Z</time>
      </trkpt>
      <trkpt lat="43.03074" lon="-1.00869">
        <ele>1009.82</ele>
        <time>2024-05-29T21:27:57.342Z</time>
      </trkpt>
      <trkpt lat="43.03059" lon="-1.00833">
        <ele>1006.31</ele>
        <time>2024-05-29T21:28:03.317Z</time>
      </trkpt>
      <trkpt lat="43.03057" lon="-1.00825">
        <ele>1002.86</ele>
        <time>2024-05-29T21:28:09.293Z</time>
      </trkpt>
      <trkpt lat="43.03051" lon="-1.00795">
        <ele>999.34</ele>
        <time>2024-05-29T21:28:15.273Z</time>
      </trkpt>
      <trkpt lat="43.0304" lon="-1.00721">
        <ele>995.31</ele>
        <time>2024-05-29T21:28:21.261Z</time>
      </trkpt>
      <trkpt lat="43.0303" lon="-1.00674">
        <ele>991.38</ele>
        <time>2024-05-29T21:28:27.255Z</time>
      </trkpt>
      <trkpt lat="43.03028" lon="-1.00654">
        <ele>987.62</ele>
        <time>2024-05-29T21:28:33.252Z</time>
      </trkpt>
      <trkpt lat="43.03028" lon="-1.0063">
        <ele>983.74</ele>
        <time>2024-05-29T21:28:39.251Z</time>
      </trkpt>
      <trkpt lat="43.0303" lon="-1.00605">
        <ele>979.79</ele>
        <time>2024-05-29T21:28:45.253Z</time>
      </trkpt>
      <trkpt lat="43.03039" lon="-1.00547">
        <ele>975.88</ele>
        <time>2024-05-29T21:28:51.262Z</time>
      </trkpt>
      <trkpt lat="43.03039" lon="-1.00532">
        <ele>971.94</ele>
        <time>2024-05-29T21:28:57.273Z</time>
      </trkpt>
      <trkpt lat="43.03036" lon="-1.00521">
        <ele>967.89</ele>
        <time>2024-05-29T21:29:03.285Z</time>
      </trkpt>
      <trkpt lat="43.03026" lon="-1.00496">
        <ele>963.66</ele>
        <time>2024-05-29T21:29:09.301Z</time>
      </trkpt>
      <trkpt lat="43.02991" lon="-1.00431">
        <ele>959.29</ele>
        <time>2024-05-29T21:29:15.326Z</time>
      </trkpt>
      <trkpt lat="43.02958" lon="-1.00384">
        <ele>954.63</ele>
        <time>2024-05-29T21:29:21.359Z</time>
      </trkpt>
      <trkpt lat="43.02953" lon="-1.00372">
        <ele>950.5</ele>
        <time>2024-05-29T21:29:27.393Z</time>
      </trkpt>
      <trkpt lat="43.02947" lon="-1.00327">
        <ele>946.38</ele>
        <time>2024-05-29T21:29:33.433Z</time>
      </trkpt>
      <trkpt lat="43.02939" lon="-1.00288">
        <ele>942.02</ele>
        <time>2024-05-29T21:29:39.478Z</time>
      </trkpt>
      <trkpt lat="43.02931" lon="-1.00151">
        <ele>937.26</ele>
        <time>2024-05-29T21:29:45.539Z</time>
      </trkpt>
      <trkpt lat="43.02926" lon="-1.00119">
        <ele>933</ele>
        <time>2024-05-29T21:29:51.604Z</time>
      </trkpt>
      <trkpt lat="43.0292" lon="-1.00102">
        <ele>928.72</ele>
        <time>2024-05-29T21:29:57.671Z</time>
      </trkpt>
      <trkpt lat="43.02909" lon="-1.00086">
        <ele>924.37</ele>
        <time>2024-05-29T21:30:03.740Z</time>
      </trkpt>
      <trkpt lat="43.02874" lon="-1.00043">
        <ele>919.79</ele>
        <time>2024-05-29T21:30:09.817Z</time>
      </trkpt>
      <trkpt lat="43.02851" lon="-1">
        <ele>915.85</ele>
        <time>2024-05-29T21:30:15.900Z</time>
      </trkpt>
      <trkpt lat="43.02842" lon="-0.99994">
        <ele>911.82</ele>
        <time>2024-05-29T21:30:21.985Z</time>
      </trkpt>
      <trkpt lat="43.02832" lon="-0.9999">
        <ele>907.87</ele>
        <time>2024-05-29T21:30:28.071Z</time>
      </trkpt>
      <trkpt lat="43.02821" lon="-0.99989">
        <ele>903.95</ele>
        <time>2024-05-29T21:30:34.159Z</time>
      </trkpt>
      <trkpt lat="43.02784" lon="-0.99997">
        <ele>899.54</ele>
        <time>2024-05-29T21:30:40.253Z</time>
      </trkpt>
      <trkpt lat="43.02765" lon="-0.99995">
        <ele>895.4</ele>
        <time>2024-05-29T21:30:46.350Z</time>
      </trkpt>
      <trkpt lat="43.02752" lon="-0.99989">
        <ele>891.51</ele>
        <time>2024-05-29T21:30:52.449Z</time>
      </trkpt>
      <trkpt lat="43.02726" lon="-0.99975">
        <ele>887.55</ele>
        <time>2024-05-29T21:30:58.553Z</time>
      </trkpt>
      <trkpt lat="43.02706" lon="-0.9996">
        <ele>883.75</ele>
        <time>2024-05-29T21:31:04.660Z</time>
      </trkpt>
      <trkpt lat="43.02664" lon="-0.99919">
        <ele>879.73</ele>
        <time>2024-05-29T21:31:10.776Z</time>
      </trkpt>
      <trkpt lat="43.02658" lon="-0.99908">
        <ele>876.15</ele>
        <time>2024-05-29T21:31:16.893Z</time>
      </trkpt>
      <trkpt lat="43.02656" lon="-0.99902">
        <ele>872.72</ele>
        <time>2024-05-29T21:31:23.011Z</time>
      </trkpt>
      <trkpt lat="43.02652" lon="-0.99889">
        <ele>869.29</ele>
        <time>2024-05-29T21:31:29.131Z</time>
      </trkpt>
      <trkpt lat="43.02649" lon="-0.99871">
        <ele>865.93</ele>
        <time>2024-05-29T21:31:35.253Z</time>
      </trkpt>
      <trkpt lat="43.02649" lon="-0.99852">
        <ele>862.66</ele>
        <time>2024-05-29T21:31:41.377Z</time>
      </trkpt>
      <trkpt lat="43.0265" lon="-0.99835">
        <ele>859.46</ele>
        <time>2024-05-29T21:31:47.503Z</time>
      </trkpt>
      <trkpt lat="43.02666" lon="-0.99807">
        <ele>856.53</ele>
        <time>2024-05-29T21:31:53.633Z</time>
      </trkpt>
      <trkpt lat="43.0267" lon="-0.99795">
        <ele>853.57</ele>
        <time>2024-05-29T21:31:59.765Z</time>
      </trkpt>
      <trkpt lat="43.02671" lon="-0.99781">
        <ele>850.65</ele>
        <time>2024-05-29T21:32:05.899Z</time>
      </trkpt>
      <trkpt lat="43.02669" lon="-0.99765">
        <ele>847.71</ele>
        <time>2024-05-29T21:32:12.034Z</time>
      </trkpt>
      <trkpt lat="43.02664" lon="-0.99755">
        <ele>844.82</ele>
        <time>2024-05-29T21:32:18.171Z</time>
      </trkpt>
      <trkpt lat="43.02629" lon="-0.99693">
        <ele>841.58</ele>
        <time>2024-05-29T21:32:24.317Z</time>
      </trkpt>
      <trkpt lat="43.02622" lon="-0.99672">
        <ele>838.83</ele>
        <time>2024-05-29T21:32:30.466Z</time>
      </trkpt>
      <trkpt lat="43.0262" lon="-0.99653">
        <ele>836.23</ele>
        <time>2024-05-29T21:32:36.617Z</time>
      </trkpt>
      <trkpt lat="43.02622" lon="-0.99629">
        <ele>833.72</ele>
        <time>2024-05-29T21:32:42.771Z</time>
      </trkpt>
      <trkpt lat="43.0263" lon="-0.99585">
        <ele>831.12</ele>
        <time>2024-05-29T21:32:48.930Z</time>
      </trkpt>
      <trkpt lat="43.02634" lon="-0.9954">
        <ele>828.33</ele>
        <time>2024-05-29T21:32:55.094Z</time>
      </trkpt>
      <trkpt lat="43.02639" lon="-0.99517">
        <ele>825.79</ele>
        <time>2024-05-29T21:33:01.261Z</time>
      </trkpt>
      <trkpt lat="43.02637" lon="-0.9951">
        <ele>823.53</ele>
        <time>2024-05-29T21:33:07.429Z</time>
      </trkpt>
      <trkpt lat="43.02632" lon="-0.99506">
        <ele>821.37</ele>
        <time>2024-05-29T21:33:13.598Z</time>
      </trkpt>
      <trkpt lat="43.02628" lon="-0.99507">
        <ele>819.36</ele>
        <time>2024-05-29T21:33:19.768Z</time>
      </trkpt>
      <trkpt lat="43.02622" lon="-0.99511">
        <ele>817.4</ele>
        <time>2024-05-29T21:33:25.939Z</time>
      </trkpt>
      <trkpt lat="43.02613" lon="-0.99527">
        <ele>815.54</ele>
        <time>2024-05-29T21:33:32.112Z</time>
      </trkpt>
      <trkpt lat="43.02599" lon="-0.99565">
        <ele>813.84</ele>
        <time>2024-05-29T21:33:38.290Z</time>
      </trkpt>
      <trkpt lat="43.02591" lon="-0.99582">
        <ele>812.03</ele>
        <time>2024-05-29T21:33:44.471Z</time>
      </trkpt>
      <trkpt lat="43.02559" lon="-0.99621">
        <ele>809.87</ele>
        <time>2024-05-29T21:33:50.658Z</time>
      </trkpt>
      <trkpt lat="43.02549" lon="-0.99638">
        <ele>808.01</ele>
        <time>2024-05-29T21:33:56.848Z</time>
      </trkpt>
      <trkpt lat="43.02545" lon="-0.99659">
        <ele>806.29</ele>
        <time>2024-05-29T21:34:03.041Z</time>
      </trkpt>
      <trkpt lat="43.02544" lon="-0.9968">
        <ele>804.59</ele>
        <time>2024-05-29T21:34:09.236Z</time>
      </trkpt>
      <trkpt lat="43.02547" lon="-0.99703">
        <ele>802.86</ele>
        <time>2024-05-29T21:34:15.434Z</time>
      </trkpt>
      <trkpt lat="43.02566" lon="-0.99748">
        <ele>801.4</ele>
        <time>2024-05-29T21:34:21.638Z</time>
      </trkpt>
      <trkpt lat="43.02569" lon="-0.99761">
        <ele>799.79</ele>
        <time>2024-05-29T21:34:27.843Z</time>
      </trkpt>
      <trkpt lat="43.02568" lon="-0.99772">
        <ele>798.14</ele>
        <time>2024-05-29T21:34:34.050Z</time>
      </trkpt>
      <trkpt lat="43.02565" lon="-0.99778">
        <ele>796.44</ele>
        <time>2024-05-29T21:34:40.258Z</time>
      </trkpt>
      <trkpt lat="43.02549" lon="-0.99802">
        <ele>794.42</ele>
        <time>2024-05-29T21:34:46.469Z</time>
      </trkpt>
      <trkpt lat="43.02541" lon="-0.99826">
        <ele>792.58</ele>
        <time>2024-05-29T21:34:52.683Z</time>
      </trkpt>
      <trkpt lat="43.02517" lon="-0.99918">
        <ele>790.43</ele>
        <time>2024-05-29T21:34:58.909Z</time>
      </trkpt>
      <trkpt lat="43.02516" lon="-0.99936">
        <ele>788.68</ele>
        <time>2024-05-29T21:35:05.137Z</time>
      </trkpt>
      <trkpt lat="43.02517" lon="-0.99954">
        <ele>786.96</ele>
        <time>2024-05-29T21:35:11.367Z</time>
      </trkpt>
      <trkpt lat="43.02521" lon="-0.99971">
        <ele>785.26</ele>
        <time>2024-05-29T21:35:17.599Z</time>
      </trkpt>
      <trkpt lat="43.02527" lon="-0.99987">
        <ele>783.61</ele>
        <time>2024-05-29T21:35:23.833Z</time>
      </trkpt>
      <trkpt lat="43.02551" lon="-1.0002">
        <ele>781.76</ele>
        <time>2024-05-29T21:35:30.073Z</time>
      </trkpt>
      <trkpt lat="43.0257" lon="-1.0006">
        <ele>780.1</ele>
        <time>2024-05-29T21:35:36.318Z</time>
      </trkpt>
      <trkpt lat="43.02581" lon="-1.00092">
        <ele>778.33</ele>
        <time>2024-05-29T21:35:42.568Z</time>
      </trkpt>
      <trkpt lat="43.02585" lon="-1.00109">
        <ele>776.69</ele>
        <time>2024-05-29T21:35:48.820Z</time>
      </trkpt>
      <trkpt lat="43.02586" lon="-1.00118">
        <ele>774.97</ele>
        <time>2024-05-29T21:35:55.073Z</time>
      </trkpt>
      <trkpt lat="43.02582" lon="-1.00128">
        <ele>773.17</ele>
        <time>2024-05-29T21:36:01.327Z</time>
      </trkpt>
      <trkpt lat="43.02574" lon="-1.00137">
        <ele>771.3</ele>
        <time>2024-05-29T21:36:07.583Z</time>
      </trkpt>
      <trkpt lat="43.02551" lon="-1.0015">
        <ele>769.12</ele>
        <time>2024-05-29T21:36:13.843Z</time>
      </trkpt>
      <trkpt lat="43.02527" lon="-1.00167">
        <ele>766.76</ele>
        <time>2024-05-29T21:36:20.107Z</time>
      </trkpt>
      <trkpt lat="43.0252" lon="-1.00169">
        <ele>764.71</ele>
        <time>2024-05-29T21:36:26.372Z</time>
      </trkpt>
      <trkpt lat="43.02512" lon="-1.00161">
        <ele>762.56</ele>
        <time>2024-05-29T21:36:32.639Z</time>
      </trkpt>
      <trkpt lat="43.0251" lon="-1.00152">
        <ele>760.58</ele>
        <time>2024-05-29T21:36:38.907Z</time>
      </trkpt>
      <trkpt lat="43.02512" lon="-1.00143">
        <ele>758.64</ele>
        <time>2024-05-29T21:36:45.176Z</time>
      </trkpt>
      <trkpt lat="43.02519" lon="-1.00137">
        <ele>756.83</ele>
        <time>2024-05-29T21:36:51.446Z</time>
      </trkpt>
      <trkpt lat="43.02535" lon="-1.00127">
        <ele>755.19</ele>
        <time>2024-05-29T21:36:57.719Z</time>
      </trkpt>
      <trkpt lat="43.02539" lon="-1.0012">
        <ele>753.25</ele>
        <time>2024-05-29T21:37:03.993Z</time>
      </trkpt>
      <trkpt lat="43.02541" lon="-1.00111">
        <ele>751.21</ele>
        <time>2024-05-29T21:37:10.268Z</time>
      </trkpt>
      <trkpt lat="43.02541" lon="-1.00103">
        <ele>749.1</ele>
        <time>2024-05-29T21:37:16.544Z</time>
      </trkpt>
      <trkpt lat="43.02538" lon="-1.00093">
        <ele>746.92</ele>
        <time>2024-05-29T21:37:22.821Z</time>
      </trkpt>
      <trkpt lat="43.02528" lon="-1.00076">
        <ele>744.62</ele>
        <time>2024-05-29T21:37:29.101Z</time>
      </trkpt>
      <trkpt lat="43.02518" lon="-1.00064">
        <ele>742.25</ele>
        <time>2024-05-29T21:37:35.383Z</time>
      </trkpt>
      <trkpt lat="43.02499" lon="-1.00046">
        <ele>739.84</ele>
        <time>2024-05-29T21:37:41.669Z</time>
      </trkpt>
      <trkpt lat="43.02466" lon="-1.0002">
        <ele>737.34</ele>
        <time>2024-05-29T21:37:47.961Z</time>
      </trkpt>
      <trkpt lat="43.0245" lon="-1.00001">
        <ele>735.34</ele>
        <time>2024-05-29T21:37:54.256Z</time>
      </trkpt>
      <trkpt lat="43.02437" lon="-0.9998">
        <ele>732.84</ele>
        <time>2024-05-29T21:38:00.555Z</time>
      </trkpt>
      <trkpt lat="43.02436" lon="-0.99973">
        <ele>730.54</ele>
        <time>2024-05-29T21:38:06.854Z</time>
      </trkpt>
      <trkpt lat="43.02431" lon="-0.99947">
        <ele>728.12</ele>
        <time>2024-05-29T21:38:13.157Z</time>
      </trkpt>
      <trkpt lat="43.02432" lon="-0.99833">
        <ele>725.7</ele>
        <time>2024-05-29T21:38:19.473Z</time>
      </trkpt>
      <trkpt lat="43.02431" lon="-0.99815">
        <ele>723.42</ele>
        <time>2024-05-29T21:38:25.791Z</time>
      </trkpt>
      <trkpt lat="43.02424" lon="-0.99796">
        <ele>720.95</ele>
        <time>2024-05-29T21:38:32.112Z</time>
      </trkpt>
      <trkpt lat="43.02406" lon="-0.9976">
        <ele>718.35</ele>
        <time>2024-05-29T21:38:38.438Z</time>
      </trkpt>
      <trkpt lat="43.02395" lon="-0.99727">
        <ele>716</ele>
        <time>2024-05-29T21:38:44.768Z</time>
      </trkpt>
      <trkpt lat="43.02389" lon="-0.99662">
        <ele>713.81</ele>
        <time>2024-05-29T21:38:51.106Z</time>
      </trkpt>
      <trkpt lat="43.02385" lon="-0.99639">
        <ele>711.52</ele>
        <time>2024-05-29T21:38:57.446Z</time>
      </trkpt>
      <trkpt lat="43.0238" lon="-0.99631">
        <ele>709.29</ele>
        <time>2024-05-29T21:39:03.788Z</time>
      </trkpt>
      <trkpt lat="43.02372" lon="-0.9963">
        <ele>707.08</ele>
        <time>2024-05-29T21:39:10.131Z</time>
      </trkpt>
      <trkpt lat="43.02369" lon="-0.99646">
        <ele>705.1</ele>
        <time>2024-05-29T21:39:16.476Z</time>
      </trkpt>
      <trkpt lat="43.02372" lon="-0.99659">
        <ele>703.29</ele>
        <time>2024-05-29T21:39:22.822Z</time>
      </trkpt>
      <trkpt lat="43.02376" lon="-0.99687">
        <ele>701.53</ele>
        <time>2024-05-29T21:39:29.172Z</time>
      </trkpt>
      <trkpt lat="43.02377" lon="-0.99718">
        <ele>699.71</ele>
        <time>2024-05-29T21:39:35.525Z</time>
      </trkpt>
      <trkpt lat="43.02382" lon="-0.99789">
        <ele>697.81</ele>
        <time>2024-05-29T21:39:41.887Z</time>
      </trkpt>
      <trkpt lat="43.02378" lon="-0.99854">
        <ele>696.04</ele>
        <time>2024-05-29T21:39:48.256Z</time>
      </trkpt>
      <trkpt lat="43.02374" lon="-0.99879">
        <ele>694.5</ele>
        <time>2024-05-29T21:39:54.628Z</time>
      </trkpt>
      <trkpt lat="43.02354" lon="-0.99923">
        <ele>692.75</ele>
        <time>2024-05-29T21:40:01.007Z</time>
      </trkpt>
      <trkpt lat="43.0235" lon="-0.99936">
        <ele>691.39</ele>
        <time>2024-05-29T21:40:07.387Z</time>
      </trkpt>
      <trkpt lat="43.02348" lon="-0.99953">
        <ele>690.19</ele>
        <time>2024-05-29T21:40:13.769Z</time>
      </trkpt>
      <trkpt lat="43.02346" lon="-0.99976">
        <ele>689.07</ele>
        <time>2024-05-29T21:40:20.154Z</time>
      </trkpt>
      <trkpt lat="43.02346" lon="-1">
        <ele>688.08</ele>
        <time>2024-05-29T21:40:26.542Z</time>
      </trkpt>
      <trkpt lat="43.0235" lon="-1.00075">
        <ele>686.93</ele>
        <time>2024-05-29T21:40:32.939Z</time>
      </trkpt>
      <trkpt lat="43.02353" lon="-1.00088">
        <ele>686.13</ele>
        <time>2024-05-29T21:40:39.337Z</time>
      </trkpt>
      <trkpt lat="43.02358" lon="-1.00102">
        <ele>685.43</ele>
        <time>2024-05-29T21:40:45.737Z</time>
      </trkpt>
      <trkpt lat="43.02374" lon="-1.0012">
        <ele>685</ele>
        <time>2024-05-29T21:40:52.140Z</time>
      </trkpt>
      <trkpt lat="43.0238" lon="-1.0013">
        <ele>684.57</ele>
        <time>2024-05-29T21:40:58.545Z</time>
      </trkpt>
      <trkpt lat="43.02381" lon="-1.00169">
        <ele>683.95</ele>
        <time>2024-05-29T21:41:04.954Z</time>
      </trkpt>
      <trkpt lat="43.02384" lon="-1.00189">
        <ele>683.59</ele>
        <time>2024-05-29T21:41:11.366Z</time>
      </trkpt>
      <trkpt lat="43.02387" lon="-1.00203">
        <ele>683.28</ele>
        <time>2024-05-29T21:41:17.780Z</time>
      </trkpt>
      <trkpt lat="43.02394" lon="-1.0022">
        <ele>683.11</ele>
        <time>2024-05-29T21:41:24.196Z</time>
      </trkpt>
      <trkpt lat="43.02409" lon="-1.00247">
        <ele>683.03</ele>
        <time>2024-05-29T21:41:30.616Z</time>
      </trkpt>
      <trkpt lat="43.02415" lon="-1.0028">
        <ele>682.86</ele>
        <time>2024-05-29T21:41:37.040Z</time>
      </trkpt>
      <trkpt lat="43.02406" lon="-1.00349">
        <ele>682.73</ele>
        <time>2024-05-29T21:41:43.472Z</time>
      </trkpt>
      <trkpt lat="43.02405" lon="-1.00375">
        <ele>682.5</ele>
        <time>2024-05-29T21:41:49.907Z</time>
      </trkpt>
      <trkpt lat="43.02401" lon="-1.00396">
        <ele>682.2</ele>
        <time>2024-05-29T21:41:56.345Z</time>
      </trkpt>
      <trkpt lat="43.02383" lon="-1.00436">
        <ele>681.72</ele>
        <time>2024-05-29T21:42:02.788Z</time>
      </trkpt>
      <trkpt lat="43.02376" lon="-1.00446">
        <ele>681.22</ele>
        <time>2024-05-29T21:42:09.233Z</time>
      </trkpt>
      <trkpt lat="43.02367" lon="-1.00451">
        <ele>680.79</ele>
        <time>2024-05-29T21:42:15.679Z</time>
      </trkpt>
      <trkpt lat="43.02361" lon="-1.00448">
        <ele>680.29</ele>
        <time>2024-05-29T21:42:22.126Z</time>
      </trkpt>
      <trkpt lat="43.02357" lon="-1.00438">
        <ele>679.64</ele>
        <time>2024-05-29T21:42:28.575Z</time>
      </trkpt>
      <trkpt lat="43.02353" lon="-1.00398">
        <ele>678.79</ele>
        <time>2024-05-29T21:42:35.028Z</time>
      </trkpt>
      <trkpt lat="43.02358" lon="-1.00364">
        <ele>677.84</ele>
        <time>2024-05-29T21:42:41.485Z</time>
      </trkpt>
      <trkpt lat="43.02357" lon="-1.00348">
        <ele>676.9</ele>
        <time>2024-05-29T21:42:47.944Z</time>
      </trkpt>
      <trkpt lat="43.0234" lon="-1.00311">
        <ele>675.81</ele>
        <time>2024-05-29T21:42:54.408Z</time>
      </trkpt>
      <trkpt lat="43.02333" lon="-1.00294">
        <ele>674.77</ele>
        <time>2024-05-29T21:43:00.875Z</time>
      </trkpt>
      <trkpt lat="43.02313" lon="-1.00259">
        <ele>673.66</ele>
        <time>2024-05-29T21:43:07.347Z</time>
      </trkpt>
      <trkpt lat="43.02302" lon="-1.00226">
        <ele>672.22</ele>
        <time>2024-05-29T21:43:13.823Z</time>
      </trkpt>
      <trkpt lat="43.02294" lon="-1.00211">
        <ele>670.55</ele>
        <time>2024-05-29T21:43:20.301Z</time>
      </trkpt>
      <trkpt lat="43.02261" lon="-1.00166">
        <ele>668.91</ele>
        <time>2024-05-29T21:43:26.787Z</time>
      </trkpt>
      <trkpt lat="43.02253" lon="-1.00141">
        <ele>667.07</ele>
        <time>2024-05-29T21:43:33.276Z</time>
      </trkpt>
      <trkpt lat="43.02246" lon="-1.00108">
        <ele>664.94</ele>
        <time>2024-05-29T21:43:39.769Z</time>
      </trkpt>
      <trkpt lat="43.02246" lon="-1.00076">
        <ele>662.69</ele>
        <time>2024-05-29T21:43:46.266Z</time>
      </trkpt>
      <trkpt lat="43.02243" lon="-1.00049">
        <ele>660.51</ele>
        <time>2024-05-29T21:43:52.766Z</time>
      </trkpt>
      <trkpt lat="43.02224" lon="-1.0001">
        <ele>658.14</ele>
        <time>2024-05-29T21:43:59.272Z</time>
      </trkpt>
      <trkpt lat="43.02205" lon="-0.99961">
        <ele>655.62</ele>
        <time>2024-05-29T21:44:05.784Z</time>
      </trkpt>
      <trkpt lat="43.02201" lon="-0.99946">
        <ele>653.28</ele>
        <time>2024-05-29T21:44:12.298Z</time>
      </trkpt>
      <trkpt lat="43.02197" lon="-0.99931">
        <ele>650.76</ele>
        <time>2024-05-29T21:44:18.814Z</time>
      </trkpt>
      <trkpt lat="43.02188" lon="-0.99865">
        <ele>648.16</ele>
        <time>2024-05-29T21:44:25.338Z</time>
      </trkpt>
      <trkpt lat="43.02181" lon="-0.99837">
        <ele>645.52</ele>
        <time>2024-05-29T21:44:31.865Z</time>
      </trkpt>
      <trkpt lat="43.02173" lon="-0.99815">
        <ele>642.93</ele>
        <time>2024-05-29T21:44:38.395Z</time>
      </trkpt>
      <trkpt lat="43.02138" lon="-0.99736">
        <ele>639.76</ele>
        <time>2024-05-29T21:44:44.936Z</time>
      </trkpt>
      <trkpt lat="43.02129" lon="-0.99704">
        <ele>636.8</ele>
        <time>2024-05-29T21:44:51.481Z</time>
      </trkpt>
      <trkpt lat="43.02118" lon="-0.99674">
        <ele>634.02</ele>
        <time>2024-05-29T21:44:58.030Z</time>
      </trkpt>
      <trkpt lat="43.02103" lon="-0.99638">
        <ele>631.01</ele>
        <time>2024-05-29T21:45:04.584Z</time>
      </trkpt>
      <trkpt lat="43.02072" lon="-0.99587">
        <ele>627.85</ele>
        <time>2024-05-29T21:45:11.145Z</time>
      </trkpt>
      <trkpt lat="43.0206" lon="-0.99561">
        <ele>625.13</ele>
        <time>2024-05-29T21:45:17.710Z</time>
      </trkpt>
      <trkpt lat="43.02054" lon="-0.99541">
        <ele>622.2</ele>
        <time>2024-05-29T21:45:24.278Z</time>
      </trkpt>
      <trkpt lat="43.02053" lon="-0.99528">
        <ele>619.24</ele>
        <time>2024-05-29T21:45:30.847Z</time>
      </trkpt>
      <trkpt lat="43.02054" lon="-0.99516">
        <ele>616.23</ele>
        <time>2024-05-29T21:45:37.418Z</time>
      </trkpt>
      <trkpt lat="43.02059" lon="-0.99491">
        <ele>613.14</ele>
        <time>2024-05-29T21:45:43.992Z</time>
      </trkpt>
      <trkpt lat="43.02073" lon="-0.9945">
        <ele>609.99</ele>
        <time>2024-05-29T21:45:50.571Z</time>
      </trkpt>
      <trkpt lat="43.02075" lon="-0.99439">
        <ele>607.06</ele>
        <time>2024-05-29T21:45:57.151Z</time>
      </trkpt>
      <trkpt lat="43.02079" lon="-0.99385">
        <ele>604.16</ele>
        <time>2024-05-29T21:46:03.738Z</time>
      </trkpt>
      <trkpt lat="43.02103" lon="-0.99319">
        <ele>600.92</ele>
        <time>2024-05-29T21:46:10.333Z</time>
      </trkpt>
      <trkpt lat="43.02107" lon="-0.99264">
        <ele>598.04</ele>
        <time>2024-05-29T21:46:16.935Z</time>
      </trkpt>
      <trkpt lat="43.02117" lon="-0.99228">
        <ele>595</ele>
        <time>2024-05-29T21:46:23.541Z</time>
      </trkpt>
      <trkpt lat="43.0212" lon="-0.99222">
        <ele>592.15</ele>
        <time>2024-05-29T21:46:30.148Z</time>
      </trkpt>
      <trkpt lat="43.02131" lon="-0.99201">
        <ele>589.24</ele>
        <time>2024-05-29T21:46:36.758Z</time>
      </trkpt>
      <trkpt lat="43.02189" lon="-0.99115">
        <ele>586.06</ele>
        <time>2024-05-29T21:46:43.382Z</time>
      </trkpt>
      <trkpt lat="43.02251" lon="-0.99073">
        <ele>583.22</ele>
        <time>2024-05-29T21:46:50.017Z</time>
      </trkpt>
      <trkpt lat="43.02271" lon="-0.99037">
        <ele>580.55</ele>
        <time>2024-05-29T21:46:56.657Z</time>
      </trkpt>
      <trkpt lat="43.02282" lon="-0.99004">
        <ele>577.88</ele>
        <time>2024-05-29T21:47:03.302Z</time>
      </trkpt>
      <trkpt lat="43.023" lon="-0.98938">
        <ele>574.91</ele>
        <time>2024-05-29T21:47:09.955Z</time>
      </trkpt>
      <trkpt lat="43.02295" lon="-0.98907">
        <ele>572.28</ele>
        <time>2024-05-29T21:47:16.611Z</time>
      </trkpt>
      <trkpt lat="43.02314" lon="-0.98849">
        <ele>569.64</ele>
        <time>2024-05-29T21:47:23.275Z</time>
      </trkpt>
      <trkpt lat="43.02331" lon="-0.98776">
        <ele>566.91</ele>
        <time>2024-05-29T21:47:29.948Z</time>
      </trkpt>
      <trkpt lat="43.02341" lon="-0.98756">
        <ele>564.27</ele>
        <time>2024-05-29T21:47:36.624Z</time>
      </trkpt>
      <trkpt lat="43.02356" lon="-0.98735">
        <ele>561.65</ele>
        <time>2024-05-29T21:47:43.303Z</time>
      </trkpt>
      <trkpt lat="43.02363" lon="-0.9872">
        <ele>559.14</ele>
        <time>2024-05-29T21:47:49.984Z</time>
      </trkpt>
      <trkpt lat="43.02364" lon="-0.98705">
        <ele>556.68</ele>
        <time>2024-05-29T21:47:56.667Z</time>
      </trkpt>
      <trkpt lat="43.02359" lon="-0.98688">
        <ele>554.21</ele>
        <time>2024-05-29T21:48:03.352Z</time>
      </trkpt>
      <trkpt lat="43.02312" lon="-0.98634">
        <ele>551.99</ele>
        <time>2024-05-29T21:48:10.047Z</time>
      </trkpt>
      <trkpt lat="43.02305" lon="-0.98621">
        <ele>549.64</ele>
        <time>2024-05-29T21:48:16.744Z</time>
      </trkpt>
      <trkpt lat="43.02297" lon="-0.98598">
        <ele>547.12</ele>
        <time>2024-05-29T21:48:23.444Z</time>
      </trkpt>
      <trkpt lat="43.02294" lon="-0.9855">
        <ele>544.45</ele>
        <time>2024-05-29T21:48:30.150Z</time>
      </trkpt>
      <trkpt lat="43.02296" lon="-0.98518">
        <ele>542.21</ele>
        <time>2024-05-29T21:48:36.859Z</time>
      </trkpt>
      <trkpt lat="43.02301" lon="-0.98499">
        <ele>539.92</ele>
        <time>2024-05-29T21:48:43.571Z</time>
      </trkpt>
      <trkpt lat="43.02332" lon="-0.98431">
        <ele>537.35</ele>
        <time>2024-05-29T21:48:50.292Z</time>
      </trkpt>
      <trkpt lat="43.02438" lon="-0.98288">
        <ele>534.48</ele>
        <time>2024-05-29T21:48:57.037Z</time>
      </trkpt>
      <trkpt lat="43.02526" lon="-0.98145">
        <ele>531.96</ele>
        <time>2024-05-29T21:49:03.804Z</time>
      </trkpt>
      <trkpt lat="43.02532" lon="-0.98117">
        <ele>529.65</ele>
        <time>2024-05-29T21:49:10.574Z</time>
      </trkpt>
      <trkpt lat="43.0254" lon="-0.98043">
        <ele>527.18</ele>
        <time>2024-05-29T21:49:17.353Z</time>
      </trkpt>
      <trkpt lat="43.02541" lon="-0.97995">
        <ele>524.98</ele>
        <time>2024-05-29T21:49:24.138Z</time>
      </trkpt>
      <trkpt lat="43.02546" lon="-0.97975">
        <ele>522.93</ele>
        <time>2024-05-29T21:49:30.925Z</time>
      </trkpt>
      <trkpt lat="43.02559" lon="-0.97938">
        <ele>521.01</ele>
        <time>2024-05-29T21:49:37.717Z</time>
      </trkpt>
      <trkpt lat="43.02572" lon="-0.97918">
        <ele>519.03</ele>
        <time>2024-05-29T21:49:44.512Z</time>
      </trkpt>
      <trkpt lat="43.026" lon="-0.97892">
        <ele>517.09</ele>
        <time>2024-05-29T21:49:51.313Z</time>
      </trkpt>
      <trkpt lat="43.02635" lon="-0.97872">
        <ele>515.02</ele>
        <time>2024-05-29T21:49:58.120Z</time>
      </trkpt>
      <trkpt lat="43.02642" lon="-0.97867">
        <ele>513.14</ele>
        <time>2024-05-29T21:50:04.928Z</time>
      </trkpt>
      <trkpt lat="43.0265" lon="-0.97857">
        <ele>511.3</ele>
        <time>2024-05-29T21:50:11.738Z</time>
      </trkpt>
      <trkpt lat="43.02688" lon="-0.978">
        <ele>509.37</ele>
        <time>2024-05-29T21:50:18.557Z</time>
      </trkpt>
      <trkpt lat="43.02707" lon="-0.97766">
        <ele>507.54</ele>
        <time>2024-05-29T21:50:25.381Z</time>
      </trkpt>
      <trkpt lat="43.02719" lon="-0.97737">
        <ele>506.03</ele>
        <time>2024-05-29T21:50:32.209Z</time>
      </trkpt>
      <trkpt lat="43.02722" lon="-0.97716">
        <ele>504.66</ele>
        <time>2024-05-29T21:50:39.039Z</time>
      </trkpt>
      <trkpt lat="43.02718" lon="-0.97668">
        <ele>503.47</ele>
        <time>2024-05-29T21:50:45.875Z</time>
      </trkpt>
      <trkpt lat="43.02718" lon="-0.97624">
        <ele>502.21</ele>
        <time>2024-05-29T21:50:52.716Z</time>
      </trkpt>
      <trkpt lat="43.02711" lon="-0.97576">
        <ele>501.22</ele>
        <time>2024-05-29T21:50:59.563Z</time>
      </trkpt>
      <trkpt lat="43.02696" lon="-0.97546">
        <ele>500.45</ele>
        <time>2024-05-29T21:51:06.414Z</time>
      </trkpt>
      <trkpt lat="43.02681" lon="-0.97524">
        <ele>499.64</ele>
        <time>2024-05-29T21:51:13.268Z</time>
      </trkpt>
      <trkpt lat="43.02667" lon="-0.97506">
        <ele>499.08</ele>
        <time>2024-05-29T21:51:20.126Z</time>
      </trkpt>
      <trkpt lat="43.02622" lon="-0.97477">
        <ele>498.62</ele>
        <time>2024-05-29T21:51:26.992Z</time>
      </trkpt>
      <trkpt lat="43.02609" lon="-0.97465">
        <ele>498.44</ele>
        <time>2024-05-29T21:51:33.860Z</time>
      </trkpt>
      <trkpt lat="43.02591" lon="-0.97432">
        <ele>498.37</ele>
        <time>2024-05-29T21:51:40.733Z</time>
      </trkpt>
      <trkpt lat="43.02543" lon="-0.97314">
        <ele>498.19</ele>
        <time>2024-05-29T21:51:47.622Z</time>
      </trkpt>
      <trkpt lat="43.02525" lon="-0.97249">
        <ele>498.38</ele>
        <time>2024-05-29T21:51:54.519Z</time>
      </trkpt>
      <trkpt lat="43.02517" lon="-0.97213">
        <ele>498.88</ele>
        <time>2024-05-29T21:52:01.420Z</time>
      </trkpt>
      <trkpt lat="43.02509" lon="-0.97192">
        <ele>499.59</ele>
        <time>2024-05-29T21:52:08.324Z</time>
      </trkpt>
      <trkpt lat="43.02498" lon="-0.97177">
        <ele>500.39</ele>
        <time>2024-05-29T21:52:15.231Z</time>
      </trkpt>
      <trkpt lat="43.02473" lon="-0.97172">
        <ele>501.38</ele>
        <time>2024-05-29T21:52:22.142Z</time>
      </trkpt>
      <trkpt lat="43.02454" lon="-0.9716">
        <ele>502.53</ele>
        <time>2024-05-29T21:52:29.056Z</time>
      </trkpt>
      <trkpt lat="43.02437" lon="-0.97141">
        <ele>504.03</ele>
        <time>2024-05-29T21:52:35.973Z</time>
      </trkpt>
      <trkpt lat="43.02422" lon="-0.97112">
        <ele>505.57</ele>
        <time>2024-05-29T21:52:42.895Z</time>
      </trkpt>
      <trkpt lat="43.02405" lon="-0.97067">
        <ele>507.21</ele>
        <time>2024-05-29T21:52:49.823Z</time>
      </trkpt>
      <trkpt lat="43.02387" lon="-0.97043">
        <ele>509.06</ele>
        <time>2024-05-29T21:52:56.755Z</time>
      </trkpt>
      <trkpt lat="43.02347" lon="-0.96981">
        <ele>510.53</ele>
        <time>2024-05-29T21:53:03.696Z</time>
      </trkpt>
      <trkpt lat="43.02335" lon="-0.96971">
        <ele>512.69</ele>
        <time>2024-05-29T21:53:10.640Z</time>
      </trkpt>
      <trkpt lat="43.02293" lon="-0.96952">
        <ele>515.25</ele>
        <time>2024-05-29T21:53:17.591Z</time>
      </trkpt>
      <trkpt lat="43.0228" lon="-0.96955">
        <ele>517.49</ele>
        <time>2024-05-29T21:53:24.544Z</time>
      </trkpt>
      <trkpt lat="43.02265" lon="-0.96967">
        <ele>519.94</ele>
        <time>2024-05-29T21:53:31.500Z</time>
      </trkpt>
      <trkpt lat="43.02246" lon="-0.96977">
        <ele>522.23</ele>
        <time>2024-05-29T21:53:38.459Z</time>
      </trkpt>
      <trkpt lat="43.02218" lon="-0.96982">
        <ele>524.53</ele>
        <time>2024-05-29T21:53:45.422Z</time>
      </trkpt>
      <trkpt lat="43.02188" lon="-0.97002">
        <ele>526.96</ele>
        <time>2024-05-29T21:53:52.391Z</time>
      </trkpt>
      <trkpt lat="43.02181" lon="-0.96997">
        <ele>529.28</ele>
        <time>2024-05-29T21:53:59.361Z</time>
      </trkpt>
      <trkpt lat="43.0218" lon="-0.9699">
        <ele>531.54</ele>
        <time>2024-05-29T21:54:06.332Z</time>
      </trkpt>
      <trkpt lat="43.02185" lon="-0.96966">
        <ele>533.96</ele>
        <time>2024-05-29T21:54:13.306Z</time>
      </trkpt>
      <trkpt lat="43.02191" lon="-0.96947">
        <ele>536.26</ele>
        <time>2024-05-29T21:54:20.282Z</time>
      </trkpt>
      <trkpt lat="43.02215" lon="-0.96917">
        <ele>538.16</ele>
        <time>2024-05-29T21:54:27.263Z</time>
      </trkpt>
      <trkpt lat="43.02233" lon="-0.96884">
        <ele>540.19</ele>
        <time>2024-05-29T21:54:34.249Z</time>
      </trkpt>
      <trkpt lat="43.02251" lon="-0.9684">
        <ele>542.26</ele>
        <time>2024-05-29T21:54:41.241Z</time>
      </trkpt>
      <trkpt lat="43.02255" lon="-0.96818">
        <ele>544.39</ele>
        <time>2024-05-29T21:54:48.236Z</time>
      </trkpt>
      <trkpt lat="43.02254" lon="-0.96799">
        <ele>546.66</ele>
        <time>2024-05-29T21:54:55.233Z</time>
      </trkpt>
      <trkpt lat="43.02248" lon="-0.96778">
        <ele>548.98</ele>
        <time>2024-05-29T21:55:02.233Z</time>
      </trkpt>
      <trkpt lat="43.02239" lon="-0.96763">
        <ele>551.29</ele>
        <time>2024-05-29T21:55:09.235Z</time>
      </trkpt>
      <trkpt lat="43.0223" lon="-0.96759">
        <ele>553.59</ele>
        <time>2024-05-29T21:55:16.238Z</time>
      </trkpt>
      <trkpt lat="43.02207" lon="-0.96761">
        <ele>556.03</ele>
        <time>2024-05-29T21:55:23.245Z</time>
      </trkpt>
      <trkpt lat="43.02185" lon="-0.96766">
        <ele>558.46</ele>
        <time>2024-05-29T21:55:30.256Z</time>
      </trkpt>
      <trkpt lat="43.0216" lon="-0.9677">
        <ele>560.86</ele>
        <time>2024-05-29T21:55:37.271Z</time>
      </trkpt>
      <trkpt lat="43.02143" lon="-0.96769">
        <ele>563.27</ele>
        <time>2024-05-29T21:55:44.288Z</time>
      </trkpt>
      <trkpt lat="43.02122" lon="-0.96756">
        <ele>565.73</ele>
        <time>2024-05-29T21:55:51.309Z</time>
      </trkpt>
      <trkpt lat="43.02076" lon="-0.96697">
        <ele>568.37</ele>
        <time>2024-05-29T21:55:58.340Z</time>
      </trkpt>
      <trkpt lat="43.02045" lon="-0.96666">
        <ele>571.07</ele>
        <time>2024-05-29T21:56:05.377Z</time>
      </trkpt>
      <trkpt lat="43.02017" lon="-0.96618">
        <ele>573.48</ele>
        <time>2024-05-29T21:56:12.422Z</time>
      </trkpt>
      <trkpt lat="43.02009" lon="-0.9661">
        <ele>575.87</ele>
        <time>2024-05-29T21:56:19.468Z</time>
      </trkpt>
      <trkpt lat="43.01983" lon="-0.96598">
        <ele>578.37</ele>
        <time>2024-05-29T21:56:26.518Z</time>
      </trkpt>
      <trkpt lat="43.01974" lon="-0.9659">
        <ele>580.73</ele>
        <time>2024-05-29T21:56:33.570Z</time>
      </trkpt>
      <trkpt lat="43.01952" lon="-0.96564">
        <ele>583.09</ele>
        <time>2024-05-29T21:56:40.627Z</time>
      </trkpt>
      <trkpt lat="43.01944" lon="-0.96552">
        <ele>585.32</ele>
        <time>2024-05-29T21:56:47.686Z</time>
      </trkpt>
      <trkpt lat="43.01931" lon="-0.96515">
        <ele>587.54</ele>
        <time>2024-05-29T21:56:54.750Z</time>
      </trkpt>
      <trkpt lat="43.01919" lon="-0.96477">
        <ele>589.88</ele>
        <time>2024-05-29T21:57:01.818Z</time>
      </trkpt>
      <trkpt lat="43.01917" lon="-0.96456">
        <ele>592.13</ele>
        <time>2024-05-29T21:57:08.889Z</time>
      </trkpt>
      <trkpt lat="43.01925" lon="-0.96422">
        <ele>594.34</ele>
        <time>2024-05-29T21:57:15.964Z</time>
      </trkpt>
      <trkpt lat="43.01954" lon="-0.96346">
        <ele>596.56</ele>
        <time>2024-05-29T21:57:23.049Z</time>
      </trkpt>
      <trkpt lat="43.01959" lon="-0.96328">
        <ele>598.71</ele>
        <time>2024-05-29T21:57:30.136Z</time>
      </trkpt>
      <trkpt lat="43.01961" lon="-0.96309">
        <ele>600.83</ele>
        <time>2024-05-29T21:57:37.226Z</time>
      </trkpt>
      <trkpt lat="43.01961" lon="-0.9629">
        <ele>602.88</ele>
        <time>2024-05-29T21:57:44.318Z</time>
      </trkpt>
      <trkpt lat="43.01953" lon="-0.96257">
        <ele>604.81</ele>
        <time>2024-05-29T21:57:51.414Z</time>
      </trkpt>
      <trkpt lat="43.01944" lon="-0.96238">
        <ele>606.76</ele>
        <time>2024-05-29T21:57:58.513Z</time>
      </trkpt>
      <trkpt lat="43.0192" lon="-0.96206">
        <ele>608.86</ele>
        <time>2024-05-29T21:58:05.617Z</time>
      </trkpt>
      <trkpt lat="43.01889" lon="-0.96178">
        <ele>611.12</ele>
        <time>2024-05-29T21:58:12.727Z</time>
      </trkpt>
      <trkpt lat="43.01886" lon="-0.96172">
        <ele>613.04</ele>
        <time>2024-05-29T21:58:19.838Z</time>
      </trkpt>
      <trkpt lat="43.01885" lon="-0.96165">
        <ele>614.91</ele>
        <time>2024-05-29T21:58:26.950Z</time>
      </trkpt>
      <trkpt lat="43.01895" lon="-0.96147">
        <ele>616.67</ele>
        <time>2024-05-29T21:58:34.064Z</time>
      </trkpt>
      <trkpt lat="43.01952" lon="-0.96096">
        <ele>618.35</ele>
        <time>2024-05-29T21:58:41.189Z</time>
      </trkpt>
      <trkpt lat="43.01959" lon="-0.96086">
        <ele>620.05</ele>
        <time>2024-05-29T21:58:48.316Z</time>
      </trkpt>
      <trkpt lat="43.01967" lon="-0.96062">
        <ele>621.84</ele>
        <time>2024-05-29T21:58:55.446Z</time>
      </trkpt>
      <trkpt lat="43.01969" lon="-0.96047">
        <ele>623.48</ele>
        <time>2024-05-29T21:59:02.578Z</time>
      </trkpt>
      <trkpt lat="43.01968" lon="-0.9603">
        <ele>625.11</ele>
        <time>2024-05-29T21:59:09.712Z</time>
      </trkpt>
      <trkpt lat="43.01966" lon="-0.96017">
        <ele>626.68</ele>
        <time>2024-05-29T21:59:16.847Z</time>
      </trkpt>
      <trkpt lat="43.01954" lon="-0.95983">
        <ele>628.26</ele>
        <time>2024-05-29T21:59:23.987Z</time>
      </trkpt>
      <trkpt lat="43.01927" lon="-0.95929">
        <ele>629.8</ele>
        <time>2024-05-29T21:59:31.134Z</time>
      </trkpt>
      <trkpt lat="43.01908" lon="-0.95877">
        <ele>631.17</ele>
        <time>2024-05-29T21:59:38.288Z</time>
      </trkpt>
      <trkpt lat="43.01894" lon="-0.95811">
        <ele>632.4</ele>
        <time>2024-05-29T21:59:45.450Z</time>
      </trkpt>
      <trkpt lat="43.01889" lon="-0.95779">
        <ele>633.6</ele>
        <time>2024-05-29T21:59:52.616Z</time>
      </trkpt>
      <trkpt lat="43.01883" lon="-0.95774">
        <ele>634.67</ele>
        <time>2024-05-29T21:59:59.783Z</time>
      </trkpt>
      <trkpt lat="43.01884" lon="-0.95763">
        <ele>635.61</ele>
        <time>2024-05-29T22:00:06.952Z</time>
      </trkpt>
      <trkpt lat="43.01909" lon="-0.95712">
        <ele>636.5</ele>
        <time>2024-05-29T22:00:14.128Z</time>
      </trkpt>
      <trkpt lat="43.01928" lon="-0.95668">
        <ele>637.35</ele>
        <time>2024-05-29T22:00:21.310Z</time>
      </trkpt>
      <trkpt lat="43.01933" lon="-0.9565">
        <ele>638.02</ele>
        <time>2024-05-29T22:00:28.494Z</time>
      </trkpt>
      <trkpt lat="43.01935" lon="-0.95626">
        <ele>638.58</ele>
        <time>2024-05-29T22:00:35.681Z</time>
      </trkpt>
      <trkpt lat="43.01933" lon="-0.95612">
        <ele>639.01</ele>
        <time>2024-05-29T22:00:42.869Z</time>
      </trkpt>
      <trkpt lat="43.01919" lon="-0.95557">
        <ele>639.26</ele>
        <time>2024-05-29T22:00:50.064Z</time>
      </trkpt>
      <trkpt lat="43.01912" lon="-0.95541">
        <ele>639.45</ele>
        <time>2024-05-29T22:00:57.262Z</time>
      </trkpt>
      <trkpt lat="43.01887" lon="-0.95503">
        <ele>639.5</ele>
        <time>2024-05-29T22:01:04.466Z</time>
      </trkpt>
      <trkpt lat="43.01881" lon="-0.95501">
        <ele>639.44</ele>
        <time>2024-05-29T22:01:11.670Z</time>
      </trkpt>
      <trkpt lat="43.01826" lon="-0.95487">
        <ele>639.13</ele>
        <time>2024-05-29T22:01:18.883Z</time>
      </trkpt>
      <trkpt lat="43.01805" lon="-0.95494">
        <ele>638.92</ele>
        <time>2024-05-29T22:01:26.100Z</time>
      </trkpt>
      <trkpt lat="43.01793" lon="-0.95491">
        <ele>638.52</ele>
        <time>2024-05-29T22:01:33.319Z</time>
      </trkpt>
      <trkpt lat="43.01767" lon="-0.95474">
        <ele>638.01</ele>
        <time>2024-05-29T22:01:40.542Z</time>
      </trkpt>
      <trkpt lat="43.01764" lon="-0.95469">
        <ele>637.34</ele>
        <time>2024-05-29T22:01:47.766Z</time>
      </trkpt>
      <trkpt lat="43.01762" lon="-0.95463">
        <ele>636.53</ele>
        <time>2024-05-29T22:01:54.991Z</time>
      </trkpt>
      <trkpt lat="43.01763" lon="-0.95443">
        <ele>635.58</ele>
        <time>2024-05-29T22:02:02.218Z</time>
      </trkpt>
      <trkpt lat="43.01767" lon="-0.95432">
        <ele>634.49</ele>
        <time>2024-05-29T22:02:09.447Z</time>
      </trkpt>
      <trkpt lat="43.01799" lon="-0.95393">
        <ele>633.13</ele>
        <time>2024-05-29T22:02:16.683Z</time>
      </trkpt>
      <trkpt lat="43.01804" lon="-0.9538">
        <ele>631.77</ele>
        <time>2024-05-29T22:02:23.920Z</time>
      </trkpt>
      <trkpt lat="43.01808" lon="-0.95367">
        <ele>630.29</ele>
        <time>2024-05-29T22:02:31.159Z</time>
      </trkpt>
      <trkpt lat="43.01808" lon="-0.95358">
        <ele>628.72</ele>
        <time>2024-05-29T22:02:38.399Z</time>
      </trkpt>
      <trkpt lat="43.01807" lon="-0.95338">
        <ele>627.03</ele>
        <time>2024-05-29T22:02:45.641Z</time>
      </trkpt>
      <trkpt lat="43.01802" lon="-0.95319">
        <ele>625.24</ele>
        <time>2024-05-29T22:02:52.886Z</time>
      </trkpt>
      <trkpt lat="43.01762" lon="-0.95201">
        <ele>622.74</ele>
        <time>2024-05-29T22:03:00.146Z</time>
      </trkpt>
      <trkpt lat="43.01757" lon="-0.95183">
        <ele>620.61</ele>
        <time>2024-05-29T22:03:07.408Z</time>
      </trkpt>
      <trkpt lat="43.01755" lon="-0.95169">
        <ele>618.4</ele>
        <time>2024-05-29T22:03:14.672Z</time>
      </trkpt>
      <trkpt lat="43.01756" lon="-0.95163">
        <ele>616.15</ele>
        <time>2024-05-29T22:03:21.937Z</time>
      </trkpt>
      <trkpt lat="43.01758" lon="-0.95151">
        <ele>613.76</ele>
        <time>2024-05-29T22:03:29.203Z</time>
      </trkpt>
      <trkpt lat="43.01762" lon="-0.95139">
        <ele>611.32</ele>
        <time>2024-05-29T22:03:36.471Z</time>
      </trkpt>
      <trkpt lat="43.01775" lon="-0.95122">
        <ele>608.76</ele>
        <time>2024-05-29T22:03:43.742Z</time>
      </trkpt>
      <trkpt lat="43.01785" lon="-0.95115">
        <ele>606.15</ele>
        <time>2024-05-29T22:03:51.014Z</time>
      </trkpt>
      <trkpt lat="43.01813" lon="-0.95109">
        <ele>603.42</ele>
        <time>2024-05-29T22:03:58.291Z</time>
      </trkpt>
      <trkpt lat="43.01833" lon="-0.95101">
        <ele>600.7</ele>
        <time>2024-05-29T22:04:05.571Z</time>
      </trkpt>
      <trkpt lat="43.01842" lon="-0.95091">
        <ele>597.91</ele>
        <time>2024-05-29T22:04:12.853Z</time>
      </trkpt>
      <trkpt lat="43.01848" lon="-0.95075">
        <ele>595.01</ele>
        <time>2024-05-29T22:04:20.137Z</time>
      </trkpt>
      <trkpt lat="43.01851" lon="-0.95059">
        <ele>592.06</ele>
        <time>2024-05-29T22:04:27.423Z</time>
      </trkpt>
      <trkpt lat="43.0185" lon="-0.95045">
        <ele>589.1</ele>
        <time>2024-05-29T22:04:34.711Z</time>
      </trkpt>
      <trkpt lat="43.01843" lon="-0.95013">
        <ele>586</ele>
        <time>2024-05-29T22:04:42.003Z</time>
      </trkpt>
      <trkpt lat="43.01827" lon="-0.94962">
        <ele>582.87</ele>
        <time>2024-05-29T22:04:49.301Z</time>
      </trkpt>
      <trkpt lat="43.0182" lon="-0.94929">
        <ele>579.73</ele>
        <time>2024-05-29T22:04:56.603Z</time>
      </trkpt>
      <trkpt lat="43.01815" lon="-0.94895">
        <ele>576.58</ele>
        <time>2024-05-29T22:05:03.909Z</time>
      </trkpt>
      <trkpt lat="43.01815" lon="-0.94888">
        <ele>573.43</ele>
        <time>2024-05-29T22:05:11.216Z</time>
      </trkpt>
      <trkpt lat="43.01816" lon="-0.94877">
        <ele>570.25</ele>
        <time>2024-05-29T22:05:18.524Z</time>
      </trkpt>
      <trkpt lat="43.01818" lon="-0.94865">
        <ele>567.01</ele>
        <time>2024-05-29T22:05:25.834Z</time>
      </trkpt>
      <trkpt lat="43.01845" lon="-0.94757">
        <ele>563.18</ele>
        <time>2024-05-29T22:05:33.157Z</time>
      </trkpt>
      <trkpt lat="43.0187" lon="-0.94688">
        <ele>559.6</ele>
        <time>2024-05-29T22:05:40.489Z</time>
      </trkpt>
      <trkpt lat="43.01872" lon="-0.94676">
        <ele>556.39</ele>
        <time>2024-05-29T22:05:47.823Z</time>
      </trkpt>
      <trkpt lat="43.01853" lon="-0.94577">
        <ele>552.98</ele>
        <time>2024-05-29T22:05:55.169Z</time>
      </trkpt>
      <trkpt lat="43.01851" lon="-0.94561">
        <ele>549.87</ele>
        <time>2024-05-29T22:06:02.517Z</time>
      </trkpt>
      <trkpt lat="43.01853" lon="-0.94546">
        <ele>546.77</ele>
        <time>2024-05-29T22:06:09.867Z</time>
      </trkpt>
      <trkpt lat="43.01859" lon="-0.94534">
        <ele>543.73</ele>
        <time>2024-05-29T22:06:17.218Z</time>
      </trkpt>
      <trkpt lat="43.01867" lon="-0.94524">
        <ele>540.75</ele>
        <time>2024-05-29T22:06:24.571Z</time>
      </trkpt>
      <trkpt lat="43.0188" lon="-0.94518">
        <ele>537.76</ele>
        <time>2024-05-29T22:06:31.926Z</time>
      </trkpt>
      <trkpt lat="43.01914" lon="-0.94506">
        <ele>534.52</ele>
        <time>2024-05-29T22:06:39.287Z</time>
      </trkpt>
      <trkpt lat="43.01922" lon="-0.94501">
        <ele>531.64</ele>
        <time>2024-05-29T22:06:46.649Z</time>
      </trkpt>
      <trkpt lat="43.01928" lon="-0.94493">
        <ele>528.86</ele>
        <time>2024-05-29T22:06:54.013Z</time>
      </trkpt>
      <trkpt lat="43.01935" lon="-0.94475">
        <ele>526.11</ele>
        <time>2024-05-29T22:07:01.379Z</time>
      </trkpt>
      <trkpt lat="43.01939" lon="-0.94456">
        <ele>523.44</ele>
        <time>2024-05-29T22:07:08.747Z</time>
      </trkpt>
      <trkpt lat="43.01939" lon="-0.94439">
        <ele>520.93</ele>
        <time>2024-05-29T22:07:16.117Z</time>
      </trkpt>
      <trkpt lat="43.01937" lon="-0.94424">
        <ele>518.51</ele>
        <time>2024-05-29T22:07:23.489Z</time>
      </trkpt>
      <trkpt lat="43.01931" lon="-0.94411">
        <ele>516.2</ele>
        <time>2024-05-29T22:07:30.863Z</time>
      </trkpt>
      <trkpt lat="43.01908" lon="-0.94394">
        <ele>514.05</ele>
        <time>2024-05-29T22:07:38.241Z</time>
      </trkpt>
      <trkpt lat="43.01901" lon="-0.94383">
        <ele>511.83</ele>
        <time>2024-05-29T22:07:45.621Z</time>
      </trkpt>
      <trkpt lat="43.01895" lon="-0.94372">
        <ele>509.62</ele>
        <time>2024-05-29T22:07:53.002Z</time>
      </trkpt>
      <trkpt lat="43.01892" lon="-0.94356">
        <ele>507.37</ele>
        <time>2024-05-29T22:08:00.385Z</time>
      </trkpt>
      <trkpt lat="43.01886" lon="-0.9427">
        <ele>504.92</ele>
        <time>2024-05-29T22:08:07.778Z</time>
      </trkpt>
      <trkpt lat="43.01889" lon="-0.9425">
        <ele>502.78</ele>
        <time>2024-05-29T22:08:15.174Z</time>
      </trkpt>
      <trkpt lat="43.01897" lon="-0.94224">
        <ele>500.55</ele>
        <time>2024-05-29T22:08:22.573Z</time>
      </trkpt>
      <trkpt lat="43.019" lon="-0.94208">
        <ele>498.44</ele>
        <time>2024-05-29T22:08:29.974Z</time>
      </trkpt>
      <trkpt lat="43.019" lon="-0.94196">
        <ele>496.43</ele>
        <time>2024-05-29T22:08:37.376Z</time>
      </trkpt>
      <trkpt lat="43.01898" lon="-0.94185">
        <ele>494.49</ele>
        <time>2024-05-29T22:08:44.780Z</time>
      </trkpt>
      <trkpt lat="43.01884" lon="-0.94153">
        <ele>492.54</ele>
        <time>2024-05-29T22:08:52.188Z</time>
      </trkpt>
      <trkpt lat="43.01881" lon="-0.94141">
        <ele>490.66</ele>
        <time>2024-05-29T22:08:59.598Z</time>
      </trkpt>
      <trkpt lat="43.01881" lon="-0.94131">
        <ele>488.76</ele>
        <time>2024-05-29T22:09:07.009Z</time>
      </trkpt>
      <trkpt lat="43.01883" lon="-0.94119">
        <ele>486.9</ele>
        <time>2024-05-29T22:09:14.421Z</time>
      </trkpt>
      <trkpt lat="43.01891" lon="-0.941">
        <ele>485.17</ele>
        <time>2024-05-29T22:09:21.836Z</time>
      </trkpt>
      <trkpt lat="43.01897" lon="-0.9409">
        <ele>483.37</ele>
        <time>2024-05-29T22:09:29.252Z</time>
      </trkpt>
      <trkpt lat="43.01937" lon="-0.94036">
        <ele>480.88</ele>
        <time>2024-05-29T22:09:36.677Z</time>
      </trkpt>
      <trkpt lat="43.01944" lon="-0.94025">
        <ele>478.8</ele>
        <time>2024-05-29T22:09:44.104Z</time>
      </trkpt>
      <trkpt lat="43.01948" lon="-0.94009">
        <ele>476.82</ele>
        <time>2024-05-29T22:09:51.533Z</time>
      </trkpt>
      <trkpt lat="43.0195" lon="-0.93993">
        <ele>474.87</ele>
        <time>2024-05-29T22:09:58.964Z</time>
      </trkpt>
      <trkpt lat="43.0195" lon="-0.93903">
        <ele>472.34</ele>
        <time>2024-05-29T22:10:06.406Z</time>
      </trkpt>
      <trkpt lat="43.01941" lon="-0.9383">
        <ele>470.31</ele>
        <time>2024-05-29T22:10:13.856Z</time>
      </trkpt>
      <trkpt lat="43.01937" lon="-0.93815">
        <ele>468.41</ele>
        <time>2024-05-29T22:10:21.308Z</time>
      </trkpt>
      <trkpt lat="43.01925" lon="-0.93799">
        <ele>466.45</ele>
        <time>2024-05-29T22:10:28.763Z</time>
      </trkpt>
      <trkpt lat="43.0192" lon="-0.93796">
        <ele>464.59</ele>
        <time>2024-05-29T22:10:36.219Z</time>
      </trkpt>
      <trkpt lat="43.01904" lon="-0.9379">
        <ele>462.86</ele>
        <time>2024-05-29T22:10:43.677Z</time>
      </trkpt>
      <trkpt lat="43.01856" lon="-0.93781">
        <ele>461.3</ele>
        <time>2024-05-29T22:10:51.143Z</time>
      </trkpt>
      <trkpt lat="43.01848" lon="-0.93778">
        <ele>459.38</ele>
        <time>2024-05-29T22:10:58.610Z</time>
      </trkpt>
      <trkpt lat="43.01841" lon="-0.93774">
        <ele>457.37</ele>
        <time>2024-05-29T22:11:06.079Z</time>
      </trkpt>
      <trkpt lat="43.01836" lon="-0.93768">
        <ele>455.3</ele>
        <time>2024-05-29T22:11:13.549Z</time>
      </trkpt>
      <trkpt lat="43.01834" lon="-0.93758">
        <ele>453.13</ele>
        <time>2024-05-29T22:11:21.020Z</time>
      </trkpt>
      <trkpt lat="43.01836" lon="-0.93748">
        <ele>450.87</ele>
        <time>2024-05-29T22:11:28.492Z</time>
      </trkpt>
      <trkpt lat="43.01841" lon="-0.93736">
        <ele>448.52</ele>
        <time>2024-05-29T22:11:35.966Z</time>
      </trkpt>
      <trkpt lat="43.01856" lon="-0.93713">
        <ele>445.96</ele>
        <time>2024-05-29T22:11:43.443Z</time>
      </trkpt>
      <trkpt lat="43.01859" lon="-0.937">
        <ele>443.65</ele>
        <time>2024-05-29T22:11:50.922Z</time>
      </trkpt>
      <trkpt lat="43.01858" lon="-0.93688">
        <ele>441.37</ele>
        <time>2024-05-29T22:11:58.402Z</time>
      </trkpt>
      <trkpt lat="43.01841" lon="-0.93619">
        <ele>438.99</ele>
        <time>2024-05-29T22:12:05.891Z</time>
      </trkpt>
      <trkpt lat="43.01838" lon="-0.93593">
        <ele>436.76</ele>
        <time>2024-05-29T22:12:13.383Z</time>
      </trkpt>
      <trkpt lat="43.0185" lon="-0.93446">
        <ele>434.41</ele>
        <time>2024-05-29T22:12:20.892Z</time>
      </trkpt>
      <trkpt lat="43.01856" lon="-0.93388">
        <ele>432.17</ele>
        <time>2024-05-29T22:12:28.408Z</time>
      </trkpt>
      <trkpt lat="43.01863" lon="-0.93358">
        <ele>429.76</ele>
        <time>2024-05-29T22:12:35.928Z</time>
      </trkpt>
      <trkpt lat="43.01886" lon="-0.93298">
        <ele>426.83</ele>
        <time>2024-05-29T22:12:43.456Z</time>
      </trkpt>
      <trkpt lat="43.0189" lon="-0.93285">
        <ele>424.63</ele>
        <time>2024-05-29T22:12:50.985Z</time>
      </trkpt>
      <trkpt lat="43.01891" lon="-0.93271">
        <ele>422.53</ele>
        <time>2024-05-29T22:12:58.516Z</time>
      </trkpt>
      <trkpt lat="43.0189" lon="-0.93259">
        <ele>420.43</ele>
        <time>2024-05-29T22:13:06.049Z</time>
      </trkpt>
      <trkpt lat="43.01886" lon="-0.93244">
        <ele>418.46</ele>
        <time>2024-05-29T22:13:13.583Z</time>
      </trkpt>
      <trkpt lat="43.01849" lon="-0.93193">
        <ele>416.95</ele>
        <time>2024-05-29T22:13:21.126Z</time>
      </trkpt>
      <trkpt lat="43.01843" lon="-0.93181">
        <ele>415.25</ele>
        <time>2024-05-29T22:13:28.671Z</time>
      </trkpt>
      <trkpt lat="43.01839" lon="-0.93169">
        <ele>413.5</ele>
        <time>2024-05-29T22:13:36.217Z</time>
      </trkpt>
      <trkpt lat="43.0184" lon="-0.93147">
        <ele>411.56</ele>
        <time>2024-05-29T22:13:43.766Z</time>
      </trkpt>
      <trkpt lat="43.01855" lon="-0.93101">
        <ele>409.39</ele>
        <time>2024-05-29T22:13:51.321Z</time>
      </trkpt>
      <trkpt lat="43.01856" lon="-0.93081">
        <ele>407.7</ele>
        <time>2024-05-29T22:13:58.878Z</time>
      </trkpt>
      <trkpt lat="43.01852" lon="-0.93062">
        <ele>406</ele>
        <time>2024-05-29T22:14:06.437Z</time>
      </trkpt>
      <trkpt lat="43.01832" lon="-0.93033">
        <ele>404.68</ele>
        <time>2024-05-29T22:14:14.001Z</time>
      </trkpt>
      <trkpt lat="43.01825" lon="-0.93019">
        <ele>403.19</ele>
        <time>2024-05-29T22:14:21.567Z</time>
      </trkpt>
      <trkpt lat="43.01819" lon="-0.92999">
        <ele>401.59</ele>
        <time>2024-05-29T22:14:29.135Z</time>
      </trkpt>
      <trkpt lat="43.01817" lon="-0.92983">
        <ele>399.99</ele>
        <time>2024-05-29T22:14:36.705Z</time>
      </trkpt>
      <trkpt lat="43.01826" lon="-0.9295">
        <ele>398.29</ele>
        <time>2024-05-29T22:14:44.280Z</time>
      </trkpt>
      <trkpt lat="43.01846" lon="-0.92905">
        <ele>396.87</ele>
        <time>2024-05-29T22:14:51.861Z</time>
      </trkpt>
      <trkpt lat="43.0186" lon="-0.92866">
        <ele>395.56</ele>
        <time>2024-05-29T22:14:59.447Z</time>
      </trkpt>
      <trkpt lat="43.01862" lon="-0.92853">
        <ele>394.23</ele>
        <time>2024-05-29T22:15:07.034Z</time>
      </trkpt>
      <trkpt lat="43.01855" lon="-0.92832">
        <ele>392.79</ele>
        <time>2024-05-29T22:15:14.624Z</time>
      </trkpt>
      <trkpt lat="43.0183" lon="-0.92788">
        <ele>391.12</ele>
        <time>2024-05-29T22:15:22.221Z</time>
      </trkpt>
      <trkpt lat="43.01829" lon="-0.92778">
        <ele>389.84</ele>
        <time>2024-05-29T22:15:29.819Z</time>
      </trkpt>
      <trkpt lat="43.0183" lon="-0.92772">
        <ele>388.66</ele>
        <time>2024-05-29T22:15:37.417Z</time>
      </trkpt>
      <trkpt lat="43.01837" lon="-0.92757">
        <ele>387.51</ele>
        <time>2024-05-29T22:15:45.018Z</time>
      </trkpt>
      <trkpt lat="43.01844" lon="-0.92752">
        <ele>386.48</ele>
        <time>2024-05-29T22:15:52.620Z</time>
      </trkpt>
      <trkpt lat="43.01859" lon="-0.92748">
        <ele>385.61</ele>
        <time>2024-05-29T22:16:00.224Z</time>
      </trkpt>
      <trkpt lat="43.01869" lon="-0.92743">
        <ele>384.72</ele>
        <time>2024-05-29T22:16:07.830Z</time>
      </trkpt>
      <trkpt lat="43.01905" lon="-0.92711">
        <ele>384.01</ele>
        <time>2024-05-29T22:16:15.443Z</time>
      </trkpt>
      <trkpt lat="43.01918" lon="-0.92696">
        <ele>383.22</ele>
        <time>2024-05-29T22:16:23.059Z</time>
      </trkpt>
      <trkpt lat="43.01923" lon="-0.92687">
        <ele>382.38</ele>
        <time>2024-05-29T22:16:30.676Z</time>
      </trkpt>
      <trkpt lat="43.01927" lon="-0.92674">
        <ele>381.53</ele>
        <time>2024-05-29T22:16:38.295Z</time>
      </trkpt>
      <trkpt lat="43.01936" lon="-0.92528">
        <ele>379.94</ele>
        <time>2024-05-29T22:16:45.931Z</time>
      </trkpt>
      <trkpt lat="43.01938" lon="-0.92515">
        <ele>379.14</ele>
        <time>2024-05-29T22:16:53.568Z</time>
      </trkpt>
      <trkpt lat="43.01945" lon="-0.92496">
        <ele>378.41</ele>
        <time>2024-05-29T22:17:01.208Z</time>
      </trkpt>
      <trkpt lat="43.01948" lon="-0.92491">
        <ele>377.78</ele>
        <time>2024-05-29T22:17:08.849Z</time>
      </trkpt>
      <trkpt lat="43.01957" lon="-0.92483">
        <ele>377.16</ele>
        <time>2024-05-29T22:17:16.491Z</time>
      </trkpt>
      <trkpt lat="43.01969" lon="-0.92479">
        <ele>376.62</ele>
        <time>2024-05-29T22:17:24.135Z</time>
      </trkpt>
      <trkpt lat="43.01981" lon="-0.9248">
        <ele>376.1</ele>
        <time>2024-05-29T22:17:31.781Z</time>
      </trkpt>
      <trkpt lat="43.02041" lon="-0.92506">
        <ele>375.65</ele>
        <time>2024-05-29T22:17:39.437Z</time>
      </trkpt>
      <trkpt lat="43.02056" lon="-0.92511">
        <ele>375.32</ele>
        <time>2024-05-29T22:17:47.096Z</time>
      </trkpt>
      <trkpt lat="43.0209" lon="-0.9251">
        <ele>375.05</ele>
        <time>2024-05-29T22:17:54.760Z</time>
      </trkpt>
      <trkpt lat="43.0211" lon="-0.92503">
        <ele>374.65</ele>
        <time>2024-05-29T22:18:02.427Z</time>
      </trkpt>
      <trkpt lat="43.02128" lon="-0.92495">
        <ele>374.26</ele>
        <time>2024-05-29T22:18:10.098Z</time>
      </trkpt>
      <trkpt lat="43.02143" lon="-0.92485">
        <ele>374.02</ele>
        <time>2024-05-29T22:18:17.771Z</time>
      </trkpt>
      <trkpt lat="43.02158" lon="-0.92472">
        <ele>373.84</ele>
        <time>2024-05-29T22:18:25.447Z</time>
      </trkpt>
      <trkpt lat="43.02209" lon="-0.92392">
        <ele>373.62</ele>
        <time>2024-05-29T22:18:33.135Z</time>
      </trkpt>
      <trkpt lat="43.02221" lon="-0.92377">
        <ele>373.51</ele>
        <time>2024-05-29T22:18:40.826Z</time>
      </trkpt>
      <trkpt lat="43.02232" lon="-0.92368">
        <ele>373.37</ele>
        <time>2024-05-29T22:18:48.519Z</time>
      </trkpt>
      <trkpt lat="43.02243" lon="-0.92362">
        <ele>373.26</ele>
        <time>2024-05-29T22:18:56.214Z</time>
      </trkpt>
      <trkpt lat="43.02257" lon="-0.92359">
        <ele>373.18</ele>
        <time>2024-05-29T22:19:03.911Z</time>
      </trkpt>
      <trkpt lat="43.02281" lon="-0.92364">
        <ele>373.21</ele>
        <time>2024-05-29T22:19:11.612Z</time>
      </trkpt>
      <trkpt lat="43.02313" lon="-0.92386">
        <ele>373.27</ele>
        <time>2024-05-29T22:19:19.319Z</time>
      </trkpt>
      <trkpt lat="43.02395" lon="-0.92458">
        <ele>372.85</ele>
        <time>2024-05-29T22:19:27.042Z</time>
      </trkpt>
      <trkpt lat="43.02411" lon="-0.92471">
        <ele>372.83</ele>
        <time>2024-05-29T22:19:34.767Z</time>
      </trkpt>
      <trkpt lat="43.02425" lon="-0.92479">
        <ele>372.83</ele>
        <time>2024-05-29T22:19:42.495Z</time>
      </trkpt>
      <trkpt lat="43.02437" lon="-0.92481">
        <ele>372.82</ele>
        <time>2024-05-29T22:19:50.225Z</time>
      </trkpt>
      <trkpt lat="43.02452" lon="-0.9248">
        <ele>372.81</ele>
        <time>2024-05-29T22:19:57.957Z</time>
      </trkpt>
      <trkpt lat="43.02486" lon="-0.92469">
        <ele>372.7</ele>
        <time>2024-05-29T22:20:05.695Z</time>
      </trkpt>
      <trkpt lat="43.02498" lon="-0.92469">
        <ele>372.57</ele>
        <time>2024-05-29T22:20:13.435Z</time>
      </trkpt>
      <trkpt lat="43.02508" lon="-0.92473">
        <ele>372.39</ele>
        <time>2024-05-29T22:20:21.176Z</time>
      </trkpt>
      <trkpt lat="43.02537" lon="-0.92505">
        <ele>372.07</ele>
        <time>2024-05-29T22:20:28.923Z</time>
      </trkpt>
      <trkpt lat="43.02549" lon="-0.92516">
        <ele>371.91</ele>
        <time>2024-05-29T22:20:36.673Z</time>
      </trkpt>
      <trkpt lat="43.02571" lon="-0.92524">
        <ele>371.79</ele>
        <time>2024-05-29T22:20:44.426Z</time>
      </trkpt>
      <trkpt lat="43.02581" lon="-0.92526">
        <ele>371.61</ele>
        <time>2024-05-29T22:20:52.181Z</time>
      </trkpt>
      <trkpt lat="43.02594" lon="-0.92525">
        <ele>371.37</ele>
        <time>2024-05-29T22:20:59.938Z</time>
      </trkpt>
      <trkpt lat="43.02605" lon="-0.9252">
        <ele>371.06</ele>
        <time>2024-05-29T22:21:07.697Z</time>
      </trkpt>
      <trkpt lat="43.02644" lon="-0.92492">
        <ele>370.74</ele>
        <time>2024-05-29T22:21:15.463Z</time>
      </trkpt>
      <trkpt lat="43.02653" lon="-0.9248">
        <ele>370.4</ele>
        <time>2024-05-29T22:21:23.231Z</time>
      </trkpt>
      <trkpt lat="43.02664" lon="-0.92461">
        <ele>370.05</ele>
        <time>2024-05-29T22:21:31.002Z</time>
      </trkpt>
      <trkpt lat="43.02767" lon="-0.92249">
        <ele>369.69</ele>
        <time>2024-05-29T22:21:38.803Z</time>
      </trkpt>
      <trkpt lat="43.02806" lon="-0.9219">
        <ele>369.04</ele>
        <time>2024-05-29T22:21:46.613Z</time>
      </trkpt>
      <trkpt lat="43.02825" lon="-0.92167">
        <ele>368.53</ele>
        <time>2024-05-29T22:21:54.427Z</time>
      </trkpt>
      <trkpt lat="43.02847" lon="-0.92146">
        <ele>367.97</ele>
        <time>2024-05-29T22:22:02.245Z</time>
      </trkpt>
      <trkpt lat="43.02865" lon="-0.92123">
        <ele>367.56</ele>
        <time>2024-05-29T22:22:10.067Z</time>
      </trkpt>
      <trkpt lat="43.02884" lon="-0.92079">
        <ele>366.93</ele>
        <time>2024-05-29T22:22:17.895Z</time>
      </trkpt>
      <trkpt lat="43.02899" lon="-0.9205">
        <ele>366.37</ele>
        <time>2024-05-29T22:22:25.727Z</time>
      </trkpt>
      <trkpt lat="43.02934" lon="-0.91991">
        <ele>366.29</ele>
        <time>2024-05-29T22:22:33.568Z</time>
      </trkpt>
      <trkpt lat="43.02947" lon="-0.91959">
        <ele>365.68</ele>
        <time>2024-05-29T22:22:41.414Z</time>
      </trkpt>
      <trkpt lat="43.02959" lon="-0.91919">
        <ele>364.97</ele>
        <time>2024-05-29T22:22:49.265Z</time>
      </trkpt>
      <trkpt lat="43.02971" lon="-0.91834">
        <ele>364.29</ele>
        <time>2024-05-29T22:22:57.126Z</time>
      </trkpt>
      <trkpt lat="43.02972" lon="-0.918">
        <ele>363.72</ele>
        <time>2024-05-29T22:23:04.991Z</time>
      </trkpt>
      <trkpt lat="43.02968" lon="-0.91683">
        <ele>363</ele>
        <time>2024-05-29T22:23:12.870Z</time>
      </trkpt>
      <trkpt lat="43.02971" lon="-0.91662">
        <ele>362.47</ele>
        <time>2024-05-29T22:23:20.751Z</time>
      </trkpt>
      <trkpt lat="43.02977" lon="-0.91643">
        <ele>362.02</ele>
        <time>2024-05-29T22:23:28.635Z</time>
      </trkpt>
      <trkpt lat="43.02983" lon="-0.91631">
        <ele>361.57</ele>
        <time>2024-05-29T22:23:36.520Z</time>
      </trkpt>
      <trkpt lat="43.02993" lon="-0.91621">
        <ele>361.11</ele>
        <time>2024-05-29T22:23:44.407Z</time>
      </trkpt>
      <trkpt lat="43.03027" lon="-0.91595">
        <ele>360.6</ele>
        <time>2024-05-29T22:23:52.300Z</time>
      </trkpt>
      <trkpt lat="43.03041" lon="-0.91578">
        <ele>360.12</ele>
        <time>2024-05-29T22:24:00.196Z</time>
      </trkpt>
      <trkpt lat="43.0305" lon="-0.91561">
        <ele>359.69</ele>
        <time>2024-05-29T22:24:08.095Z</time>
      </trkpt>
      <trkpt lat="43.03057" lon="-0.91539">
        <ele>359.39</ele>
        <time>2024-05-29T22:24:15.997Z</time>
      </trkpt>
      <trkpt lat="43.0306" lon="-0.91514">
        <ele>358.97</ele>
        <time>2024-05-29T22:24:23.902Z</time>
      </trkpt>
      <trkpt lat="43.03059" lon="-0.91486">
        <ele>358.41</ele>
        <time>2024-05-29T22:24:31.810Z</time>
      </trkpt>
      <trkpt lat="43.03054" lon="-0.91448">
        <ele>357.75</ele>
        <time>2024-05-29T22:24:39.723Z</time>
      </trkpt>
      <trkpt lat="43.03055" lon="-0.91428">
        <ele>357.28</ele>
        <time>2024-05-29T22:24:47.638Z</time>
      </trkpt>
      <trkpt lat="43.03061" lon="-0.91404">
        <ele>356.76</ele>
        <time>2024-05-29T22:24:55.556Z</time>
      </trkpt>
      <trkpt lat="43.0307" lon="-0.91384">
        <ele>356.23</ele>
        <time>2024-05-29T22:25:03.477Z</time>
      </trkpt>
      <trkpt lat="43.03078" lon="-0.91374">
        <ele>355.79</ele>
        <time>2024-05-29T22:25:11.399Z</time>
      </trkpt>
      <trkpt lat="43.03091" lon="-0.91364">
        <ele>355.32</ele>
        <time>2024-05-29T22:25:19.324Z</time>
      </trkpt>
      <trkpt lat="43.03122" lon="-0.91349">
        <ele>354.96</ele>
        <time>2024-05-29T22:25:27.254Z</time>
      </trkpt>
      <trkpt lat="43.03136" lon="-0.91337">
        <ele>354.49</ele>
        <time>2024-05-29T22:25:35.187Z</time>
      </trkpt>
      <trkpt lat="43.03147" lon="-0.91318">
        <ele>353.83</ele>
        <time>2024-05-29T22:25:43.123Z</time>
      </trkpt>
      <trkpt lat="43.03157" lon="-0.91282">
        <ele>352.98</ele>
        <time>2024-05-29T22:25:51.063Z</time>
      </trkpt>
      <trkpt lat="43.03163" lon="-0.91248">
        <ele>352.03</ele>
        <time>2024-05-29T22:25:59.007Z</time>
      </trkpt>
      <trkpt lat="43.03169" lon="-0.91234">
        <ele>351.27</ele>
        <time>2024-05-29T22:26:06.953Z</time>
      </trkpt>
      <trkpt lat="43.03176" lon="-0.91226">
        <ele>350.5</ele>
        <time>2024-05-29T22:26:14.900Z</time>
      </trkpt>
      <trkpt lat="43.03198" lon="-0.91208">
        <ele>349.52</ele>
        <time>2024-05-29T22:26:22.852Z</time>
      </trkpt>
      <trkpt lat="43.03239" lon="-0.9118">
        <ele>349.06</ele>
        <time>2024-05-29T22:26:30.811Z</time>
      </trkpt>
      <trkpt lat="43.03268" lon="-0.91148">
        <ele>348.5</ele>
        <time>2024-05-29T22:26:38.776Z</time>
      </trkpt>
      <trkpt lat="43.03278" lon="-0.91131">
        <ele>347.68</ele>
        <time>2024-05-29T22:26:46.743Z</time>
      </trkpt>
      <trkpt lat="43.03284" lon="-0.91113">
        <ele>346.75</ele>
        <time>2024-05-29T22:26:54.713Z</time>
      </trkpt>
      <trkpt lat="43.03298" lon="-0.91058">
        <ele>345.78</ele>
        <time>2024-05-29T22:27:02.690Z</time>
      </trkpt>
      <trkpt lat="43.03316" lon="-0.91001">
        <ele>344.61</ele>
        <time>2024-05-29T22:27:10.674Z</time>
      </trkpt>
      <trkpt lat="43.03332" lon="-0.90974">
        <ele>343.45</ele>
        <time>2024-05-29T22:27:18.662Z</time>
      </trkpt>
      <trkpt lat="43.03351" lon="-0.90948">
        <ele>342.44</ele>
        <time>2024-05-29T22:27:26.654Z</time>
      </trkpt>
      <trkpt lat="43.03444" lon="-0.90836">
        <ele>341.54</ele>
        <time>2024-05-29T22:27:34.666Z</time>
      </trkpt>
      <trkpt lat="43.03476" lon="-0.908">
        <ele>340.53</ele>
        <time>2024-05-29T22:27:42.685Z</time>
      </trkpt>
      <trkpt lat="43.03491" lon="-0.90776">
        <ele>339.45</ele>
        <time>2024-05-29T22:27:50.707Z</time>
      </trkpt>
      <trkpt lat="43.03507" lon="-0.90727">
        <ele>338.13</ele>
        <time>2024-05-29T22:27:58.736Z</time>
      </trkpt>
      <trkpt lat="43.03529" lon="-0.90629">
        <ele>336.82</ele>
        <time>2024-05-29T22:28:06.777Z</time>
      </trkpt>
      <trkpt lat="43.03536" lon="-0.90565">
        <ele>335.64</ele>
        <time>2024-05-29T22:28:14.825Z</time>
      </trkpt>
      <trkpt lat="43.03539" lon="-0.90506">
        <ele>334.48</ele>
        <time>2024-05-29T22:28:22.880Z</time>
      </trkpt>
      <trkpt lat="43.03546" lon="-0.90472">
        <ele>333.45</ele>
        <time>2024-05-29T22:28:30.939Z</time>
      </trkpt>
      <trkpt lat="43.03553" lon="-0.90451">
        <ele>332.54</ele>
        <time>2024-05-29T22:28:39.001Z</time>
      </trkpt>
      <trkpt lat="43.03567" lon="-0.90431">
        <ele>331.62</ele>
        <time>2024-05-29T22:28:47.066Z</time>
      </trkpt>
      <trkpt lat="43.0358" lon="-0.9042">
        <ele>330.69</ele>
        <time>2024-05-29T22:28:55.134Z</time>
      </trkpt>
      <trkpt lat="43.03595" lon="-0.90412">
        <ele>329.8</ele>
        <time>2024-05-29T22:29:03.204Z</time>
      </trkpt>
      <trkpt lat="43.03672" lon="-0.90392">
        <ele>329.15</ele>
        <time>2024-05-29T22:29:11.287Z</time>
      </trkpt>
      <trkpt lat="43.03694" lon="-0.90389">
        <ele>328.49</ele>
        <time>2024-05-29T22:29:19.374Z</time>
      </trkpt>
      <trkpt lat="43.03727" lon="-0.90387">
        <ele>327.97</ele>
        <time>2024-05-29T22:29:27.466Z</time>
      </trkpt>
      <trkpt lat="43.0374" lon="-0.90384">
        <ele>327.42</ele>
        <time>2024-05-29T22:29:35.560Z</time>
      </trkpt>
      <trkpt lat="43.0376" lon="-0.90375">
        <ele>326.9</ele>
        <time>2024-05-29T22:29:43.657Z</time>
      </trkpt>
      <trkpt lat="43.03774" lon="-0.90361">
        <ele>326.4</ele>
        <time>2024-05-29T22:29:51.757Z</time>
      </trkpt>
      <trkpt lat="43.03789" lon="-0.90339">
        <ele>325.93</ele>
        <time>2024-05-29T22:29:59.861Z</time>
      </trkpt>
      <trkpt lat="43.03797" lon="-0.90324">
        <ele>325.4</ele>
        <time>2024-05-29T22:30:07.967Z</time>
      </trkpt>
      <trkpt lat="43.03805" lon="-0.90296">
        <ele>324.75</ele>
        <time>2024-05-29T22:30:16.076Z</time>
      </trkpt>
      <trkpt lat="43.03808" lon="-0.90267">
        <ele>324.11</ele>
        <time>2024-05-29T22:30:24.189Z</time>
      </trkpt>
      <trkpt lat="43.03808" lon="-0.90209">
        <ele>323.5</ele>
        <time>2024-05-29T22:30:32.309Z</time>
      </trkpt>
      <trkpt lat="43.03802" lon="-0.90151">
        <ele>322.96</ele>
        <time>2024-05-29T22:30:40.435Z</time>
      </trkpt>
      <trkpt lat="43.03801" lon="-0.90113">
        <ele>322.51</ele>
        <time>2024-05-29T22:30:48.566Z</time>
      </trkpt>
      <trkpt lat="43.03803" lon="-0.90102">
        <ele>322.24</ele>
        <time>2024-05-29T22:30:56.698Z</time>
      </trkpt>
      <trkpt lat="43.03807" lon="-0.90092">
        <ele>322</ele>
        <time>2024-05-29T22:31:04.832Z</time>
      </trkpt>
      <trkpt lat="43.03813" lon="-0.90082">
        <ele>321.75</ele>
        <time>2024-05-29T22:31:12.967Z</time>
      </trkpt>
      <trkpt lat="43.03856" lon="-0.9004">
        <ele>321.79</ele>
        <time>2024-05-29T22:31:21.111Z</time>
      </trkpt>
      <trkpt lat="43.03867" lon="-0.90024">
        <ele>321.67</ele>
        <time>2024-05-29T22:31:29.257Z</time>
      </trkpt>
      <trkpt lat="43.03876" lon="-0.90002">
        <ele>321.53</ele>
        <time>2024-05-29T22:31:37.406Z</time>
      </trkpt>
      <trkpt lat="43.03881" lon="-0.89981">
        <ele>321.42</ele>
        <time>2024-05-29T22:31:45.558Z</time>
      </trkpt>
      <trkpt lat="43.03884" lon="-0.89947">
        <ele>321.16</ele>
        <time>2024-05-29T22:31:53.714Z</time>
      </trkpt>
      <trkpt lat="43.03891" lon="-0.89921">
        <ele>320.93</ele>
        <time>2024-05-29T22:32:01.873Z</time>
      </trkpt>
      <trkpt lat="43.03902" lon="-0.89904">
        <ele>320.77</ele>
        <time>2024-05-29T22:32:10.035Z</time>
      </trkpt>
      <trkpt lat="43.03915" lon="-0.89892">
        <ele>320.63</ele>
        <time>2024-05-29T22:32:18.199Z</time>
      </trkpt>
      <trkpt lat="43.03928" lon="-0.89885">
        <ele>320.53</ele>
        <time>2024-05-29T22:32:26.365Z</time>
      </trkpt>
      <trkpt lat="43.03941" lon="-0.89885">
        <ele>320.39</ele>
        <time>2024-05-29T22:32:34.533Z</time>
      </trkpt>
      <trkpt lat="43.03973" lon="-0.89893">
        <ele>320.5</ele>
        <time>2024-05-29T22:32:42.707Z</time>
      </trkpt>
      <trkpt lat="43.03991" lon="-0.89888">
        <ele>320.57</ele>
        <time>2024-05-29T22:32:50.884Z</time>
      </trkpt>
      <trkpt lat="43.04007" lon="-0.89879">
        <ele>320.47</ele>
        <time>2024-05-29T22:32:59.063Z</time>
      </trkpt>
      <trkpt lat="43.04034" lon="-0.89859">
        <ele>320.14</ele>
        <time>2024-05-29T22:33:07.247Z</time>
      </trkpt>
      <trkpt lat="43.04042" lon="-0.8985">
        <ele>319.73</ele>
        <time>2024-05-29T22:33:15.433Z</time>
      </trkpt>
      <trkpt lat="43.04064" lon="-0.89803">
        <ele>319.01</ele>
        <time>2024-05-29T22:33:23.625Z</time>
      </trkpt>
      <trkpt lat="43.04074" lon="-0.89788">
        <ele>318.58</ele>
        <time>2024-05-29T22:33:31.820Z</time>
      </trkpt>
      <trkpt lat="43.04115" lon="-0.89758">
        <ele>318.55</ele>
        <time>2024-05-29T22:33:40.022Z</time>
      </trkpt>
      <trkpt lat="43.04131" lon="-0.89737">
        <ele>318.21</ele>
        <time>2024-05-29T22:33:48.228Z</time>
      </trkpt>
      <trkpt lat="43.04154" lon="-0.89696">
        <ele>317.73</ele>
        <time>2024-05-29T22:33:56.440Z</time>
      </trkpt>
      <trkpt lat="43.04193" lon="-0.89605">
        <ele>316.81</ele>
        <time>2024-05-29T22:34:04.664Z</time>
      </trkpt>
      <trkpt lat="43.04241" lon="-0.89524">
        <ele>316.28</ele>
        <time>2024-05-29T22:34:12.900Z</time>
      </trkpt>
      <trkpt lat="43.04307" lon="-0.89403">
        <ele>314.63</ele>
        <time>2024-05-29T22:34:21.154Z</time>
      </trkpt>
      <trkpt lat="43.04327" lon="-0.89377">
        <ele>313.74</ele>
        <time>2024-05-29T22:34:29.413Z</time>
      </trkpt>
      <trkpt lat="43.04342" lon="-0.89365">
        <ele>312.97</ele>
        <time>2024-05-29T22:34:37.674Z</time>
      </trkpt>
      <trkpt lat="43.04394" lon="-0.89353">
        <ele>312.8</ele>
        <time>2024-05-29T22:34:45.944Z</time>
      </trkpt>
      <trkpt lat="43.04408" lon="-0.89345">
        <ele>312.32</ele>
        <time>2024-05-29T22:34:54.216Z</time>
      </trkpt>
      <trkpt lat="43.04432" lon="-0.8932">
        <ele>311.84</ele>
        <time>2024-05-29T22:35:02.493Z</time>
      </trkpt>
      <trkpt lat="43.0445" lon="-0.89279">
        <ele>310.63</ele>
        <time>2024-05-29T22:35:10.776Z</time>
      </trkpt>
      <trkpt lat="43.04453" lon="-0.89243">
        <ele>309.61</ele>
        <time>2024-05-29T22:35:19.063Z</time>
      </trkpt>
      <trkpt lat="43.04462" lon="-0.89108">
        <ele>308.44</ele>
        <time>2024-05-29T22:35:27.366Z</time>
      </trkpt>
      <trkpt lat="43.04466" lon="-0.89067">
        <ele>307.44</ele>
        <time>2024-05-29T22:35:35.674Z</time>
      </trkpt>
      <trkpt lat="43.04473" lon="-0.89043">
        <ele>306.57</ele>
        <time>2024-05-29T22:35:43.985Z</time>
      </trkpt>
      <trkpt lat="43.04482" lon="-0.89022">
        <ele>305.7</ele>
        <time>2024-05-29T22:35:52.299Z</time>
      </trkpt>
      <trkpt lat="43.04496" lon="-0.8901">
        <ele>304.89</ele>
        <time>2024-05-29T22:36:00.615Z</time>
      </trkpt>
      <trkpt lat="43.04516" lon="-0.88997">
        <ele>304.12</ele>
        <time>2024-05-29T22:36:08.935Z</time>
      </trkpt>
      <trkpt lat="43.0467" lon="-0.88964">
        <ele>303.86</ele>
        <time>2024-05-29T22:36:17.280Z</time>
      </trkpt>
      <trkpt lat="43.04701" lon="-0.88936">
        <ele>303.02</ele>
        <time>2024-05-29T22:36:25.631Z</time>
      </trkpt>
      <trkpt lat="43.04731" lon="-0.88866">
        <ele>301.42</ele>
        <time>2024-05-29T22:36:33.991Z</time>
      </trkpt>
      <trkpt lat="43.04751" lon="-0.88811">
        <ele>300.74</ele>
        <time>2024-05-29T22:36:42.358Z</time>
      </trkpt>
      <trkpt lat="43.04768" lon="-0.88771">
        <ele>299.96</ele>
        <time>2024-05-29T22:36:50.731Z</time>
      </trkpt>
      <trkpt lat="43.04799" lon="-0.88716">
        <ele>299.41</ele>
        <time>2024-05-29T22:36:59.112Z</time>
      </trkpt>
      <trkpt lat="43.04805" lon="-0.88699">
        <ele>298.87</ele>
        <time>2024-05-29T22:37:07.495Z</time>
      </trkpt>
      <trkpt lat="43.04807" lon="-0.88682">
        <ele>298.28</ele>
        <time>2024-05-29T22:37:15.880Z</time>
      </trkpt>
      <trkpt lat="43.04804" lon="-0.8865">
        <ele>297.54</ele>
        <time>2024-05-29T22:37:24.269Z</time>
      </trkpt>
      <trkpt lat="43.04806" lon="-0.88629">
        <ele>297.11</ele>
        <time>2024-05-29T22:37:32.660Z</time>
      </trkpt>
      <trkpt lat="43.04819" lon="-0.88611">
        <ele>296.83</ele>
        <time>2024-05-29T22:37:41.054Z</time>
      </trkpt>
      <trkpt lat="43.04884" lon="-0.8858">
        <ele>296.56</ele>
        <time>2024-05-29T22:37:49.459Z</time>
      </trkpt>
      <trkpt lat="43.04901" lon="-0.88567">
        <ele>296.34</ele>
        <time>2024-05-29T22:37:57.867Z</time>
      </trkpt>
      <trkpt lat="43.04907" lon="-0.88549">
        <ele>296.23</ele>
        <time>2024-05-29T22:38:06.278Z</time>
      </trkpt>
      <trkpt lat="43.04909" lon="-0.8849">
        <ele>296.62</ele>
        <time>2024-05-29T22:38:14.696Z</time>
      </trkpt>
      <trkpt lat="43.04915" lon="-0.88481">
        <ele>296.77</ele>
        <time>2024-05-29T22:38:23.115Z</time>
      </trkpt>
      <trkpt lat="43.0495" lon="-0.88455">
        <ele>296.84</ele>
        <time>2024-05-29T22:38:31.541Z</time>
      </trkpt>
      <trkpt lat="43.04964" lon="-0.88431">
        <ele>296.98</ele>
        <time>2024-05-29T22:38:39.970Z</time>
      </trkpt>
      <trkpt lat="43.04977" lon="-0.88392">
        <ele>297.06</ele>
        <time>2024-05-29T22:38:48.404Z</time>
      </trkpt>
      <trkpt lat="43.04994" lon="-0.88319">
        <ele>297.84</ele>
        <time>2024-05-29T22:38:56.847Z</time>
      </trkpt>
      <trkpt lat="43.05019" lon="-0.88255">
        <ele>298.52</ele>
        <time>2024-05-29T22:39:05.299Z</time>
      </trkpt>
      <trkpt lat="43.05022" lon="-0.88247">
        <ele>298.89</ele>
        <time>2024-05-29T22:39:13.752Z</time>
      </trkpt>
      <trkpt lat="43.05022" lon="-0.88241">
        <ele>299.3</ele>
        <time>2024-05-29T22:39:22.205Z</time>
      </trkpt>
      <trkpt lat="43.0504" lon="-0.88204">
        <ele>299.84</ele>
        <time>2024-05-29T22:39:30.664Z</time>
      </trkpt>
      <trkpt lat="43.05043" lon="-0.882">
        <ele>300.15</ele>
        <time>2024-05-29T22:39:39.123Z</time>
      </trkpt>
      <trkpt lat="43.05056" lon="-0.88188">
        <ele>300.49</ele>
        <time>2024-05-29T22:39:47.585Z</time>
      </trkpt>
      <trkpt lat="43.05072" lon="-0.8818">
        <ele>300.69</ele>
        <time>2024-05-29T22:39:56.050Z</time>
      </trkpt>
      <trkpt lat="43.05128" lon="-0.88163">
        <ele>300.46</ele>
        <time>2024-05-29T22:40:04.524Z</time>
      </trkpt>
      <trkpt lat="43.05159" lon="-0.88158">
        <ele>300.53</ele>
        <time>2024-05-29T22:40:13.003Z</time>
      </trkpt>
      <trkpt lat="43.05194" lon="-0.88155">
        <ele>300.44</ele>
        <time>2024-05-29T22:40:21.487Z</time>
      </trkpt>
      <trkpt lat="43.05289" lon="-0.88111">
        <ele>300.76</ele>
        <time>2024-05-29T22:40:29.987Z</time>
      </trkpt>
      <trkpt lat="43.05321" lon="-0.88102">
        <ele>300.84</ele>
        <time>2024-05-29T22:40:38.493Z</time>
      </trkpt>
      <trkpt lat="43.05356" lon="-0.881">
        <ele>301.02</ele>
        <time>2024-05-29T22:40:47.004Z</time>
      </trkpt>
      <trkpt lat="43.05398" lon="-0.88104">
        <ele>301.03</ele>
        <time>2024-05-29T22:40:55.522Z</time>
      </trkpt>
      <trkpt lat="43.0543" lon="-0.88098">
        <ele>301.1</ele>
        <time>2024-05-29T22:41:04.045Z</time>
      </trkpt>
      <trkpt lat="43.05449" lon="-0.88098">
        <ele>301.04</ele>
        <time>2024-05-29T22:41:12.571Z</time>
      </trkpt>
      <trkpt lat="43.05473" lon="-0.88103">
        <ele>300.68</ele>
        <time>2024-05-29T22:41:21.101Z</time>
      </trkpt>
      <trkpt lat="43.05514" lon="-0.88104">
        <ele>299.83</ele>
        <time>2024-05-29T22:41:29.638Z</time>
      </trkpt>
      <trkpt lat="43.0553" lon="-0.881">
        <ele>299.42</ele>
        <time>2024-05-29T22:41:38.177Z</time>
      </trkpt>
      <trkpt lat="43.05543" lon="-0.88094">
        <ele>299.06</ele>
        <time>2024-05-29T22:41:46.718Z</time>
      </trkpt>
      <trkpt lat="43.05579" lon="-0.88063">
        <ele>298.78</ele>
        <time>2024-05-29T22:41:55.266Z</time>
      </trkpt>
      <trkpt lat="43.05593" lon="-0.88042">
        <ele>298.43</ele>
        <time>2024-05-29T22:42:03.818Z</time>
      </trkpt>
      <trkpt lat="43.05626" lon="-0.87962">
        <ele>298.43</ele>
        <time>2024-05-29T22:42:12.380Z</time>
      </trkpt>
      <trkpt lat="43.0566" lon="-0.8791">
        <ele>298.25</ele>
        <time>2024-05-29T22:42:20.950Z</time>
      </trkpt>
      <trkpt lat="43.05694" lon="-0.87867">
        <ele>297.83</ele>
        <time>2024-05-29T22:42:29.528Z</time>
      </trkpt>
      <trkpt lat="43.05712" lon="-0.87849">
        <ele>297.39</ele>
        <time>2024-05-29T22:42:38.109Z</time>
      </trkpt>
      <trkpt lat="43.05738" lon="-0.87836">
        <ele>296.86</ele>
        <time>2024-05-29T22:42:46.695Z</time>
      </trkpt>
      <trkpt lat="43.05786" lon="-0.87828">
        <ele>296.37</ele>
        <time>2024-05-29T22:42:55.289Z</time>
      </trkpt>
      <trkpt lat="43.05802" lon="-0.87822">
        <ele>295.78</ele>
        <time>2024-05-29T22:43:03.885Z</time>
      </trkpt>
      <trkpt lat="43.05853" lon="-0.87766">
        <ele>295.16</ele>
        <time>2024-05-29T22:43:12.492Z</time>
      </trkpt>
      <trkpt lat="43.05935" lon="-0.87681">
        <ele>294.74</ele>
        <time>2024-05-29T22:43:21.115Z</time>
      </trkpt>
      <trkpt lat="43.0596" lon="-0.87662">
        <ele>294.54</ele>
        <time>2024-05-29T22:43:29.743Z</time>
      </trkpt>
      <trkpt lat="43.05975" lon="-0.87659">
        <ele>294.16</ele>
        <time>2024-05-29T22:43:38.373Z</time>
      </trkpt>
      <trkpt lat="43.06031" lon="-0.87673">
        <ele>294.01</ele>
        <time>2024-05-29T22:43:47.012Z</time>
      </trkpt>
      <trkpt lat="43.06053" lon="-0.87686">
        <ele>293.56</ele>
        <time>2024-05-29T22:43:55.655Z</time>
      </trkpt>
      <trkpt lat="43.06084" lon="-0.87712">
        <ele>293.05</ele>
        <time>2024-05-29T22:44:04.304Z</time>
      </trkpt>
      <trkpt lat="43.06125" lon="-0.87738">
        <ele>292.65</ele>
        <time>2024-05-29T22:44:12.960Z</time>
      </trkpt>
      <trkpt lat="43.06136" lon="-0.87743">
        <ele>292.1</ele>
        <time>2024-05-29T22:44:21.618Z</time>
      </trkpt>
      <trkpt lat="43.06166" lon="-0.87746">
        <ele>291.56</ele>
        <time>2024-05-29T22:44:30.281Z</time>
      </trkpt>
      <trkpt lat="43.0621" lon="-0.87744">
        <ele>290.93</ele>
        <time>2024-05-29T22:44:38.951Z</time>
      </trkpt>
      <trkpt lat="43.06225" lon="-0.87741">
        <ele>290.27</ele>
        <time>2024-05-29T22:44:47.623Z</time>
      </trkpt>
      <trkpt lat="43.06255" lon="-0.87727">
        <ele>289.62</ele>
        <time>2024-05-29T22:44:56.300Z</time>
      </trkpt>
      <trkpt lat="43.0627" lon="-0.87717">
        <ele>288.96</ele>
        <time>2024-05-29T22:45:04.980Z</time>
      </trkpt>
      <trkpt lat="43.06304" lon="-0.87684">
        <ele>288.08</ele>
        <time>2024-05-29T22:45:13.667Z</time>
      </trkpt>
      <trkpt lat="43.06311" lon="-0.87667">
        <ele>287.46</ele>
        <time>2024-05-29T22:45:22.356Z</time>
      </trkpt>
      <trkpt lat="43.06316" lon="-0.87643">
        <ele>286.82</ele>
        <time>2024-05-29T22:45:31.048Z</time>
      </trkpt>
      <trkpt lat="43.06321" lon="-0.87631">
        <ele>286.13</ele>
        <time>2024-05-29T22:45:39.742Z</time>
      </trkpt>
      <trkpt lat="43.06331" lon="-0.87619">
        <ele>285.49</ele>
        <time>2024-05-29T22:45:48.438Z</time>
      </trkpt>
      <trkpt lat="43.06338" lon="-0.87616">
        <ele>284.84</ele>
        <time>2024-05-29T22:45:57.135Z</time>
      </trkpt>
      <trkpt lat="43.06349" lon="-0.87615">
        <ele>284.17</ele>
        <time>2024-05-29T22:46:05.834Z</time>
      </trkpt>
      <trkpt lat="43.06362" lon="-0.87619">
        <ele>283.57</ele>
        <time>2024-05-29T22:46:14.535Z</time>
      </trkpt>
      <trkpt lat="43.06367" lon="-0.87624">
        <ele>282.86</ele>
        <time>2024-05-29T22:46:23.237Z</time>
      </trkpt>
      <trkpt lat="43.06393" lon="-0.87661">
        <ele>282.12</ele>
        <time>2024-05-29T22:46:31.945Z</time>
      </trkpt>
      <trkpt lat="43.06405" lon="-0.87668">
        <ele>281.33</ele>
        <time>2024-05-29T22:46:40.655Z</time>
      </trkpt>
      <trkpt lat="43.06411" lon="-0.87668">
        <ele>280.54</ele>
        <time>2024-05-29T22:46:49.366Z</time>
      </trkpt>
      <trkpt lat="43.06414" lon="-0.87668">
        <ele>279.71</ele>
        <time>2024-05-29T22:46:58.077Z</time>
      </trkpt>
      <trkpt lat="43.06432" lon="-0.87659">
        <ele>278.98</ele>
        <time>2024-05-29T22:47:06.791Z</time>
      </trkpt>
      <trkpt lat="43.06488" lon="-0.87616">
        <ele>278.48</ele>
        <time>2024-05-29T22:47:15.516Z</time>
      </trkpt>
      <trkpt lat="43.06514" lon="-0.87609">
        <ele>277.45</ele>
        <time>2024-05-29T22:47:24.245Z</time>
      </trkpt>
      <trkpt lat="43.06591" lon="-0.87612">
        <ele>275.61</ele>
        <time>2024-05-29T22:47:32.986Z</time>
      </trkpt>
      <trkpt lat="43.06609" lon="-0.87615">
        <ele>274.56</ele>
        <time>2024-05-29T22:47:41.730Z</time>
      </trkpt>
      <trkpt lat="43.06652" lon="-0.87639">
        <ele>273.49</ele>
        <time>2024-05-29T22:47:50.482Z</time>
      </trkpt>
      <trkpt lat="43.06687" lon="-0.87652">
        <ele>272.45</ele>
        <time>2024-05-29T22:47:59.239Z</time>
      </trkpt>
      <trkpt lat="43.06706" lon="-0.87658">
        <ele>271.46</ele>
        <time>2024-05-29T22:48:08.000Z</time>
      </trkpt>
      <trkpt lat="43.06724" lon="-0.87659">
        <ele>270.5</ele>
        <time>2024-05-29T22:48:16.763Z</time>
      </trkpt>
      <trkpt lat="43.0674" lon="-0.87657">
        <ele>269.57</ele>
        <time>2024-05-29T22:48:25.529Z</time>
      </trkpt>
      <trkpt lat="43.06801" lon="-0.87636">
        <ele>268.82</ele>
        <time>2024-05-29T22:48:34.305Z</time>
      </trkpt>
      <trkpt lat="43.06832" lon="-0.87632">
        <ele>267.89</ele>
        <time>2024-05-29T22:48:43.086Z</time>
      </trkpt>
      <trkpt lat="43.06891" lon="-0.87616">
        <ele>266.91</ele>
        <time>2024-05-29T22:48:51.877Z</time>
      </trkpt>
      <trkpt lat="43.06908" lon="-0.87607">
        <ele>266.1</ele>
        <time>2024-05-29T22:49:00.671Z</time>
      </trkpt>
      <trkpt lat="43.06986" lon="-0.8755">
        <ele>265.46</ele>
        <time>2024-05-29T22:49:09.479Z</time>
      </trkpt>
      <trkpt lat="43.07008" lon="-0.87539">
        <ele>264.69</ele>
        <time>2024-05-29T22:49:18.290Z</time>
      </trkpt>
      <trkpt lat="43.07027" lon="-0.87533">
        <ele>263.95</ele>
        <time>2024-05-29T22:49:27.105Z</time>
      </trkpt>
      <trkpt lat="43.07056" lon="-0.87534">
        <ele>263.26</ele>
        <time>2024-05-29T22:49:35.924Z</time>
      </trkpt>
      <trkpt lat="43.07081" lon="-0.87543">
        <ele>262.81</ele>
        <time>2024-05-29T22:49:44.747Z</time>
      </trkpt>
      <trkpt lat="43.07106" lon="-0.87561">
        <ele>262.34</ele>
        <time>2024-05-29T22:49:53.575Z</time>
      </trkpt>
      <trkpt lat="43.07131" lon="-0.87595">
        <ele>261.58</ele>
        <time>2024-05-29T22:50:02.409Z</time>
      </trkpt>
      <trkpt lat="43.07144" lon="-0.8761">
        <ele>261.08</ele>
        <time>2024-05-29T22:50:11.245Z</time>
      </trkpt>
      <trkpt lat="43.07155" lon="-0.87616">
        <ele>260.62</ele>
        <time>2024-05-29T22:50:20.083Z</time>
      </trkpt>
      <trkpt lat="43.07169" lon="-0.8762">
        <ele>260.15</ele>
        <time>2024-05-29T22:50:28.923Z</time>
      </trkpt>
      <trkpt lat="43.07187" lon="-0.87622">
        <ele>259.73</ele>
        <time>2024-05-29T22:50:37.766Z</time>
      </trkpt>
      <trkpt lat="43.07227" lon="-0.87619">
        <ele>259.45</ele>
        <time>2024-05-29T22:50:46.616Z</time>
      </trkpt>
      <trkpt lat="43.07256" lon="-0.8761">
        <ele>258.94</ele>
        <time>2024-05-29T22:50:55.470Z</time>
      </trkpt>
      <trkpt lat="43.07301" lon="-0.8759">
        <ele>258.44</ele>
        <time>2024-05-29T22:51:04.332Z</time>
      </trkpt>
      <trkpt lat="43.07313" lon="-0.8758">
        <ele>258.15</ele>
        <time>2024-05-29T22:51:13.196Z</time>
      </trkpt>
      <trkpt lat="43.07347" lon="-0.87543">
        <ele>257.82</ele>
        <time>2024-05-29T22:51:22.067Z</time>
      </trkpt>
      <trkpt lat="43.07422" lon="-0.87508">
        <ele>257.67</ele>
        <time>2024-05-29T22:51:30.951Z</time>
      </trkpt>
      <trkpt lat="43.07459" lon="-0.875">
        <ele>257.37</ele>
        <time>2024-05-29T22:51:39.841Z</time>
      </trkpt>
      <trkpt lat="43.07471" lon="-0.87493">
        <ele>257.24</ele>
        <time>2024-05-29T22:51:48.733Z</time>
      </trkpt>
      <trkpt lat="43.07479" lon="-0.87486">
        <ele>257.17</ele>
        <time>2024-05-29T22:51:57.627Z</time>
      </trkpt>
      <trkpt lat="43.07496" lon="-0.87464">
        <ele>257.19</ele>
        <time>2024-05-29T22:52:06.524Z</time>
      </trkpt>
      <trkpt lat="43.07514" lon="-0.87435">
        <ele>257.26</ele>
        <time>2024-05-29T22:52:15.426Z</time>
      </trkpt>
      <trkpt lat="43.07589" lon="-0.8736">
        <ele>257.46</ele>
        <time>2024-05-29T22:52:24.343Z</time>
      </trkpt>
      <trkpt lat="43.0766" lon="-0.87274">
        <ele>257.8</ele>
        <time>2024-05-29T22:52:33.275Z</time>
      </trkpt>
      <trkpt lat="43.07678" lon="-0.87258">
        <ele>257.84</ele>
        <time>2024-05-29T22:52:42.210Z</time>
      </trkpt>
      <trkpt lat="43.07717" lon="-0.87231">
        <ele>257.79</ele>
        <time>2024-05-29T22:52:51.152Z</time>
      </trkpt>
      <trkpt lat="43.07742" lon="-0.87208">
        <ele>257.96</ele>
        <time>2024-05-29T22:53:00.099Z</time>
      </trkpt>
      <trkpt lat="43.07749" lon="-0.87198">
        <ele>258.24</ele>
        <time>2024-05-29T22:53:09.048Z</time>
      </trkpt>
      <trkpt lat="43.07785" lon="-0.87129">
        <ele>258.55</ele>
        <time>2024-05-29T22:53:18.007Z</time>
      </trkpt>
      <trkpt lat="43.07781" lon="-0.87122">
        <ele>258.98</ele>
        <time>2024-05-29T22:53:26.967Z</time>
      </trkpt>
      <trkpt lat="43.07768" lon="-0.8709">
        <ele>259.47</ele>
        <time>2024-05-29T22:53:35.931Z</time>
      </trkpt>
      <trkpt lat="43.07755" lon="-0.87069">
        <ele>260</ele>
        <time>2024-05-29T22:53:44.898Z</time>
      </trkpt>
      <trkpt lat="43.0775" lon="-0.87059">
        <ele>260.57</ele>
        <time>2024-05-29T22:53:53.867Z</time>
      </trkpt>
      <trkpt lat="43.07742" lon="-0.8702">
        <ele>261.16</ele>
        <time>2024-05-29T22:54:02.840Z</time>
      </trkpt>
      <trkpt lat="43.07737" lon="-0.8698">
        <ele>261.8</ele>
        <time>2024-05-29T22:54:11.818Z</time>
      </trkpt>
      <trkpt lat="43.07739" lon="-0.86967">
        <ele>262.46</ele>
        <time>2024-05-29T22:54:20.798Z</time>
      </trkpt>
      <trkpt lat="43.07758" lon="-0.86918">
        <ele>263.6</ele>
        <time>2024-05-29T22:54:29.784Z</time>
      </trkpt>
      <trkpt lat="43.07763" lon="-0.86878">
        <ele>264.64</ele>
        <time>2024-05-29T22:54:38.775Z</time>
      </trkpt>
      <trkpt lat="43.07779" lon="-0.86833">
        <ele>265.5</ele>
        <time>2024-05-29T22:54:47.772Z</time>
      </trkpt>
      <trkpt lat="43.07782" lon="-0.86817">
        <ele>266.17</ele>
        <time>2024-05-29T22:54:56.771Z</time>
      </trkpt>
      <trkpt lat="43.07781" lon="-0.8681">
        <ele>266.8</ele>
        <time>2024-05-29T22:55:05.771Z</time>
      </trkpt>
      <trkpt lat="43.07775" lon="-0.86794">
        <ele>267.34</ele>
        <time>2024-05-29T22:55:14.773Z</time>
      </trkpt>
      <trkpt lat="43.07767" lon="-0.86784">
        <ele>267.85</ele>
        <time>2024-05-29T22:55:23.776Z</time>
      </trkpt>
      <trkpt lat="43.07754" lon="-0.86772">
        <ele>268.48</ele>
        <time>2024-05-29T22:55:32.782Z</time>
      </trkpt>
      <trkpt lat="43.07734" lon="-0.86728">
        <ele>269.16</ele>
        <time>2024-05-29T22:55:41.794Z</time>
      </trkpt>
      <trkpt lat="43.0773" lon="-0.86711">
        <ele>269.78</ele>
        <time>2024-05-29T22:55:50.808Z</time>
      </trkpt>
      <trkpt lat="43.07733" lon="-0.86675">
        <ele>270.06</ele>
        <time>2024-05-29T22:55:59.826Z</time>
      </trkpt>
      <trkpt lat="43.0773" lon="-0.86608">
        <ele>270.51</ele>
        <time>2024-05-29T22:56:08.852Z</time>
      </trkpt>
      <trkpt lat="43.07737" lon="-0.86585">
        <ele>270.94</ele>
        <time>2024-05-29T22:56:17.881Z</time>
      </trkpt>
      <trkpt lat="43.07736" lon="-0.86578">
        <ele>271.48</ele>
        <time>2024-05-29T22:56:26.911Z</time>
      </trkpt>
      <trkpt lat="43.07714" lon="-0.86529">
        <ele>272.05</ele>
        <time>2024-05-29T22:56:35.948Z</time>
      </trkpt>
      <trkpt lat="43.07708" lon="-0.86502">
        <ele>272.55</ele>
        <time>2024-05-29T22:56:44.988Z</time>
      </trkpt>
      <trkpt lat="43.07708" lon="-0.86468">
        <ele>273.02</ele>
        <time>2024-05-29T22:56:54.032Z</time>
      </trkpt>
      <trkpt lat="43.07725" lon="-0.86383">
        <ele>273.94</ele>
        <time>2024-05-29T22:57:03.086Z</time>
      </trkpt>
      <trkpt lat="43.0773" lon="-0.86304">
        <ele>274.64</ele>
        <time>2024-05-29T22:57:12.150Z</time>
      </trkpt>
      <trkpt lat="43.07728" lon="-0.86284">
        <ele>275.22</ele>
        <time>2024-05-29T22:57:21.216Z</time>
      </trkpt>
      <trkpt lat="43.07711" lon="-0.86214">
        <ele>275.74</ele>
        <time>2024-05-29T22:57:30.291Z</time>
      </trkpt>
      <trkpt lat="43.07708" lon="-0.86196">
        <ele>276.16</ele>
        <time>2024-05-29T22:57:39.368Z</time>
      </trkpt>
      <trkpt lat="43.07702" lon="-0.86001">
        <ele>276.56</ele>
        <time>2024-05-29T22:57:48.468Z</time>
      </trkpt>
      <trkpt lat="43.07698" lon="-0.8597">
        <ele>277.02</ele>
        <time>2024-05-29T22:57:57.571Z</time>
      </trkpt>
      <trkpt lat="43.07675" lon="-0.85897">
        <ele>277.22</ele>
        <time>2024-05-29T22:58:06.684Z</time>
      </trkpt>
      <trkpt lat="43.07668" lon="-0.85884">
        <ele>277.61</ele>
        <time>2024-05-29T22:58:15.799Z</time>
      </trkpt>
      <trkpt lat="43.07646" lon="-0.8586">
        <ele>278.12</ele>
        <time>2024-05-29T22:58:24.918Z</time>
      </trkpt>
      <trkpt lat="43.0764" lon="-0.85848">
        <ele>278.57</ele>
        <time>2024-05-29T22:58:34.039Z</time>
      </trkpt>
      <trkpt lat="43.07636" lon="-0.85837">
        <ele>278.98</ele>
        <time>2024-05-29T22:58:43.161Z</time>
      </trkpt>
      <trkpt lat="43.07632" lon="-0.85803">
        <ele>279.32</ele>
        <time>2024-05-29T22:58:52.287Z</time>
      </trkpt>
      <trkpt lat="43.07626" lon="-0.85786">
        <ele>279.67</ele>
        <time>2024-05-29T22:59:01.415Z</time>
      </trkpt>
      <trkpt lat="43.07617" lon="-0.85769">
        <ele>280.1</ele>
        <time>2024-05-29T22:59:10.546Z</time>
      </trkpt>
      <trkpt lat="43.07614" lon="-0.85754">
        <ele>280.4</ele>
        <time>2024-05-29T22:59:19.679Z</time>
      </trkpt>
      <trkpt lat="43.07616" lon="-0.85742">
        <ele>280.67</ele>
        <time>2024-05-29T22:59:28.813Z</time>
      </trkpt>
      <trkpt lat="43.07623" lon="-0.85714">
        <ele>280.81</ele>
        <time>2024-05-29T22:59:37.951Z</time>
      </trkpt>
      <trkpt lat="43.07646" lon="-0.8567">
        <ele>281.08</ele>
        <time>2024-05-29T22:59:47.095Z</time>
      </trkpt>
      <trkpt lat="43.0765" lon="-0.85649">
        <ele>281.35</ele>
        <time>2024-05-29T22:59:56.242Z</time>
      </trkpt>
      <trkpt lat="43.07647" lon="-0.85623">
        <ele>281.71</ele>
        <time>2024-05-29T23:00:05.392Z</time>
      </trkpt>
      <trkpt lat="43.07629" lon="-0.8557">
        <ele>282.16</ele>
        <time>2024-05-29T23:00:14.549Z</time>
      </trkpt>
      <trkpt lat="43.07626" lon="-0.85538">
        <ele>282.65</ele>
        <time>2024-05-29T23:00:23.709Z</time>
      </trkpt>
      <trkpt lat="43.07628" lon="-0.85525">
        <ele>282.98</ele>
        <time>2024-05-29T23:00:32.871Z</time>
      </trkpt>
      <trkpt lat="43.0764" lon="-0.85493">
        <ele>283.19</ele>
        <time>2024-05-29T23:00:42.037Z</time>
      </trkpt>
      <trkpt lat="43.07643" lon="-0.85466">
        <ele>283.44</ele>
        <time>2024-05-29T23:00:51.206Z</time>
      </trkpt>
      <trkpt lat="43.07682" lon="-0.85397">
        <ele>283.83</ele>
        <time>2024-05-29T23:01:00.385Z</time>
      </trkpt>
      <trkpt lat="43.07691" lon="-0.85373">
        <ele>284.37</ele>
        <time>2024-05-29T23:01:09.568Z</time>
      </trkpt>
      <trkpt lat="43.07699" lon="-0.85328">
        <ele>284.88</ele>
        <time>2024-05-29T23:01:18.756Z</time>
      </trkpt>
      <trkpt lat="43.07707" lon="-0.85294">
        <ele>285.3</ele>
        <time>2024-05-29T23:01:27.948Z</time>
      </trkpt>
      <trkpt lat="43.0771" lon="-0.85211">
        <ele>285.77</ele>
        <time>2024-05-29T23:01:37.150Z</time>
      </trkpt>
      <trkpt lat="43.07704" lon="-0.85152">
        <ele>286.2</ele>
        <time>2024-05-29T23:01:46.359Z</time>
      </trkpt>
      <trkpt lat="43.07705" lon="-0.85133">
        <ele>286.67</ele>
        <time>2024-05-29T23:01:55.570Z</time>
      </trkpt>
      <trkpt lat="43.0771" lon="-0.85101">
        <ele>287.16</ele>
        <time>2024-05-29T23:02:04.785Z</time>
      </trkpt>
      <trkpt lat="43.07714" lon="-0.85089">
        <ele>287.68</ele>
        <time>2024-05-29T23:02:14.002Z</time>
      </trkpt>
      <trkpt lat="43.07719" lon="-0.85079">
        <ele>288.22</ele>
        <time>2024-05-29T23:02:23.220Z</time>
      </trkpt>
      <trkpt lat="43.07747" lon="-0.85039">
        <ele>288.82</ele>
        <time>2024-05-29T23:02:32.445Z</time>
      </trkpt>
      <trkpt lat="43.07778" lon="-0.85004">
        <ele>289.36</ele>
        <time>2024-05-29T23:02:41.676Z</time>
      </trkpt>
      <trkpt lat="43.07782" lon="-0.84953">
        <ele>290.07</ele>
        <time>2024-05-29T23:02:50.913Z</time>
      </trkpt>
      <trkpt lat="43.07782" lon="-0.84903">
        <ele>290.81</ele>
        <time>2024-05-29T23:03:00.156Z</time>
      </trkpt>
      <trkpt lat="43.07781" lon="-0.84894">
        <ele>291.43</ele>
        <time>2024-05-29T23:03:09.400Z</time>
      </trkpt>
      <trkpt lat="43.07779" lon="-0.84885">
        <ele>292.06</ele>
        <time>2024-05-29T23:03:18.645Z</time>
      </trkpt>
      <trkpt lat="43.07761" lon="-0.84861">
        <ele>292.7</ele>
        <time>2024-05-29T23:03:27.894Z</time>
      </trkpt>
      <trkpt lat="43.07751" lon="-0.84856">
        <ele>293.34</ele>
        <time>2024-05-29T23:03:37.145Z</time>
      </trkpt>
      <trkpt lat="43.07739" lon="-0.84857">
        <ele>293.98</ele>
        <time>2024-05-29T23:03:46.398Z</time>
      </trkpt>
      <trkpt lat="43.07724" lon="-0.84863">
        <ele>294.63</ele>
        <time>2024-05-29T23:03:55.653Z</time>
      </trkpt>
      <trkpt lat="43.0772" lon="-0.84866">
        <ele>295.29</ele>
        <time>2024-05-29T23:04:04.909Z</time>
      </trkpt>
      <trkpt lat="43.07709" lon="-0.84866">
        <ele>295.97</ele>
        <time>2024-05-29T23:04:14.167Z</time>
      </trkpt>
      <trkpt lat="43.07698" lon="-0.8486">
        <ele>296.68</ele>
        <time>2024-05-29T23:04:23.427Z</time>
      </trkpt>
      <trkpt lat="43.07694" lon="-0.84855">
        <ele>297.37</ele>
        <time>2024-05-29T23:04:32.687Z</time>
      </trkpt>
      <trkpt lat="43.07689" lon="-0.84843">
        <ele>298.11</ele>
        <time>2024-05-29T23:04:41.949Z</time>
      </trkpt>
      <trkpt lat="43.07668" lon="-0.84823">
        <ele>298.84</ele>
        <time>2024-05-29T23:04:51.215Z</time>
      </trkpt>
      <trkpt lat="43.07651" lon="-0.8481">
        <ele>299.52</ele>
        <time>2024-05-29T23:05:00.484Z</time>
      </trkpt>
      <trkpt lat="43.07634" lon="-0.84794">
        <ele>300.11</ele>
        <time>2024-05-29T23:05:09.757Z</time>
      </trkpt>
      <trkpt lat="43.07618" lon="-0.84774">
        <ele>300.7</ele>
        <time>2024-05-29T23:05:19.033Z</time>
      </trkpt>
      <trkpt lat="43.07595" lon="-0.8474">
        <ele>301.33</ele>
        <time>2024-05-29T23:05:28.314Z</time>
      </trkpt>
      <trkpt lat="43.07556" lon="-0.84671">
        <ele>302.04</ele>
        <time>2024-05-29T23:05:37.606Z</time>
      </trkpt>
      <trkpt lat="43.07527" lon="-0.84638">
        <ele>302.71</ele>
        <time>2024-05-29T23:05:46.904Z</time>
      </trkpt>
      <trkpt lat="43.07469" lon="-0.84529">
        <ele>303.42</ele>
        <time>2024-05-29T23:05:56.218Z</time>
      </trkpt>
      <trkpt lat="43.0745" lon="-0.84474">
        <ele>304.13</ele>
        <time>2024-05-29T23:06:05.539Z</time>
      </trkpt>
      <trkpt lat="43.07439" lon="-0.84452">
        <ele>304.76</ele>
        <time>2024-05-29T23:06:14.863Z</time>
      </trkpt>
      <trkpt lat="43.07406" lon="-0.8441">
        <ele>305.39</ele>
        <time>2024-05-29T23:06:24.194Z</time>
      </trkpt>
      <trkpt lat="43.07396" lon="-0.84393">
        <ele>305.97</ele>
        <time>2024-05-29T23:06:33.528Z</time>
      </trkpt>
      <trkpt lat="43.07388" lon="-0.84372">
        <ele>306.53</ele>
        <time>2024-05-29T23:06:42.864Z</time>
      </trkpt>
      <trkpt lat="43.07378" lon="-0.84328">
        <ele>307.21</ele>
        <time>2024-05-29T23:06:52.206Z</time>
      </trkpt>
      <trkpt lat="43.07373" lon="-0.84316">
        <ele>307.76</ele>
        <time>2024-05-29T23:07:01.549Z</time>
      </trkpt>
      <trkpt lat="43.07354" lon="-0.84289">
        <ele>308.34</ele>
        <time>2024-05-29T23:07:10.897Z</time>
      </trkpt>
      <trkpt lat="43.07349" lon="-0.84276">
        <ele>308.88</ele>
        <time>2024-05-29T23:07:20.246Z</time>
      </trkpt>
      <trkpt lat="43.07344" lon="-0.84251">
        <ele>309.47</ele>
        <time>2024-05-29T23:07:29.598Z</time>
      </trkpt>
      <trkpt lat="43.07345" lon="-0.8423">
        <ele>310.04</ele>
        <time>2024-05-29T23:07:38.953Z</time>
      </trkpt>
      <trkpt lat="43.0735" lon="-0.84205">
        <ele>310.68</ele>
        <time>2024-05-29T23:07:48.311Z</time>
      </trkpt>
      <trkpt lat="43.07348" lon="-0.84188">
        <ele>311.16</ele>
        <time>2024-05-29T23:07:57.671Z</time>
      </trkpt>
      <trkpt lat="43.07339" lon="-0.84145">
        <ele>311.61</ele>
        <time>2024-05-29T23:08:07.036Z</time>
      </trkpt>
      <trkpt lat="43.07341" lon="-0.84115">
        <ele>312.06</ele>
        <time>2024-05-29T23:08:16.405Z</time>
      </trkpt>
      <trkpt lat="43.07349" lon="-0.84086">
        <ele>312.54</ele>
        <time>2024-05-29T23:08:25.777Z</time>
      </trkpt>
      <trkpt lat="43.07349" lon="-0.84072">
        <ele>313.01</ele>
        <time>2024-05-29T23:08:35.151Z</time>
      </trkpt>
      <trkpt lat="43.07347" lon="-0.84055">
        <ele>313.48</ele>
        <time>2024-05-29T23:08:44.527Z</time>
      </trkpt>
      <trkpt lat="43.07334" lon="-0.84013">
        <ele>313.96</ele>
        <time>2024-05-29T23:08:53.908Z</time>
      </trkpt>
      <trkpt lat="43.07334" lon="-0.83997">
        <ele>314.52</ele>
        <time>2024-05-29T23:09:03.291Z</time>
      </trkpt>
      <trkpt lat="43.07342" lon="-0.83977">
        <ele>315.15</ele>
        <time>2024-05-29T23:09:12.677Z</time>
      </trkpt>
      <trkpt lat="43.07345" lon="-0.8396">
        <ele>315.77</ele>
        <time>2024-05-29T23:09:22.065Z</time>
      </trkpt>
      <trkpt lat="43.07345" lon="-0.83953">
        <ele>316.39</ele>
        <time>2024-05-29T23:09:31.454Z</time>
      </trkpt>
      <trkpt lat="43.07344" lon="-0.83945">
        <ele>317.07</ele>
        <time>2024-05-29T23:09:40.844Z</time>
      </trkpt>
      <trkpt lat="43.07335" lon="-0.83928">
        <ele>317.75</ele>
        <time>2024-05-29T23:09:50.236Z</time>
      </trkpt>
      <trkpt lat="43.0733" lon="-0.83912">
        <ele>318.5</ele>
        <time>2024-05-29T23:09:59.630Z</time>
      </trkpt>
      <trkpt lat="43.0733" lon="-0.83892">
        <ele>319.36</ele>
        <time>2024-05-29T23:10:09.027Z</time>
      </trkpt>
      <trkpt lat="43.07336" lon="-0.83859">
        <ele>320.28</ele>
        <time>2024-05-29T23:10:18.428Z</time>
      </trkpt>
      <trkpt lat="43.0734" lon="-0.83781">
        <ele>321.26</ele>
        <time>2024-05-29T23:10:27.838Z</time>
      </trkpt>
      <trkpt lat="43.07359" lon="-0.83755">
        <ele>322.41</ele>
        <time>2024-05-29T23:10:37.252Z</time>
      </trkpt>
      <trkpt lat="43.07417" lon="-0.83705">
        <ele>323.52</ele>
        <time>2024-05-29T23:10:46.677Z</time>
      </trkpt>
      <trkpt lat="43.07422" lon="-0.83687">
        <ele>324.79</ele>
        <time>2024-05-29T23:10:56.104Z</time>
      </trkpt>
      <trkpt lat="43.07424" lon="-0.8366">
        <ele>326.16</ele>
        <time>2024-05-29T23:11:05.535Z</time>
      </trkpt>
      <trkpt lat="43.07431" lon="-0.83629">
        <ele>327.63</ele>
        <time>2024-05-29T23:11:14.969Z</time>
      </trkpt>
      <trkpt lat="43.07435" lon="-0.83591">
        <ele>329.23</ele>
        <time>2024-05-29T23:11:24.408Z</time>
      </trkpt>
      <trkpt lat="43.07452" lon="-0.83516">
        <ele>330.83</ele>
        <time>2024-05-29T23:11:33.856Z</time>
      </trkpt>
      <trkpt lat="43.07455" lon="-0.83442">
        <ele>332.69</ele>
        <time>2024-05-29T23:11:43.313Z</time>
      </trkpt>
      <trkpt lat="43.07467" lon="-0.83402">
        <ele>334.48</ele>
        <time>2024-05-29T23:11:52.775Z</time>
      </trkpt>
      <trkpt lat="43.07469" lon="-0.83383">
        <ele>336.41</ele>
        <time>2024-05-29T23:12:02.239Z</time>
      </trkpt>
      <trkpt lat="43.07466" lon="-0.83355">
        <ele>338.4</ele>
        <time>2024-05-29T23:12:11.706Z</time>
      </trkpt>
      <trkpt lat="43.07468" lon="-0.83252">
        <ele>340.24</ele>
        <time>2024-05-29T23:12:21.185Z</time>
      </trkpt>
      <trkpt lat="43.0746" lon="-0.83217">
        <ele>342.42</ele>
        <time>2024-05-29T23:12:30.669Z</time>
      </trkpt>
      <trkpt lat="43.07463" lon="-0.83194">
        <ele>344.69</ele>
        <time>2024-05-29T23:12:40.155Z</time>
      </trkpt>
      <trkpt lat="43.07475" lon="-0.83133">
        <ele>347.1</ele>
        <time>2024-05-29T23:12:49.649Z</time>
      </trkpt>
      <trkpt lat="43.07486" lon="-0.83006">
        <ele>349.86</ele>
        <time>2024-05-29T23:12:59.158Z</time>
      </trkpt>
      <trkpt lat="43.07481" lon="-0.82961">
        <ele>352.45</ele>
        <time>2024-05-29T23:13:08.672Z</time>
      </trkpt>
      <trkpt lat="43.07482" lon="-0.82874">
        <ele>355.25</ele>
        <time>2024-05-29T23:13:18.196Z</time>
      </trkpt>
      <trkpt lat="43.07481" lon="-0.82853">
        <ele>358</ele>
        <time>2024-05-29T23:13:27.723Z</time>
      </trkpt>
      <trkpt lat="43.07477" lon="-0.82835">
        <ele>360.74</ele>
        <time>2024-05-29T23:13:37.252Z</time>
      </trkpt>
      <trkpt lat="43.07434" lon="-0.82733">
        <ele>363.85</ele>
        <time>2024-05-29T23:13:46.795Z</time>
      </trkpt>
      <trkpt lat="43.07409" lon="-0.8266">
        <ele>366.7</ele>
        <time>2024-05-29T23:13:56.347Z</time>
      </trkpt>
      <trkpt lat="43.07398" lon="-0.82637">
        <ele>369.52</ele>
        <time>2024-05-29T23:14:05.903Z</time>
      </trkpt>
      <trkpt lat="43.07374" lon="-0.82599">
        <ele>372.45</ele>
        <time>2024-05-29T23:14:15.464Z</time>
      </trkpt>
      <trkpt lat="43.07368" lon="-0.82585">
        <ele>375.23</ele>
        <time>2024-05-29T23:14:25.027Z</time>
      </trkpt>
      <trkpt lat="43.07371" lon="-0.82579">
        <ele>377.92</ele>
        <time>2024-05-29T23:14:34.591Z</time>
      </trkpt>
      <trkpt lat="43.07373" lon="-0.82577">
        <ele>380.58</ele>
        <time>2024-05-29T23:14:44.156Z</time>
      </trkpt>
      <trkpt lat="43.07378" lon="-0.82577">
        <ele>383.21</ele>
        <time>2024-05-29T23:14:53.721Z</time>
      </trkpt>
      <trkpt lat="43.07394" lon="-0.82595">
        <ele>385.8</ele>
        <time>2024-05-29T23:15:03.290Z</time>
      </trkpt>
      <trkpt lat="43.07399" lon="-0.82597">
        <ele>388.43</ele>
        <time>2024-05-29T23:15:12.860Z</time>
      </trkpt>
      <trkpt lat="43.07404" lon="-0.82595">
        <ele>391.03</ele>
        <time>2024-05-29T23:15:22.430Z</time>
      </trkpt>
      <trkpt lat="43.07426" lon="-0.82579">
        <ele>393.83</ele>
        <time>2024-05-29T23:15:32.004Z</time>
      </trkpt>
      <trkpt lat="43.07432" lon="-0.82578">
        <ele>396.42</ele>
        <time>2024-05-29T23:15:41.579Z</time>
      </trkpt>
      <trkpt lat="43.07436" lon="-0.82586">
        <ele>398.95</ele>
        <time>2024-05-29T23:15:51.155Z</time>
      </trkpt>
      <trkpt lat="43.07434" lon="-0.82611">
        <ele>401.34</ele>
        <time>2024-05-29T23:16:00.734Z</time>
      </trkpt>
      <trkpt lat="43.07434" lon="-0.82623">
        <ele>403.73</ele>
        <time>2024-05-29T23:16:10.315Z</time>
      </trkpt>
      <trkpt lat="43.07467" lon="-0.82692">
        <ele>406.19</ele>
        <time>2024-05-29T23:16:19.906Z</time>
      </trkpt>
      <trkpt lat="43.07496" lon="-0.82732">
        <ele>408.59</ele>
        <time>2024-05-29T23:16:29.503Z</time>
      </trkpt>
      <trkpt lat="43.07504" lon="-0.82738">
        <ele>410.83</ele>
        <time>2024-05-29T23:16:39.102Z</time>
      </trkpt>
      <trkpt lat="43.07514" lon="-0.8274">
        <ele>413.06</ele>
        <time>2024-05-29T23:16:48.702Z</time>
      </trkpt>
      <trkpt lat="43.07518" lon="-0.82737">
        <ele>415.19</ele>
        <time>2024-05-29T23:16:58.303Z</time>
      </trkpt>
      <trkpt lat="43.07566" lon="-0.82673">
        <ele>417.69</ele>
        <time>2024-05-29T23:17:07.915Z</time>
      </trkpt>
      <trkpt lat="43.07623" lon="-0.82602">
        <ele>419.84</ele>
        <time>2024-05-29T23:17:17.539Z</time>
      </trkpt>
      <trkpt lat="43.07633" lon="-0.82587">
        <ele>421.54</ele>
        <time>2024-05-29T23:17:27.165Z</time>
      </trkpt>
      <trkpt lat="43.07631" lon="-0.8257">
        <ele>423.09</ele>
        <time>2024-05-29T23:17:36.793Z</time>
      </trkpt>
      <trkpt lat="43.07589" lon="-0.82508">
        <ele>424.47</ele>
        <time>2024-05-29T23:17:46.431Z</time>
      </trkpt>
      <trkpt lat="43.07552" lon="-0.82423">
        <ele>426.05</ele>
        <time>2024-05-29T23:17:56.081Z</time>
      </trkpt>
      <trkpt lat="43.07473" lon="-0.82369">
        <ele>427.54</ele>
        <time>2024-05-29T23:18:05.745Z</time>
      </trkpt>
      <trkpt lat="43.07467" lon="-0.8236">
        <ele>428.46</ele>
        <time>2024-05-29T23:18:15.410Z</time>
      </trkpt>
      <trkpt lat="43.07448" lon="-0.82312">
        <ele>429.21</ele>
        <time>2024-05-29T23:18:25.082Z</time>
      </trkpt>
      <trkpt lat="43.0744" lon="-0.823">
        <ele>429.65</ele>
        <time>2024-05-29T23:18:34.756Z</time>
      </trkpt>
      <trkpt lat="43.07436" lon="-0.82296">
        <ele>429.88</ele>
        <time>2024-05-29T23:18:44.431Z</time>
      </trkpt>
      <trkpt lat="43.0742" lon="-0.8229">
        <ele>429.93</ele>
        <time>2024-05-29T23:18:54.108Z</time>
      </trkpt>
      <trkpt lat="43.07394" lon="-0.82273">
        <ele>429.81</ele>
        <time>2024-05-29T23:19:03.790Z</time>
      </trkpt>
      <trkpt lat="43.07385" lon="-0.82259">
        <ele>429.46</ele>
        <time>2024-05-29T23:19:13.474Z</time>
      </trkpt>
      <trkpt lat="43.07383" lon="-0.82239">
        <ele>428.75</ele>
        <time>2024-05-29T23:19:23.160Z</time>
      </trkpt>
      <trkpt lat="43.07388" lon="-0.822">
        <ele>427.64</ele>
        <time>2024-05-29T23:19:32.851Z</time>
      </trkpt>
      <trkpt lat="43.07386" lon="-0.82185">
        <ele>426.58</ele>
        <time>2024-05-29T23:19:42.544Z</time>
      </trkpt>
      <trkpt lat="43.07376" lon="-0.82147">
        <ele>425.31</ele>
        <time>2024-05-29T23:19:52.242Z</time>
      </trkpt>
      <trkpt lat="43.07377" lon="-0.82122">
        <ele>423.83</ele>
        <time>2024-05-29T23:20:01.942Z</time>
      </trkpt>
      <trkpt lat="43.07397" lon="-0.82123">
        <ele>422.11</ele>
        <time>2024-05-29T23:20:11.646Z</time>
      </trkpt>
      <trkpt lat="43.07408" lon="-0.8212">
        <ele>420.23</ele>
        <time>2024-05-29T23:20:21.351Z</time>
      </trkpt>
      <trkpt lat="43.07423" lon="-0.8211">
        <ele>418.15</ele>
        <time>2024-05-29T23:20:31.059Z</time>
      </trkpt>
      <trkpt lat="43.07463" lon="-0.82076">
        <ele>415.75</ele>
        <time>2024-05-29T23:20:40.775Z</time>
      </trkpt>
      <trkpt lat="43.07504" lon="-0.82036">
        <ele>413.13</ele>
        <time>2024-05-29T23:20:50.499Z</time>
      </trkpt>
      <trkpt lat="43.07542" lon="-0.81988">
        <ele>410.49</ele>
        <time>2024-05-29T23:21:00.231Z</time>
      </trkpt>
      <trkpt lat="43.07582" lon="-0.81946">
        <ele>407.66</ele>
        <time>2024-05-29T23:21:09.971Z</time>
      </trkpt>
      <trkpt lat="43.07599" lon="-0.81923">
        <ele>404.98</ele>
        <time>2024-05-29T23:21:19.715Z</time>
      </trkpt>
      <trkpt lat="43.07602" lon="-0.8191">
        <ele>402.33</ele>
        <time>2024-05-29T23:21:29.461Z</time>
      </trkpt>
      <trkpt lat="43.07601" lon="-0.81902">
        <ele>399.67</ele>
        <time>2024-05-29T23:21:39.207Z</time>
      </trkpt>
      <trkpt lat="43.07598" lon="-0.81895">
        <ele>396.97</ele>
        <time>2024-05-29T23:21:48.954Z</time>
      </trkpt>
      <trkpt lat="43.07585" lon="-0.81876">
        <ele>394.29</ele>
        <time>2024-05-29T23:21:58.704Z</time>
      </trkpt>
      <trkpt lat="43.07579" lon="-0.8186">
        <ele>391.5</ele>
        <time>2024-05-29T23:22:08.457Z</time>
      </trkpt>
      <trkpt lat="43.07575" lon="-0.81832">
        <ele>388.54</ele>
        <time>2024-05-29T23:22:18.213Z</time>
      </trkpt>
      <trkpt lat="43.07569" lon="-0.81813">
        <ele>385.62</ele>
        <time>2024-05-29T23:22:27.971Z</time>
      </trkpt>
      <trkpt lat="43.07562" lon="-0.81797">
        <ele>382.74</ele>
        <time>2024-05-29T23:22:37.732Z</time>
      </trkpt>
      <trkpt lat="43.07535" lon="-0.8177">
        <ele>379.82</ele>
        <time>2024-05-29T23:22:47.498Z</time>
      </trkpt>
      <trkpt lat="43.07527" lon="-0.81757">
        <ele>376.78</ele>
        <time>2024-05-29T23:22:57.266Z</time>
      </trkpt>
      <trkpt lat="43.07517" lon="-0.81738">
        <ele>373.7</ele>
        <time>2024-05-29T23:23:07.037Z</time>
      </trkpt>
      <trkpt lat="43.07511" lon="-0.81717">
        <ele>370.55</ele>
        <time>2024-05-29T23:23:16.810Z</time>
      </trkpt>
      <trkpt lat="43.07508" lon="-0.81701">
        <ele>367.42</ele>
        <time>2024-05-29T23:23:26.585Z</time>
      </trkpt>
      <trkpt lat="43.07511" lon="-0.81682">
        <ele>364.35</ele>
        <time>2024-05-29T23:23:36.362Z</time>
      </trkpt>
      <trkpt lat="43.07519" lon="-0.81655">
        <ele>361.25</ele>
        <time>2024-05-29T23:23:46.143Z</time>
      </trkpt>
      <trkpt lat="43.07527" lon="-0.81637">
        <ele>358.12</ele>
        <time>2024-05-29T23:23:55.926Z</time>
      </trkpt>
      <trkpt lat="43.0754" lon="-0.81622">
        <ele>355.04</ele>
        <time>2024-05-29T23:24:05.712Z</time>
      </trkpt>
      <trkpt lat="43.07567" lon="-0.81602">
        <ele>352.01</ele>
        <time>2024-05-29T23:24:15.503Z</time>
      </trkpt>
      <trkpt lat="43.07607" lon="-0.8158">
        <ele>348.86</ele>
        <time>2024-05-29T23:24:25.301Z</time>
      </trkpt>
      <trkpt lat="43.07785" lon="-0.81547">
        <ele>345.14</ele>
        <time>2024-05-29T23:24:35.128Z</time>
      </trkpt>
      <trkpt lat="43.07802" lon="-0.81557">
        <ele>342.27</ele>
        <time>2024-05-29T23:24:44.958Z</time>
      </trkpt>
      <trkpt lat="43.07806" lon="-0.81573">
        <ele>339.61</ele>
        <time>2024-05-29T23:24:54.790Z</time>
      </trkpt>
      <trkpt lat="43.0781" lon="-0.81612">
        <ele>337.07</ele>
        <time>2024-05-29T23:25:04.626Z</time>
      </trkpt>
      <trkpt lat="43.07814" lon="-0.8162">
        <ele>334.51</ele>
        <time>2024-05-29T23:25:14.463Z</time>
      </trkpt>
      <trkpt lat="43.07822" lon="-0.81621">
        <ele>331.99</ele>
        <time>2024-05-29T23:25:24.302Z</time>
      </trkpt>
      <trkpt lat="43.07828" lon="-0.81613">
        <ele>329.54</ele>
        <time>2024-05-29T23:25:34.142Z</time>
      </trkpt>
      <trkpt lat="43.07836" lon="-0.81596">
        <ele>327.15</ele>
        <time>2024-05-29T23:25:43.984Z</time>
      </trkpt>
      <trkpt lat="43.07845" lon="-0.8157">
        <ele>324.73</ele>
        <time>2024-05-29T23:25:53.830Z</time>
      </trkpt>
      <trkpt lat="43.07845" lon="-0.8154">
        <ele>322.21</ele>
        <time>2024-05-29T23:26:03.679Z</time>
      </trkpt>
      <trkpt lat="43.07842" lon="-0.81502">
        <ele>319.69</ele>
        <time>2024-05-29T23:26:13.533Z</time>
      </trkpt>
      <trkpt lat="43.07838" lon="-0.81482">
        <ele>317.43</ele>
        <time>2024-05-29T23:26:23.389Z</time>
      </trkpt>
      <trkpt lat="43.07834" lon="-0.81474">
        <ele>315.38</ele>
        <time>2024-05-29T23:26:33.246Z</time>
      </trkpt>
      <trkpt lat="43.07813" lon="-0.81449">
        <ele>313.33</ele>
        <time>2024-05-29T23:26:43.108Z</time>
      </trkpt>
      <trkpt lat="43.07814" lon="-0.81439">
        <ele>311.48</ele>
        <time>2024-05-29T23:26:52.971Z</time>
      </trkpt>
      <trkpt lat="43.07828" lon="-0.81408">
        <ele>309.73</ele>
        <time>2024-05-29T23:27:02.838Z</time>
      </trkpt>
      <trkpt lat="43.07837" lon="-0.81393">
        <ele>308.07</ele>
        <time>2024-05-29T23:27:12.707Z</time>
      </trkpt>
      <trkpt lat="43.07852" lon="-0.8138">
        <ele>306.48</ele>
        <time>2024-05-29T23:27:22.579Z</time>
      </trkpt>
      <trkpt lat="43.07887" lon="-0.81375">
        <ele>304.83</ele>
        <time>2024-05-29T23:27:32.457Z</time>
      </trkpt>
      <trkpt lat="43.07908" lon="-0.81367">
        <ele>303.29</ele>
        <time>2024-05-29T23:27:42.338Z</time>
      </trkpt>
      <trkpt lat="43.07921" lon="-0.81366">
        <ele>301.82</ele>
        <time>2024-05-29T23:27:52.222Z</time>
      </trkpt>
      <trkpt lat="43.07953" lon="-0.8137">
        <ele>300.34</ele>
        <time>2024-05-29T23:28:02.111Z</time>
      </trkpt>
      <trkpt lat="43.07972" lon="-0.8137">
        <ele>298.99</ele>
        <time>2024-05-29T23:28:12.003Z</time>
      </trkpt>
      <trkpt lat="43.07988" lon="-0.81363">
        <ele>297.71</ele>
        <time>2024-05-29T23:28:21.897Z</time>
      </trkpt>
      <trkpt lat="43.08018" lon="-0.81343">
        <ele>296.47</ele>
        <time>2024-05-29T23:28:31.797Z</time>
      </trkpt>
      <trkpt lat="43.08053" lon="-0.81322">
        <ele>295.28</ele>
        <time>2024-05-29T23:28:41.703Z</time>
      </trkpt>
      <trkpt lat="43.08131" lon="-0.81325">
        <ele>294.08</ele>
        <time>2024-05-29T23:28:51.621Z</time>
      </trkpt>
      <trkpt lat="43.08245" lon="-0.81281">
        <ele>292.9</ele>
        <time>2024-05-29T23:29:01.558Z</time>
      </trkpt>
      <trkpt lat="43.08298" lon="-0.81256">
        <ele>291.9</ele>
        <time>2024-05-29T23:29:11.504Z</time>
      </trkpt>
      <trkpt lat="43.08373" lon="-0.81224">
        <ele>290.93</ele>
        <time>2024-05-29T23:29:21.463Z</time>
      </trkpt>
      <trkpt lat="43.08409" lon="-0.81212">
        <ele>289.95</ele>
        <time>2024-05-29T23:29:31.428Z</time>
      </trkpt>
      <trkpt lat="43.08428" lon="-0.81202">
        <ele>289.06</ele>
        <time>2024-05-29T23:29:41.396Z</time>
      </trkpt>
      <trkpt lat="43.08442" lon="-0.81201">
        <ele>288.17</ele>
        <time>2024-05-29T23:29:51.366Z</time>
      </trkpt>
      <trkpt lat="43.08463" lon="-0.81203">
        <ele>287.26</ele>
        <time>2024-05-29T23:30:01.340Z</time>
      </trkpt>
      <trkpt lat="43.08476" lon="-0.81199">
        <ele>286.44</ele>
        <time>2024-05-29T23:30:11.316Z</time>
      </trkpt>
      <trkpt lat="43.0851" lon="-0.81167">
        <ele>285.66</ele>
        <time>2024-05-29T23:30:21.298Z</time>
      </trkpt>
      <trkpt lat="43.08525" lon="-0.81164">
        <ele>285.02</ele>
        <time>2024-05-29T23:30:31.283Z</time>
      </trkpt>
      <trkpt lat="43.0855" lon="-0.81168">
        <ele>284.48</ele>
        <time>2024-05-29T23:30:41.272Z</time>
      </trkpt>
      <trkpt lat="43.08559" lon="-0.81166">
        <ele>283.96</ele>
        <time>2024-05-29T23:30:51.262Z</time>
      </trkpt>
      <trkpt lat="43.08568" lon="-0.8116">
        <ele>283.45</ele>
        <time>2024-05-29T23:31:01.254Z</time>
      </trkpt>
      <trkpt lat="43.08619" lon="-0.81143">
        <ele>282.87</ele>
        <time>2024-05-29T23:31:11.254Z</time>
      </trkpt>
      <trkpt lat="43.08644" lon="-0.81123">
        <ele>282.26</ele>
        <time>2024-05-29T23:31:21.259Z</time>
      </trkpt>
      <trkpt lat="43.08681" lon="-0.81119">
        <ele>281.82</ele>
        <time>2024-05-29T23:31:31.270Z</time>
      </trkpt>
      <trkpt lat="43.08702" lon="-0.81114">
        <ele>281.43</ele>
        <time>2024-05-29T23:31:41.284Z</time>
      </trkpt>
      <trkpt lat="43.08724" lon="-0.81093">
        <ele>281.04</ele>
        <time>2024-05-29T23:31:51.303Z</time>
      </trkpt>
      <trkpt lat="43.08748" lon="-0.81082">
        <ele>280.68</ele>
        <time>2024-05-29T23:32:01.326Z</time>
      </trkpt>
      <trkpt lat="43.08757" lon="-0.81075">
        <ele>280.37</ele>
        <time>2024-05-29T23:32:11.350Z</time>
      </trkpt>
      <trkpt lat="43.08784" lon="-0.81045">
        <ele>280.1</ele>
        <time>2024-05-29T23:32:21.380Z</time>
      </trkpt>
      <trkpt lat="43.0883" lon="-0.81024">
        <ele>279.9</ele>
        <time>2024-05-29T23:32:31.418Z</time>
      </trkpt>
      <trkpt lat="43.08859" lon="-0.81004">
        <ele>279.75</ele>
        <time>2024-05-29T23:32:41.461Z</time>
      </trkpt>
      <trkpt lat="43.08872" lon="-0.81003">
        <ele>279.58</ele>
        <time>2024-05-29T23:32:51.506Z</time>
      </trkpt>
      <trkpt lat="43.08895" lon="-0.81008">
        <ele>279.41</ele>
        <time>2024-05-29T23:33:01.555Z</time>
      </trkpt>
      <trkpt lat="43.0892" lon="-0.81025">
        <ele>279.22</ele>
        <time>2024-05-29T23:33:11.608Z</time>
      </trkpt>
      <trkpt lat="43.08961" lon="-0.81071">
        <ele>279.14</ele>
        <time>2024-05-29T23:33:21.670Z</time>
      </trkpt>
      <trkpt lat="43.08967" lon="-0.81088">
        <ele>278.99</ele>
        <time>2024-05-29T23:33:31.734Z</time>
      </trkpt>
      <trkpt lat="43.08968" lon="-0.81114">
        <ele>278.91</ele>
        <time>2024-05-29T23:33:41.801Z</time>
      </trkpt>
      <trkpt lat="43.08972" lon="-0.81129">
        <ele>278.82</ele>
        <time>2024-05-29T23:33:51.870Z</time>
      </trkpt>
      <trkpt lat="43.08984" lon="-0.81144">
        <ele>278.71</ele>
        <time>2024-05-29T23:34:01.941Z</time>
      </trkpt>
      <trkpt lat="43.08993" lon="-0.81153">
        <ele>278.58</ele>
        <time>2024-05-29T23:34:12.014Z</time>
      </trkpt>
      <trkpt lat="43.09005" lon="-0.81158">
        <ele>278.42</ele>
        <time>2024-05-29T23:34:22.089Z</time>
      </trkpt>
      <trkpt lat="43.09102" lon="-0.81195">
        <ele>278.2</ele>
        <time>2024-05-29T23:34:32.180Z</time>
      </trkpt>
      <trkpt lat="43.09143" lon="-0.81193">
        <ele>277.92</ele>
        <time>2024-05-29T23:34:42.278Z</time>
      </trkpt>
      <trkpt lat="43.09179" lon="-0.81204">
        <ele>277.79</ele>
        <time>2024-05-29T23:34:52.382Z</time>
      </trkpt>
      <trkpt lat="43.0921" lon="-0.8122">
        <ele>277.51</ele>
        <time>2024-05-29T23:35:02.491Z</time>
      </trkpt>
      <trkpt lat="43.0928" lon="-0.81261">
        <ele>277.11</ele>
        <time>2024-05-29T23:35:12.612Z</time>
      </trkpt>
      <trkpt lat="43.09329" lon="-0.81296">
        <ele>276.86</ele>
        <time>2024-05-29T23:35:22.742Z</time>
      </trkpt>
      <trkpt lat="43.0934" lon="-0.813">
        <ele>276.61</ele>
        <time>2024-05-29T23:35:32.874Z</time>
      </trkpt>
      <trkpt lat="43.09362" lon="-0.81301">
        <ele>276.33</ele>
        <time>2024-05-29T23:35:43.009Z</time>
      </trkpt>
      <trkpt lat="43.09387" lon="-0.81319">
        <ele>276.03</ele>
        <time>2024-05-29T23:35:53.149Z</time>
      </trkpt>
      <trkpt lat="43.0939" lon="-0.81332">
        <ele>275.74</ele>
        <time>2024-05-29T23:36:03.290Z</time>
      </trkpt>
      <trkpt lat="43.09391" lon="-0.81359">
        <ele>275.43</ele>
        <time>2024-05-29T23:36:13.435Z</time>
      </trkpt>
      <trkpt lat="43.09395" lon="-0.81383">
        <ele>275.08</ele>
        <time>2024-05-29T23:36:23.583Z</time>
      </trkpt>
      <trkpt lat="43.09411" lon="-0.81437">
        <ele>274.82</ele>
        <time>2024-05-29T23:36:33.737Z</time>
      </trkpt>
      <trkpt lat="43.09419" lon="-0.81457">
        <ele>274.44</ele>
        <time>2024-05-29T23:36:43.894Z</time>
      </trkpt>
      <trkpt lat="43.09436" lon="-0.81478">
        <ele>274.04</ele>
        <time>2024-05-29T23:36:54.055Z</time>
      </trkpt>
      <trkpt lat="43.09454" lon="-0.81494">
        <ele>273.51</ele>
        <time>2024-05-29T23:37:04.219Z</time>
      </trkpt>
      <trkpt lat="43.09469" lon="-0.81507">
        <ele>272.96</ele>
        <time>2024-05-29T23:37:14.386Z</time>
      </trkpt>
      <trkpt lat="43.09507" lon="-0.81535">
        <ele>272.36</ele>
        <time>2024-05-29T23:37:24.560Z</time>
      </trkpt>
      <trkpt lat="43.09518" lon="-0.81546">
        <ele>271.79</ele>
        <time>2024-05-29T23:37:34.736Z</time>
      </trkpt>
      <trkpt lat="43.0953" lon="-0.81567">
        <ele>271.22</ele>
        <time>2024-05-29T23:37:44.915Z</time>
      </trkpt>
      <trkpt lat="43.09561" lon="-0.81661">
        <ele>270.7</ele>
        <time>2024-05-29T23:37:55.106Z</time>
      </trkpt>
      <trkpt lat="43.09585" lon="-0.81693">
        <ele>270.08</ele>
        <time>2024-05-29T23:38:05.303Z</time>
      </trkpt>
      <trkpt lat="43.09601" lon="-0.81705">
        <ele>269.42</ele>
        <time>2024-05-29T23:38:15.503Z</time>
      </trkpt>
      <trkpt lat="43.09623" lon="-0.8174">
        <ele>268.8</ele>
        <time>2024-05-29T23:38:25.708Z</time>
      </trkpt>
      <trkpt lat="43.09626" lon="-0.81751">
        <ele>268.21</ele>
        <time>2024-05-29T23:38:35.914Z</time>
      </trkpt>
      <trkpt lat="43.09624" lon="-0.81776">
        <ele>267.68</ele>
        <time>2024-05-29T23:38:46.123Z</time>
      </trkpt>
      <trkpt lat="43.09634" lon="-0.81819">
        <ele>267.16</ele>
        <time>2024-05-29T23:38:56.338Z</time>
      </trkpt>
      <trkpt lat="43.09646" lon="-0.81815">
        <ele>266.58</ele>
        <time>2024-05-29T23:39:06.555Z</time>
      </trkpt>
      <trkpt lat="43.09675" lon="-0.81817">
        <ele>265.99</ele>
        <time>2024-05-29T23:39:16.776Z</time>
      </trkpt>
      <trkpt lat="43.09744" lon="-0.81785">
        <ele>265.43</ele>
        <time>2024-05-29T23:39:27.009Z</time>
      </trkpt>
      <trkpt lat="43.09768" lon="-0.81771">
        <ele>265.11</ele>
        <time>2024-05-29T23:39:37.246Z</time>
      </trkpt>
      <trkpt lat="43.09789" lon="-0.81754">
        <ele>264.85</ele>
        <time>2024-05-29T23:39:47.487Z</time>
      </trkpt>
      <trkpt lat="43.09809" lon="-0.81809">
        <ele>264.75</ele>
        <time>2024-05-29T23:39:57.735Z</time>
      </trkpt>
      <trkpt lat="43.09814" lon="-0.81817">
        <ele>264.75</ele>
        <time>2024-05-29T23:40:07.984Z</time>
      </trkpt>
      <trkpt lat="43.09817" lon="-0.81813">
        <ele>264.88</ele>
        <time>2024-05-29T23:40:18.234Z</time>
      </trkpt>
      <trkpt lat="43.09827" lon="-0.81765">
        <ele>262.75</ele>
        <time>2024-05-29T23:40:28.490Z</time>
      </trkpt>
      <trkpt lat="43.09839" lon="-0.81729">
        <ele>263.92</ele>
        <time>2024-05-29T23:40:38.751Z</time>
      </trkpt>
      <trkpt lat="43.09868" lon="-0.81678">
        <ele>265.2</ele>
        <time>2024-05-29T23:40:49.019Z</time>
      </trkpt>
      <trkpt lat="43.09934" lon="-0.81572">
        <ele>266.93</ele>
        <time>2024-05-29T23:40:59.303Z</time>
      </trkpt>
      <trkpt lat="43.09946" lon="-0.81558">
        <ele>268.45</ele>
        <time>2024-05-29T23:41:09.590Z</time>
      </trkpt>
      <trkpt lat="43.09959" lon="-0.81548">
        <ele>270.03</ele>
        <time>2024-05-29T23:41:19.879Z</time>
      </trkpt>
      <trkpt lat="43.10029" lon="-0.8152">
        <ele>271.9</ele>
        <time>2024-05-29T23:41:30.180Z</time>
      </trkpt>
      <trkpt lat="43.10053" lon="-0.81505">
        <ele>273.45</ele>
        <time>2024-05-29T23:41:40.485Z</time>
      </trkpt>
      <trkpt lat="43.10068" lon="-0.81491">
        <ele>274.99</ele>
        <time>2024-05-29T23:41:50.793Z</time>
      </trkpt>
      <trkpt lat="43.10083" lon="-0.81473">
        <ele>276.5</ele>
        <time>2024-05-29T23:42:01.104Z</time>
      </trkpt>
      <trkpt lat="43.10096" lon="-0.81449">
        <ele>278.04</ele>
        <time>2024-05-29T23:42:11.419Z</time>
      </trkpt>
      <trkpt lat="43.10108" lon="-0.81415">
        <ele>279.59</ele>
        <time>2024-05-29T23:42:21.738Z</time>
      </trkpt>
      <trkpt lat="43.10117" lon="-0.81378">
        <ele>278.07</ele>
        <time>2024-05-29T23:42:32.062Z</time>
      </trkpt>
      <trkpt lat="43.10131" lon="-0.81318">
        <ele>281.07</ele>
        <time>2024-05-29T23:42:42.393Z</time>
      </trkpt>
      <trkpt lat="43.1014" lon="-0.81269">
        <ele>282.96</ele>
        <time>2024-05-29T23:42:52.730Z</time>
      </trkpt>
      <trkpt lat="43.10144" lon="-0.81213">
        <ele>285.06</ele>
        <time>2024-05-29T23:43:03.074Z</time>
      </trkpt>
      <trkpt lat="43.10142" lon="-0.81166">
        <ele>286.61</ele>
        <time>2024-05-29T23:43:13.423Z</time>
      </trkpt>
      <trkpt lat="43.10138" lon="-0.81142">
        <ele>289.97</ele>
        <time>2024-05-29T23:43:23.775Z</time>
      </trkpt>
      <trkpt lat="43.10119" lon="-0.81072">
        <ele>292.99</ele>
        <time>2024-05-29T23:43:34.136Z</time>
      </trkpt>
      <trkpt lat="43.10111" lon="-0.81049">
        <ele>295.86</ele>
        <time>2024-05-29T23:43:44.500Z</time>
      </trkpt>
      <trkpt lat="43.1007" lon="-0.80971">
        <ele>299.15</ele>
        <time>2024-05-29T23:43:54.875Z</time>
      </trkpt>
      <trkpt lat="43.10057" lon="-0.80939">
        <ele>302.17</ele>
        <time>2024-05-29T23:44:05.254Z</time>
      </trkpt>
      <trkpt lat="43.10051" lon="-0.80909">
        <ele>305.16</ele>
        <time>2024-05-29T23:44:15.637Z</time>
      </trkpt>
      <trkpt lat="43.10051" lon="-0.80887">
        <ele>308.3</ele>
        <time>2024-05-29T23:44:26.023Z</time>
      </trkpt>
      <trkpt lat="43.10054" lon="-0.80859">
        <ele>313.75</ele>
        <time>2024-05-29T23:44:36.412Z</time>
      </trkpt>
      <trkpt lat="43.10065" lon="-0.80832">
        <ele>317.52</ele>
        <time>2024-05-29T23:44:46.805Z</time>
      </trkpt>
      <trkpt lat="43.10082" lon="-0.8081">
        <ele>325.08</ele>
        <time>2024-05-29T23:44:57.201Z</time>
      </trkpt>
      <trkpt lat="43.10239" lon="-0.80685">
        <ele>329.33</ele>
        <time>2024-05-29T23:45:07.626Z</time>
      </trkpt>
      <trkpt lat="43.10252" lon="-0.80672">
        <ele>332.56</ele>
        <time>2024-05-29T23:45:18.054Z</time>
      </trkpt>
      <trkpt lat="43.10265" lon="-0.80655">
        <ele>335.76</ele>
        <time>2024-05-29T23:45:28.485Z</time>
      </trkpt>
      <trkpt lat="43.10285" lon="-0.80617">
        <ele>339.02</ele>
        <time>2024-05-29T23:45:38.921Z</time>
      </trkpt>
      <trkpt lat="43.10308" lon="-0.8055">
        <ele>342.15</ele>
        <time>2024-05-29T23:45:49.366Z</time>
      </trkpt>
      <trkpt lat="43.10315" lon="-0.80523">
        <ele>345.01</ele>
        <time>2024-05-29T23:45:59.814Z</time>
      </trkpt>
      <trkpt lat="43.10319" lon="-0.80489">
        <ele>347.77</ele>
        <time>2024-05-29T23:46:10.266Z</time>
      </trkpt>
      <trkpt lat="43.10317" lon="-0.80463">
        <ele>350.25</ele>
        <time>2024-05-29T23:46:20.721Z</time>
      </trkpt>
      <trkpt lat="43.10308" lon="-0.80435">
        <ele>352.46</ele>
        <time>2024-05-29T23:46:31.180Z</time>
      </trkpt>
      <trkpt lat="43.10293" lon="-0.80404">
        <ele>354.39</ele>
        <time>2024-05-29T23:46:41.643Z</time>
      </trkpt>
      <trkpt lat="43.10286" lon="-0.80382">
        <ele>356.24</ele>
        <time>2024-05-29T23:46:52.109Z</time>
      </trkpt>
      <trkpt lat="43.10284" lon="-0.80349">
        <ele>357.93</ele>
        <time>2024-05-29T23:47:02.579Z</time>
      </trkpt>
      <trkpt lat="43.10295" lon="-0.8029">
        <ele>359.6</ele>
        <time>2024-05-29T23:47:13.056Z</time>
      </trkpt>
      <trkpt lat="43.10297" lon="-0.8026">
        <ele>360.85</ele>
        <time>2024-05-29T23:47:23.537Z</time>
      </trkpt>
      <trkpt lat="43.10288" lon="-0.80131">
        <ele>361.99</ele>
        <time>2024-05-29T23:47:34.033Z</time>
      </trkpt>
      <trkpt lat="43.10288" lon="-0.80074">
        <ele>362.58</ele>
        <time>2024-05-29T23:47:44.536Z</time>
      </trkpt>
      <trkpt lat="43.10293" lon="-0.80044">
        <ele>362.78</ele>
        <time>2024-05-29T23:47:55.042Z</time>
      </trkpt>
      <trkpt lat="43.10306" lon="-0.80009">
        <ele>366.57</ele>
        <time>2024-05-29T23:48:05.553Z</time>
      </trkpt>
      <trkpt lat="43.1034" lon="-0.79935">
        <ele>362.14</ele>
        <time>2024-05-29T23:48:16.074Z</time>
      </trkpt>
      <trkpt lat="43.10373" lon="-0.79854">
        <ele>365.96</ele>
        <time>2024-05-29T23:48:26.606Z</time>
      </trkpt>
      <trkpt lat="43.10457" lon="-0.79637">
        <ele>365.28</ele>
        <time>2024-05-29T23:48:37.167Z</time>
      </trkpt>
      <trkpt lat="43.10518" lon="-0.79484">
        <ele>364.67</ele>
        <time>2024-05-29T23:48:47.748Z</time>
      </trkpt>
      <trkpt lat="43.10527" lon="-0.79457">
        <ele>363.88</ele>
        <time>2024-05-29T23:48:58.333Z</time>
      </trkpt>
      <trkpt lat="43.10567" lon="-0.79357">
        <ele>360.79</ele>
        <time>2024-05-29T23:49:08.931Z</time>
      </trkpt>
      <trkpt lat="43.10585" lon="-0.79323">
        <ele>360.16</ele>
        <time>2024-05-29T23:49:19.534Z</time>
      </trkpt>
      <trkpt lat="43.10699" lon="-0.79187">
        <ele>359.52</ele>
        <time>2024-05-29T23:49:30.161Z</time>
      </trkpt>
      <trkpt lat="43.10759" lon="-0.79072">
        <ele>358.16</ele>
        <time>2024-05-29T23:49:40.805Z</time>
      </trkpt>
      <trkpt lat="43.1078" lon="-0.79037">
        <ele>357.15</ele>
        <time>2024-05-29T23:49:51.454Z</time>
      </trkpt>
      <trkpt lat="43.10829" lon="-0.78987">
        <ele>355.92</ele>
        <time>2024-05-29T23:50:02.113Z</time>
      </trkpt>
      <trkpt lat="43.10879" lon="-0.78941">
        <ele>354.59</ele>
        <time>2024-05-29T23:50:12.781Z</time>
      </trkpt>
      <trkpt lat="43.10936" lon="-0.78907">
        <ele>353.59</ele>
        <time>2024-05-29T23:50:23.459Z</time>
      </trkpt>
      <trkpt lat="43.10958" lon="-0.78889">
        <ele>352.49</ele>
        <time>2024-05-29T23:50:34.141Z</time>
      </trkpt>
      <trkpt lat="43.11021" lon="-0.78801">
        <ele>349.89</ele>
        <time>2024-05-29T23:50:44.838Z</time>
      </trkpt>
      <trkpt lat="43.11037" lon="-0.78762">
        <ele>348.15</ele>
        <time>2024-05-29T23:50:55.540Z</time>
      </trkpt>
      <trkpt lat="43.11071" lon="-0.78662">
        <ele>346.69</ele>
        <time>2024-05-29T23:51:06.255Z</time>
      </trkpt>
      <trkpt lat="43.11079" lon="-0.78625">
        <ele>345.18</ele>
        <time>2024-05-29T23:51:16.975Z</time>
      </trkpt>
      <trkpt lat="43.11091" lon="-0.78512">
        <ele>343.1</ele>
        <time>2024-05-29T23:51:27.708Z</time>
      </trkpt>
      <trkpt lat="43.11098" lon="-0.78491">
        <ele>341.72</ele>
        <time>2024-05-29T23:51:38.444Z</time>
      </trkpt>
      <trkpt lat="43.11127" lon="-0.78447">
        <ele>340.39</ele>
        <time>2024-05-29T23:51:49.187Z</time>
      </trkpt>
      <trkpt lat="43.11143" lon="-0.78416">
        <ele>338.97</ele>
        <time>2024-05-29T23:51:59.934Z</time>
      </trkpt>
      <trkpt lat="43.11151" lon="-0.78389">
        <ele>337.68</ele>
        <time>2024-05-29T23:52:10.684Z</time>
      </trkpt>
      <trkpt lat="43.11151" lon="-0.78382">
        <ele>333.8</ele>
        <time>2024-05-29T23:52:21.435Z</time>
      </trkpt>
      <trkpt lat="43.11158" lon="-0.78197">
        <ele>335.73</ele>
        <time>2024-05-29T23:52:32.208Z</time>
      </trkpt>
      <trkpt lat="43.11154" lon="-0.78155">
        <ele>334.14</ele>
        <time>2024-05-29T23:52:42.986Z</time>
      </trkpt>
      <trkpt lat="43.11145" lon="-0.78117">
        <ele>332.55</ele>
        <time>2024-05-29T23:52:53.769Z</time>
      </trkpt>
      <trkpt lat="43.11101" lon="-0.77977">
        <ele>330.55</ele>
        <time>2024-05-29T23:53:04.569Z</time>
      </trkpt>
      <trkpt lat="43.11057" lon="-0.77848">
        <ele>328.89</ele>
        <time>2024-05-29T23:53:15.386Z</time>
      </trkpt>
      <trkpt lat="43.11048" lon="-0.77815">
        <ele>325.98</ele>
        <time>2024-05-29T23:53:26.207Z</time>
      </trkpt>
      <trkpt lat="43.11028" lon="-0.7722">
        <ele>322.87</ele>
        <time>2024-05-29T23:53:37.098Z</time>
      </trkpt>
      <trkpt lat="43.10988" lon="-0.77229">
        <ele>322.14</ele>
        <time>2024-05-29T23:53:47.996Z</time>
      </trkpt>
      <trkpt lat="43.10965" lon="-0.77247">
        <ele>321.49</ele>
        <time>2024-05-29T23:53:58.898Z</time>
      </trkpt>
      <trkpt lat="43.10945" lon="-0.7726">
        <ele>320.91</ele>
        <time>2024-05-29T23:54:09.803Z</time>
      </trkpt>
      <trkpt lat="43.10927" lon="-0.77263">
        <ele>320.49</ele>
        <time>2024-05-29T23:54:20.711Z</time>
      </trkpt>
      <trkpt lat="43.10905" lon="-0.77263">
        <ele>320.21</ele>
        <time>2024-05-29T23:54:31.623Z</time>
      </trkpt>
      <trkpt lat="43.10842" lon="-0.77252">
        <ele>320.3</ele>
        <time>2024-05-29T23:54:42.545Z</time>
      </trkpt>
      <trkpt lat="43.10702" lon="-0.7727">
        <ele>320.3</ele>
        <time>2024-05-29T23:54:53.489Z</time>
      </trkpt>
      <trkpt lat="43.10682" lon="-0.77277">
        <ele>320.28</ele>
        <time>2024-05-29T23:55:04.437Z</time>
      </trkpt>
      <trkpt lat="43.10614" lon="-0.77311">
        <ele>320.42</ele>
        <time>2024-05-29T23:55:15.396Z</time>
      </trkpt>
      <trkpt lat="43.10579" lon="-0.77339">
        <ele>320.55</ele>
        <time>2024-05-29T23:55:26.362Z</time>
      </trkpt>
      <trkpt lat="43.10559" lon="-0.77352">
        <ele>320.76</ele>
        <time>2024-05-29T23:55:37.331Z</time>
      </trkpt>
      <trkpt lat="43.10545" lon="-0.77357">
        <ele>321.03</ele>
        <time>2024-05-29T23:55:48.303Z</time>
      </trkpt>
      <trkpt lat="43.10522" lon="-0.7736">
        <ele>321.36</ele>
        <time>2024-05-29T23:55:59.278Z</time>
      </trkpt>
      <trkpt lat="43.105" lon="-0.77354">
        <ele>321.69</ele>
        <time>2024-05-29T23:56:10.257Z</time>
      </trkpt>
      <trkpt lat="43.10448" lon="-0.77334">
        <ele>322.18</ele>
        <time>2024-05-29T23:56:21.245Z</time>
      </trkpt>
      <trkpt lat="43.10442" lon="-0.77334">
        <ele>321.9</ele>
        <time>2024-05-29T23:56:32.234Z</time>
      </trkpt>
      <trkpt lat="43.10436" lon="-0.77335">
        <ele>322.85</ele>
        <time>2024-05-29T23:56:43.223Z</time>
      </trkpt>
      <trkpt lat="43.10404" lon="-0.77349">
        <ele>323.66</ele>
        <time>2024-05-29T23:56:54.218Z</time>
      </trkpt>
      <trkpt lat="43.10375" lon="-0.77356">
        <ele>324.35</ele>
        <time>2024-05-29T23:57:05.218Z</time>
      </trkpt>
      <trkpt lat="43.10313" lon="-0.77378">
        <ele>324.7</ele>
        <time>2024-05-29T23:57:16.228Z</time>
      </trkpt>
      <trkpt lat="43.10196" lon="-0.77406">
        <ele>325.55</ele>
        <time>2024-05-29T23:57:27.257Z</time>
      </trkpt>
      <trkpt lat="43.10184" lon="-0.77415">
        <ele>325.82</ele>
        <time>2024-05-29T23:57:38.288Z</time>
      </trkpt>
      <trkpt lat="43.10141" lon="-0.77471">
        <ele>326.03</ele>
        <time>2024-05-29T23:57:49.329Z</time>
      </trkpt>
      <trkpt lat="43.10131" lon="-0.77493">
        <ele>326.6</ele>
        <time>2024-05-29T23:58:00.373Z</time>
      </trkpt>
      <trkpt lat="43.10103" lon="-0.77574">
        <ele>327.28</ele>
        <time>2024-05-29T23:58:11.427Z</time>
      </trkpt>
      <trkpt lat="43.10097" lon="-0.77604">
        <ele>327.89</ele>
        <time>2024-05-29T23:58:22.485Z</time>
      </trkpt>
      <trkpt lat="43.10092" lon="-0.77669">
        <ele>328.56</ele>
        <time>2024-05-29T23:58:33.550Z</time>
      </trkpt>
      <trkpt lat="43.10084" lon="-0.77691">
        <ele>329.34</ele>
        <time>2024-05-29T23:58:44.618Z</time>
      </trkpt>
      <trkpt lat="43.10072" lon="-0.7771">
        <ele>330.18</ele>
        <time>2024-05-29T23:58:55.689Z</time>
      </trkpt>
      <trkpt lat="43.10061" lon="-0.77718">
        <ele>330.96</ele>
        <time>2024-05-29T23:59:06.762Z</time>
      </trkpt>
      <trkpt lat="43.10049" lon="-0.77722">
        <ele>331.73</ele>
        <time>2024-05-29T23:59:17.837Z</time>
      </trkpt>
      <trkpt lat="43.10012" lon="-0.77728">
        <ele>332.56</ele>
        <time>2024-05-29T23:59:28.918Z</time>
      </trkpt>
      <trkpt lat="43.09979" lon="-0.77746">
        <ele>333.31</ele>
        <time>2024-05-29T23:59:40.005Z</time>
      </trkpt>
      <trkpt lat="43.09929" lon="-0.77777">
        <ele>333.97</ele>
        <time>2024-05-29T23:59:51.101Z</time>
      </trkpt>
      <trkpt lat="43.09835" lon="-0.77849">
        <ele>334.51</ele>
        <time>2024-05-30T00:00:02.214Z</time>
      </trkpt>
      <trkpt lat="43.09821" lon="-0.77857">
        <ele>335.05</ele>
        <time>2024-05-30T00:00:13.329Z</time>
      </trkpt>
      <trkpt lat="43.09807" lon="-0.7786">
        <ele>335.64</ele>
        <time>2024-05-30T00:00:24.447Z</time>
      </trkpt>
      <trkpt lat="43.09746" lon="-0.77859">
        <ele>336.07</ele>
        <time>2024-05-30T00:00:35.574Z</time>
      </trkpt>
      <trkpt lat="43.09728" lon="-0.77867">
        <ele>336.57</ele>
        <time>2024-05-30T00:00:46.704Z</time>
      </trkpt>
      <trkpt lat="43.09712" lon="-0.77879">
        <ele>336.92</ele>
        <time>2024-05-30T00:00:57.837Z</time>
      </trkpt>
    </trkseg>
  </trk>
</gpx>